[[{"header":{"parameterUnit":"m.s-1","parameterCategory":1,"la1":30.6,"la2":29.2853,"lo1":-89.7004,"lo2":-87.6739,"dy":0.0162,"dx":0.0183,"nx":112,"ny":82,"refTime":"2025-07-08T12:00:00:Z","depth":0,"parameterNumber":2,"parameterNumberName":"U-component_of_WINDS"},"data":[0.0,0.0,0.0,0.0,0.0,0.0,0.0,0.0,0.0,0.0,0.0,0.0,0.0,0.0,0.0,0.0,0.0,0.0,0.0,0.0,0.0,0.0,0.0,0.0,0.0,0.0,0.0,0.0,0.0,0.0,0.0,0.0,0.0,0.0,0.0,0.0,0.0,0.0,0.0,0.0,0.0,0.0,0.0,0.0,0.0,0.0,0.0,0.0,0.0,0.0,0.0,0.0,0.0,0.0,0.0,0.0,0.0,0.0,0.0,0.0,0.0,0.0,0.0,0.0,0.0,0.0,0.0,0.0,0.0,0.0,0.0,0.0,0.0,0.0,0.0,0.0,0.0,0.0,0.0,0.0,0.0,0.0,0.0,0.0,0.0,0.0,0.0,0.0,0.0,0.0,0.0,-3.048,-3.3656,-3.56,-3.56,-3.56,-3.3757,-2.945,0.0,0.0,0.0,0.0,0.0,0.0,0.0,0.0,0.0,0.0,0.0,0.0,0.0,0.0,0.0,0.0,0.0,0.0,0.0,0.0,0.0,0.0,0.0,0.0,0.0,0.0,0.0,0.0,0.0,0.0,0.0,0.0,0.0,0.0,0.0,0.0,0.0,0.0,0.0,0.0,0.0,0.0,0.0,0.0,0.0,0.0,0.0,0.0,0.0,0.0,0.0,0.0,0.0,0.0,0.0,0.0,0.0,0.0,0.0,0.0,0.0,0.0,0.0,0.0,0.0,0.0,0.0,0.0,0.0,0.0,0.0,0.0,0.0,0.0,0.0,0.0,0.0,0.0,0.0,0.0,0.0,0.0,0.0,0.0,0.0,0.0,0.0,0.0,0.0,0.0,0.0,0.0,0.0,0.0,0.0,0.0,0.0,0.0,0.0,0.0,0.0,0.0,0.0,0.0,-2.7841,-3.3254,-3.4873,-3.56,-3.56,-3.56,-3.3977,-3.0176,0.0,0.0,0.0,0.0,0.0,0.0,0.0,0.0,0.0,0.0,0.0,0.0,0.0,0.0,0.0,0.0,0.0,0.0,0.0,0.0,0.0,0.0,0.0,0.0,0.0,0.0,0.0,0.0,0.0,0.0,0.0,0.0,0.0,0.0,0.0,0.0,0.0,0.0,0.0,0.0,0.0,0.0,0.0,0.0,0.0,0.0,0.0,0.0,0.0,0.0,0.0,0.0,0.0,0.0,0.0,0.0,0.0,0.0,0.0,0.0,0.0,0.0,0.0,0.0,0.0,0.0,0.0,0.0,0.0,0.0,0.0,0.0,0.0,0.0,0.0,0.0,0.0,0.0,0.0,0.0,0.0,0.0,0.0,0.0,0.0,0.0,0.0,0.0,0.0,0.0,0.0,0.0,0.0,0.0,0.0,0.0,0.0,0.0,0.0,0.0,0.0,0.0,0.0,-2.7401,-2.9854,-3.459,-3.5397,-3.56,-3.56,-3.56,-3.3858,-2.9753,-2.774,0.0,0.0,0.0,0.0,0.0,0.0,0.0,0.0,0.0,0.0,0.0,0.0,0.0,0.0,0.0,0.0,0.0,0.0,0.0,0.0,0.0,0.0,0.0,0.0,0.0,0.0,0.0,0.0,0.0,0.0,0.0,0.0,0.0,0.0,0.0,0.0,0.0,0.0,0.0,0.0,0.0,0.0,0.0,0.0,0.0,0.0,0.0,0.0,0.0,0.0,0.0,0.0,0.0,0.0,0.0,0.0,0.0,0.0,0.0,0.0,0.0,0.0,0.0,0.0,0.0,0.0,0.0,0.0,0.0,0.0,0.0,0.0,0.0,0.0,0.0,0.0,0.0,0.0,0.0,0.0,0.0,0.0,0.0,0.0,0.0,0.0,0.0,0.0,0.0,0.0,0.0,0.0,0.0,0.0,0.0,0.0,0.0,0.0,0.0,0.0,0.0,0.0,-3.0326,-3.2104,-3.5261,-3.56,-3.56,-3.56,-3.5109,-3.3169,-2.9247,-2.7063,0.0,0.0,0.0,0.0,0.0,0.0,0.0,0.0,0.0,0.0,0.0,0.0,0.0,0.0,0.0,0.0,0.0,0.0,0.0,0.0,0.0,0.0,0.0,0.0,0.0,0.0,0.0,0.0,0.0,0.0,0.0,0.0,0.0,0.0,0.0,0.0,0.0,0.0,0.0,0.0,0.0,0.0,0.0,0.0,0.0,0.0,0.0,0.0,0.0,0.0,0.0,0.0,0.0,0.0,0.0,0.0,0.0,0.0,0.0,0.0,0.0,0.0,0.0,0.0,0.0,0.0,0.0,0.0,0.0,0.0,0.0,0.0,0.0,0.0,0.0,0.0,0.0,0.0,0.0,0.0,0.0,0.0,0.0,0.0,0.0,0.0,0.0,0.0,0.0,0.0,0.0,0.0,0.0,0.0,0.0,0.0,0.0,0.0,0.0,0.0,0.0,0.0,-3.1002,-3.3795,-3.543,-3.56,-3.56,-3.56,-3.3711,-3.1532,-2.9145,-2.5625,0.0,0.0,0.0,0.0,0.0,0.0,0.0,0.0,0.0,0.0,0.0,0.0,0.0,0.0,0.0,0.0,0.0,0.0,0.0,0.0,0.0,0.0,0.0,0.0,0.0,0.0,0.0,0.0,0.0,0.0,0.0,0.0,0.0,0.0,0.0,0.0,0.0,0.0,0.0,0.0,0.0,0.0,0.0,0.0,0.0,0.0,0.0,0.0,0.0,0.0,0.0,0.0,0.0,0.0,0.0,0.0,0.0,0.0,0.0,0.0,0.0,0.0,0.0,0.0,0.0,0.0,0.0,0.0,0.0,0.0,0.0,0.0,0.0,0.0,0.0,0.0,0.0,0.0,0.0,0.0,0.0,0.0,0.0,0.0,0.0,0.0,0.0,0.0,0.0,0.0,0.0,0.0,0.0,0.0,0.0,0.0,0.0,0.0,0.0,0.0,0.0,0.0,-3.0258,-3.2949,0.0,-3.56,-3.56,-3.56,-3.4421,-3.2262,-2.89,0.0,0.0,0.0,0.0,0.0,0.0,0.0,0.0,0.0,0.0,0.0,0.0,0.0,0.0,0.0,0.0,0.0,0.0,0.0,0.0,0.0,0.0,0.0,0.0,0.0,0.0,0.0,0.0,0.0,0.0,0.0,0.0,0.0,0.0,0.0,0.0,0.0,0.0,0.0,0.0,0.0,0.0,0.0,0.0,0.0,0.0,0.0,0.0,0.0,0.0,0.0,0.0,0.0,0.0,0.0,0.0,0.0,0.0,0.0,0.0,0.0,0.0,0.0,0.0,0.0,0.0,0.0,0.0,0.0,0.0,0.0,0.0,0.0,0.0,0.0,0.0,0.0,0.0,0.0,0.0,0.0,0.0,0.0,0.0,0.0,0.0,0.0,0.0,0.0,0.0,0.0,0.0,0.0,0.0,0.0,0.0,0.0,0.0,0.0,0.0,0.0,0.0,-2.774,-3.0362,-3.2848,0.0,-3.56,-3.56,-3.56,-3.4286,-3.2073,-2.8862,0.0,0.0,0.0,0.0,0.0,0.0,0.0,0.0,0.0,0.0,0.0,0.0,0.0,0.0,0.0,0.0,0.0,0.0,0.0,0.0,0.0,0.0,0.0,0.0,0.0,0.0,0.0,0.0,0.0,0.0,0.0,0.0,0.0,0.0,0.0,0.0,0.0,0.0,0.0,0.0,0.0,0.0,0.0,0.0,0.0,0.0,0.0,0.0,0.0,0.0,0.0,0.0,0.0,0.0,0.0,0.0,0.0,0.0,0.0,0.0,0.0,0.0,0.0,0.0,0.0,0.0,0.0,0.0,0.0,0.0,0.0,0.0,0.0,0.0,0.0,0.0,0.0,0.0,0.0,0.0,0.0,0.0,0.0,0.0,0.0,0.0,0.0,0.0,0.0,0.0,0.0,0.0,0.0,0.0,0.0,0.0,0.0,0.0,0.0,0.0,0.0,0.0,-2.8604,-3.1579,-3.3981,-3.543,-3.56,-3.56,-3.56,-3.2916,-3.0581,0.0,0.0,0.0,0.0,0.0,0.0,0.0,0.0,0.0,0.0,0.0,0.0,0.0,0.0,0.0,0.0,0.0,0.0,0.0,0.0,0.0,0.0,0.0,0.0,0.0,0.0,0.0,0.0,0.0,0.0,0.0,0.0,0.0,0.0,0.0,0.0,0.0,0.0,0.0,0.0,0.0,0.0,0.0,0.0,0.0,0.0,0.0,0.0,0.0,0.0,0.0,0.0,0.0,0.0,0.0,0.0,0.0,0.0,0.0,0.0,0.0,0.0,0.0,0.0,0.0,0.0,0.0,0.0,0.0,0.0,0.0,0.0,0.0,0.0,0.0,0.0,0.0,0.0,0.0,0.0,0.0,0.0,0.0,0.0,0.0,0.0,0.0,0.0,0.0,0.0,0.0,0.0,0.0,0.0,0.0,0.0,0.0,0.0,0.0,0.0,0.0,0.0,0.0,-2.8604,-3.1579,-3.3981,-3.543,-3.56,-3.56,-3.56,-3.3842,-3.1564,-2.8829,0.0,0.0,0.0,0.0,0.0,0.0,0.0,0.0,0.0,0.0,0.0,0.0,0.0,0.0,0.0,0.0,0.0,0.0,0.0,0.0,0.0,0.0,0.0,0.0,0.0,0.0,0.0,0.0,0.0,0.0,0.0,0.0,0.0,0.0,0.0,0.0,0.0,0.0,0.0,0.0,0.0,0.0,0.0,0.0,0.0,0.0,0.0,0.0,0.0,0.0,0.0,0.0,0.0,0.0,0.0,0.0,0.0,0.0,0.0,0.0,0.0,0.0,0.0,0.0,0.0,0.0,0.0,0.0,0.0,0.0,0.0,0.0,0.0,0.0,0.0,0.0,0.0,0.0,0.0,0.0,0.0,0.0,0.0,0.0,0.0,0.0,0.0,0.0,0.0,0.0,0.0,0.0,0.0,0.0,0.0,0.0,0.0,0.0,0.0,0.0,0.0,0.0,-2.9008,-3.2002,-3.4539,-3.6326,-3.6512,-3.6417,-3.6113,-3.4709,-3.2495,-2.9336,0.0,0.0,0.0,0.0,0.0,0.0,0.0,0.0,0.0,0.0,0.0,0.0,0.0,0.0,0.0,0.0,0.0,0.0,0.0,0.0,0.0,0.0,0.0,0.0,0.0,0.0,0.0,0.0,0.0,0.0,0.0,0.0,0.0,0.0,0.0,0.0,0.0,0.0,0.0,0.0,0.0,0.0,0.0,0.0,0.0,0.0,0.0,0.0,0.0,0.0,0.0,0.0,0.0,0.0,0.0,0.0,0.0,0.0,0.0,0.0,0.0,0.0,0.0,0.0,0.0,0.0,0.0,0.0,0.0,0.0,0.0,0.0,0.0,0.0,0.0,0.0,0.0,0.0,0.0,0.0,0.0,0.0,0.0,0.0,0.0,0.0,0.0,0.0,0.0,0.0,0.0,0.0,0.0,0.0,0.0,0.0,0.0,0.0,0.0,0.0,0.0,0.0,-2.9634,-3.2679,-3.5368,-3.7669,-3.7905,-3.7601,-3.6863,-3.5391,-3.3237,-3.0275,0.0,0.0,0.0,0.0,0.0,0.0,0.0,0.0,0.0,0.0,0.0,0.0,0.0,0.0,0.0,0.0,0.0,0.0,0.0,0.0,0.0,0.0,0.0,0.0,0.0,0.0,0.0,0.0,0.0,0.0,0.0,0.0,0.0,0.0,0.0,0.0,0.0,0.0,0.0,0.0,0.0,0.0,0.0,0.0,0.0,0.0,0.0,0.0,0.0,0.0,0.0,0.0,0.0,0.0,0.0,0.0,0.0,0.0,0.0,0.0,-3.3187,0.0,0.0,0.0,0.0,0.0,0.0,0.0,0.0,0.0,0.0,0.0,0.0,0.0,0.0,0.0,0.0,0.0,0.0,0.0,0.0,0.0,0.0,0.0,0.0,0.0,0.0,0.0,0.0,0.0,0.0,0.0,0.0,0.0,0.0,0.0,0.0,0.0,0.0,0.0,0.0,0.0,-2.9634,-3.2679,-3.5368,-3.7669,-3.7905,-3.7601,-3.6863,-3.5391,-3.3237,-3.0275,0.0,0.0,0.0,0.0,0.0,0.0,0.0,0.0,0.0,0.0,0.0,0.0,0.0,0.0,0.0,0.0,0.0,0.0,0.0,0.0,0.0,0.0,0.0,0.0,0.0,0.0,0.0,0.0,0.0,0.0,0.0,0.0,0.0,0.0,0.0,0.0,0.0,0.0,0.0,0.0,0.0,0.0,0.0,0.0,0.0,0.0,0.0,0.0,0.0,0.0,0.0,0.0,0.0,0.0,0.0,0.0,0.0,0.0,0.0,0.0,0.0,-3.5672,0.0,0.0,0.0,0.0,0.0,0.0,0.0,0.0,0.0,0.0,0.0,0.0,0.0,0.0,0.0,0.0,0.0,0.0,0.0,0.0,0.0,0.0,0.0,0.0,0.0,0.0,0.0,0.0,0.0,0.0,0.0,0.0,0.0,0.0,0.0,0.0,0.0,0.0,0.0,0.0,-3.0632,-3.3423,-3.6045,-3.8667,-3.8954,-3.8362,-3.6931,-3.6068,-3.432,-3.1343,-2.8687,0.0,0.0,0.0,0.0,0.0,0.0,0.0,0.0,0.0,0.0,0.0,0.0,0.0,0.0,0.0,0.0,0.0,0.0,0.0,0.0,0.0,0.0,0.0,0.0,0.0,0.0,0.0,0.0,0.0,0.0,0.0,0.0,0.0,0.0,0.0,0.0,0.0,0.0,0.0,0.0,0.0,0.0,0.0,0.0,0.0,0.0,0.0,0.0,0.0,0.0,0.0,0.0,0.0,0.0,0.0,-4.2936,-4.2411,-4.2556,-4.308,-4.1814,-4.0709,-3.9641,0.0,0.0,0.0,0.0,0.0,0.0,0.0,0.0,0.0,0.0,0.0,0.0,0.0,0.0,0.0,0.0,0.0,0.0,0.0,0.0,0.0,0.0,0.0,0.0,0.0,-3.41,-3.3863,0.0,0.0,0.0,0.0,0.0,0.0,0.0,0.0,0.0,0.0,0.0,0.0,-3.1938,-3.4438,-3.6857,-3.9622,-3.991,-3.9063,-3.6981,-3.6677,-3.5424,-3.2666,-3.004,-2.8213,0.0,0.0,0.0,0.0,0.0,0.0,0.0,0.0,0.0,0.0,0.0,0.0,0.0,0.0,0.0,0.0,0.0,0.0,0.0,0.0,0.0,0.0,0.0,0.0,0.0,0.0,0.0,0.0,0.0,0.0,0.0,0.0,-2.7371,-2.9673,0.0,0.0,0.0,0.0,0.0,0.0,0.0,0.0,0.0,0.0,0.0,0.0,0.0,0.0,-4.3136,-4.3951,-4.482,-4.5743,-4.7717,-4.8424,-4.7968,-4.855,-4.8898,-4.8967,-4.8789,0.0,-4.1325,-4.0293,0.0,0.0,0.0,0.0,0.0,0.0,0.0,0.0,0.0,0.0,0.0,0.0,0.0,0.0,0.0,0.0,0.0,0.0,0.0,0.0,0.0,0.0,-3.7669,-3.6491,-3.684,-3.7094,0.0,-3.358,-3.1142,-2.8739,0.0,0.0,0.0,0.0,0.0,0.0,0.0,0.0,-3.2763,-3.5233,-3.7263,-3.8979,-3.914,-3.8522,-3.6931,-3.6163,-3.5025,-3.3372,-3.2273,-3.1089,-2.9719,-2.7385,0.0,0.0,0.0,0.0,0.0,0.0,0.0,0.0,0.0,0.0,0.0,0.0,0.0,0.0,0.0,0.0,0.0,0.0,0.0,0.0,0.0,0.0,0.0,0.0,0.0,0.0,0.0,0.0,0.0,-2.7231,-3.0471,-3.1457,-3.2931,-3.3306,0.0,0.0,0.0,0.0,0.0,0.0,0.0,0.0,0.0,-4.3099,-4.3769,-4.4947,-4.6794,-4.7591,-4.8387,-4.9202,-4.9822,-5.0144,-5.0253,-5.0166,-5.0112,-5.0112,-5.0112,-4.8695,-4.625,-4.4095,-4.2266,-4.0655,0.0,0.0,0.0,0.0,0.0,0.0,-4.0456,0.0,0.0,0.0,0.0,0.0,0.0,0.0,0.0,0.0,0.0,0.0,0.0,0.0,0.0,-3.8075,-3.8582,-3.9039,-3.8725,-3.7625,-3.578,0.0,-3.2138,-3.0968,-2.7199,0.0,0.0,0.0,0.0,0.0,-3.4197,-3.5893,-3.7371,-3.8836,-3.8633,-3.777,-3.6248,-3.6214,-3.5622,-3.4117,-3.3322,-3.2628,-3.1985,-2.8956,-2.6622,0.0,0.0,0.0,0.0,0.0,0.0,0.0,0.0,0.0,0.0,0.0,0.0,0.0,0.0,0.0,0.0,0.0,0.0,0.0,0.0,0.0,0.0,0.0,0.0,0.0,0.0,0.0,0.0,-3.0207,-3.3416,-3.3955,-3.6573,-3.7549,0.0,0.0,0.0,0.0,0.0,0.0,-4.1868,-4.2791,-4.4458,-4.7065,-4.8297,-4.942,-5.0411,-5.0814,-5.1411,-5.2208,-5.1611,-5.152,-5.1882,-5.1285,-5.0904,-5.0705,-5.0705,-5.0619,-5.0202,-4.7373,-4.5526,-4.4222,-4.2049,-4.1216,0.0,-4.2266,-4.223,-4.2085,-4.4476,-4.491,-4.4093,-4.2155,0.0,-3.9318,-3.5806,0.0,0.0,0.0,0.0,-3.5808,-3.6569,0.0,-3.8599,-3.914,-3.9706,-4.0096,-4.0096,-4.0096,-3.9165,0.0,-3.5808,-3.4957,-3.1092,0.0,0.0,0.0,0.0,-3.3271,-3.5853,-3.6874,-3.7726,-3.8616,-3.8227,-3.7297,-3.5718,-3.6146,-3.5994,-3.4844,-3.41,-3.3677,-3.3677,-3.0258,-2.7866,-2.672,0.0,0.0,0.0,0.0,0.0,0.0,0.0,0.0,0.0,0.0,0.0,0.0,0.0,0.0,0.0,0.0,0.0,0.0,0.0,0.0,0.0,0.0,0.0,0.0,0.0,0.0,0.0,0.0,0.0,-3.8932,-4.0722,0.0,0.0,0.0,0.0,-4.0852,-4.1396,-4.3014,-4.6033,-4.6975,-4.8858,-5.2027,-5.2208,-5.3005,-5.4581,-5.3892,-5.3929,-5.4725,-5.4689,-5.4291,-5.3585,-5.3548,-5.3096,-5.2371,-5.2371,-5.1937,-5.1104,-4.942,-4.8656,-4.842,-4.6794,-4.6142,-4.6069,-4.5363,-4.5091,-4.5073,-4.5236,-4.5273,-4.5247,-4.5384,-4.413,-4.2215,-4.0092,-3.8943,0.0,0.0,-3.821,-3.8937,-3.969,-3.9943,-3.9994,-4.0045,-4.0079,-4.0096,-4.0096,-4.0096,-3.9639,0.0,-3.777,-3.7043,-3.4624,0.0,0.0,-3.4167,-3.4861,-3.5955,-3.7584,-3.843,-3.865,-3.8024,-3.7922,-3.7297,-3.5718,-3.5633,-3.5616,-3.5549,-3.4861,-3.4438,-3.4438,-3.1579,-2.9295,-2.7849,-2.5291,0.0,0.0,0.0,0.0,0.0,0.0,0.0,0.0,0.0,0.0,0.0,0.0,0.0,0.0,0.0,0.0,0.0,0.0,0.0,0.0,0.0,0.0,0.0,0.0,0.0,0.0,0.0,0.0,-4.1749,-4.4346,0.0,0.0,-4.5307,-4.5924,-4.6631,-4.6994,-4.8363,-5.0995,-5.0923,-5.1792,-5.3983,-5.3548,-5.3802,-5.4907,-5.4617,-5.4617,-5.4907,-5.4907,-5.4762,-5.4472,-5.4472,-5.4037,-5.3277,-5.3277,-5.2824,-5.2027,-5.1448,-5.0615,-4.9564,-4.8478,-4.8022,-4.7953,-4.7156,-4.6848,-4.6848,-4.6848,-4.6848,-4.6752,-4.6353,-4.5187,-4.3753,-4.2694,-4.1974,-4.1323,-4.0314,-4.0223,-4.0375,-4.0163,-4.0096,-4.0096,-4.0096,-4.0096,-4.0096,-4.0096,-4.0096,-3.9943,-3.9436,-3.9334,-3.8623,-3.6372,-3.6366,-3.6349,-3.5368,-3.6299,-3.7297,-3.7838,-3.8531,-3.8531,-3.7313,-3.7178,-3.6755,-3.5684,-3.5165,-3.4692,-3.4197,-3.3491,-3.2886,-3.2391,-3.0465,-2.9024,-2.8243,-2.6149,-2.3753,0.0,0.0,0.0,0.0,0.0,0.0,0.0,0.0,0.0,0.0,0.0,0.0,0.0,0.0,0.0,0.0,0.0,0.0,0.0,0.0,0.0,0.0,0.0,0.0,0.0,0.0,-4.2374,-4.4327,-4.6974,-4.8645,-4.8664,-4.9455,-5.0417,-5.1491,-5.1504,-5.2304,-5.4176,-5.3655,-5.3911,-5.5233,-5.5015,-5.5142,-5.5667,-5.5685,-5.5685,-5.5685,-5.5685,-5.554,-5.5269,-5.5269,-5.4707,-5.3693,-5.3693,-5.3241,-5.2498,-5.2498,-5.1864,-5.0814,-5.0017,-4.9546,-4.922,-4.8405,-4.7913,-4.7717,-4.7717,-4.7717,-4.7627,-4.7083,-4.6335,-4.5513,-4.4706,-4.4273,-4.3659,-4.1953,-4.1452,-4.1274,-4.0349,-4.0096,-4.0096,-4.0096,-4.0096,-4.0096,-4.0096,-4.0096,-4.0096,-4.0096,-4.0096,-3.9639,-3.8166,-3.8311,-3.8294,-3.728,-3.799,-3.8633,-3.8633,-3.8853,-3.8531,-3.7297,-3.6948,-3.6468,-3.5667,-3.4928,-3.4387,-3.4146,-3.2966,-3.209,-3.1599,-2.9924,-2.8674,-2.8016,-2.6359,-2.4671,-2.2921,0.0,0.0,0.0,0.0,0.0,0.0,0.0,0.0,0.0,0.0,0.0,0.0,0.0,0.0,0.0,0.0,0.0,0.0,0.0,0.0,0.0,0.0,0.0,-3.9777,-4.188,-4.4383,-4.6805,-4.8589,-5.0241,-5.1818,-5.2446,-5.346,-5.5155,-5.4651,-5.4631,-5.544,-5.5158,-5.5305,-5.6011,-5.679,-5.7188,-5.7188,-5.7188,-5.7188,-5.7188,-5.7188,-5.679,-5.6029,-5.6029,-5.5196,-5.3766,-5.3748,-5.3277,-5.2534,-5.2498,-5.2498,-5.2426,-5.1611,-5.0836,-5.0057,-4.922,-4.8384,-4.7717,-4.7717,-4.7717,-4.7717,-4.7717,-4.7717,-4.747,-4.6215,-4.5833,-4.5294,-4.2786,-4.204,-4.1705,-4.0467,-4.013,-4.0096,-4.0096,-4.0096,-4.0096,-4.0096,-4.0096,-4.0096,-4.0096,-4.0096,-4.0096,-4.0096,-4.0096,-4.0096,-4.0096,-4.0096,0.0,-4.0079,-3.9453,-3.87,-3.7956,-3.7212,-3.6468,-3.5667,-3.4912,-3.4759,-3.5447,-3.344,-3.2226,-3.2192,-3.0144,-2.8439,-2.7247,-2.6037,-2.5246,-2.4934,0.0,0.0,0.0,0.0,0.0,0.0,0.0,0.0,0.0,0.0,0.0,0.0,0.0,0.0,0.0,0.0,0.0,0.0,0.0,0.0,0.0,0.0,-4.1591,-4.1366,-4.5078,-4.8044,-4.8739,-5.0804,-5.2588,-5.362,-5.4184,-5.5193,-5.6832,-5.6329,-5.6296,-5.7102,-5.6776,-5.6663,-5.6862,-5.708,-5.7188,-5.7188,-5.7188,-5.7188,-5.7188,-5.7188,-5.708,-5.6862,-5.6862,-5.6319,-5.5341,-5.4798,-5.411,-5.3313,-5.2733,-5.2498,-5.2426,-5.1611,-5.1158,-5.0796,-4.942,-4.8384,-4.7717,-4.7717,-4.7717,-4.7717,-4.7717,-4.7717,-4.756,-4.6816,-4.634,-4.5686,-4.4064,-4.2946,-4.2005,-4.1137,-4.0493,-4.0096,-4.0096,-4.0096,-4.0096,-4.0096,-4.0096,-4.0096,-4.0096,-4.0096,-4.0096,-4.0096,-4.0096,-4.0096,-4.0096,0.0,0.0,-3.9385,-3.9123,-3.8497,-3.7252,-3.6931,-3.6468,-3.5667,-3.4438,-3.3558,0.0,-3.163,-3.0463,-2.9924,-2.9314,-2.8673,-2.8004,-2.657,-2.5762,0.0,0.0,0.0,0.0,0.0,0.0,0.0,0.0,0.0,0.0,0.0,0.0,0.0,0.0,0.0,0.0,0.0,0.0,0.0,0.0,0.0,0.0,-4.2852,-4.5139,-4.5139,-4.735,-4.934,-5.0391,-5.148,-5.2886,-5.4728,-5.517,-5.6201,-5.8164,-5.7814,-5.7737,-5.8176,-5.7732,-5.7437,-5.7437,-5.7307,-5.7188,-5.7188,-5.7188,-5.7188,-5.7188,-5.7188,-5.7188,-5.7188,-5.7188,-5.6754,0.0,-5.5214,-5.4454,-5.3639,-5.2824,-5.2498,0.0,0.0,0.0,0.0,0.0,-4.8384,-4.7717,-4.7717,-4.7717,-4.7717,-4.7717,-4.7717,-4.7636,-4.7341,-4.7017,-4.6454,-4.4942,-4.3798,-4.2688,-4.152,-4.0646,-4.0096,-4.0096,-4.0096,-4.0096,-4.0096,-4.0096,-4.0096,-4.0096,0.0,0.0,-4.0096,-4.0096,-4.0096,-4.0096,-4.0096,-3.996,0.0,-3.9174,-3.8548,-3.7381,-3.6998,-3.6468,-3.5667,-3.4539,0.0,0.0,0.0,-3.1004,-2.9974,-2.9331,0.0,0.0,0.0,0.0,0.0,0.0,0.0,0.0,-2.6206,-2.6146,0.0,0.0,0.0,0.0,0.0,0.0,0.0,0.0,0.0,0.0,0.0,0.0,0.0,0.0,0.0,0.0,-4.6467,-4.9602,-4.9884,-4.9171,-4.9434,-5.1649,-5.1518,-5.24,-5.5311,-5.5762,-5.6832,-5.9121,-5.8985,-5.8808,-5.8808,0.0,0.0,0.0,0.0,-5.7188,-5.7188,-5.7188,-5.7188,-5.7188,-5.7188,-5.7188,-5.7188,-5.7188,-5.6808,-5.6084,-5.5341,-5.4581,-5.3766,-5.2969,-5.257,-5.2498,-5.2498,-5.2009,-5.1104,-4.9601,-4.8529,0.0,0.0,0.0,0.0,-4.7717,-4.7717,-4.7717,-4.7717,-4.7657,-4.7263,-4.5664,-4.4577,-4.3518,-4.1919,-4.0849,-4.0171,-4.0171,-4.0146,-4.0096,-4.0096,-4.0096,-4.0096,-4.0096,-4.0096,-4.0096,-4.0096,-4.0096,-4.0096,-4.0096,-4.0096,0.0,-4.0096,-3.9469,-3.8751,-3.8091,0.0,0.0,-3.5785,-3.4979,-3.4776,-3.543,-3.4184,-3.2814,-3.1495,-3.0194,-2.9902,-3.0734,-3.0364,-3.0583,-3.1394,-3.1545,-3.1716,-3.1793,-2.9045,-2.9052,0.0,0.0,0.0,0.0,0.0,0.0,0.0,0.0,0.0,0.0,0.0,0.0,0.0,0.0,0.0,-4.557,-4.7988,-5.0203,-5.221,-5.1724,-5.1367,-5.1837,-5.3545,-5.4898,-5.5537,-5.6813,-5.807,-5.9215,-5.8985,-5.8808,-5.8808,-5.8168,0.0,-5.7792,-5.7406,-5.7188,-5.7188,-5.7188,-5.7188,-5.7188,0.0,0.0,-5.7188,-5.7188,-5.7116,-5.6917,-5.612,-5.5359,-5.4617,-5.3802,-5.3078,-5.2498,-5.2498,-5.2009,-5.1176,-5.0216,-4.9365,-4.8565,-4.7935,-4.7717,-4.7717,-4.7717,-4.7717,-4.7717,-4.7717,-4.7407,0.0,-4.6621,-4.5234,-4.3734,-4.3406,-4.1988,-4.0659,-4.0659,-4.0377,-4.0096,-4.0096,-4.0096,-4.0096,-4.0096,-4.0096,-4.0096,-4.0096,-4.0096,-4.0096,-4.0096,-4.0096,-4.0096,-4.0096,-3.9469,-3.8937,-3.8802,-3.7608,-3.6745,-3.6592,-3.5284,-3.4556,-3.4692,-3.3897,-3.3271,-3.3,-3.2713,-3.2475,-3.2282,-3.2767,-3.2905,-3.2733,-3.2867,-3.3529,-3.4561,-3.2292,-3.1503,0.0,0.0,0.0,0.0,0.0,0.0,0.0,0.0,0.0,0.0,0.0,-3.9626,-4.1674,0.0,-4.6298,-4.7988,-4.9997,-5.178,-5.3036,-5.317,-5.3001,-5.2588,-5.3996,-5.5142,-5.5555,-5.7113,-5.8445,-5.9234,-5.914,-5.9044,-5.9044,-5.8561,-5.8235,-5.8051,-5.7703,-5.7388,-5.7188,-5.7188,-5.7188,-5.7188,-5.7188,-5.7188,-5.7188,-5.7188,-5.7188,-5.7152,-5.6337,-5.5577,-5.4816,-5.3603,-5.286,-5.2498,-5.2498,-5.2009,-5.1194,-5.0401,-4.9582,-4.8764,-4.7968,-4.7717,-4.7717,-4.7717,-4.7717,-4.7717,-4.7717,-4.7511,-4.7236,-4.6994,-4.5609,-4.4155,-4.3863,-4.2474,-4.1088,-4.0873,-4.0628,-4.0402,-4.0146,-4.0096,-4.0096,-4.0096,-4.0096,-4.0096,-4.0096,-4.0096,-4.0096,-4.0096,-4.0096,-4.0096,-4.0096,-3.9791,-3.9419,-3.9039,-3.8007,-3.7195,-3.6829,-3.5723,-3.5064,-3.5064,-3.4353,-3.3947,-3.3947,-3.3609,-3.3452,-3.3594,-3.3449,-3.3435,-3.3534,-3.3794,-3.4251,-3.4938,-3.4532,-3.4342,0.0,0.0,0.0,0.0,0.0,0.0,0.0,0.0,-3.7905,-4.0503,-4.2074,-4.3487,-4.5158,-4.7687,-4.9602,-4.9922,-5.178,-5.3205,-5.3205,-5.3883,-5.4165,-5.3524,-5.4277,-5.5141,-5.5781,-5.7375,-5.8614,-5.9253,-5.929,-5.929,-5.929,-5.8985,-5.8644,-5.8301,-5.796,-5.7601,-5.7188,-5.7188,-5.7188,-5.7188,-5.7188,-5.7188,-5.7188,-5.7188,-5.7188,-5.7152,-5.6192,-5.5359,-5.4562,-5.3096,-5.2498,-5.2498,-5.2498,-5.21,-5.143,-5.0637,-4.9818,-4.9021,-4.8203,-4.7844,-4.7717,-4.7717,-4.7717,-4.7717,-4.7717,-4.7717,-4.7615,-4.7191,-4.5935,-4.4636,-4.4205,-4.286,-4.1525,-4.1162,-4.0995,-4.0825,-4.0353,-4.0246,-4.0221,-4.0121,-4.0096,-4.0096,-4.0096,-4.0096,-4.0096,-4.0096,-4.0096,-4.0096,-4.0096,-4.0096,-3.9876,-3.9276,-3.8548,-3.7821,-3.7083,-3.6299,-3.5887,-3.6039,-3.5487,-3.5148,-3.5148,-3.459,-3.4556,-3.5148,-3.4454,-3.4317,-3.4803,-3.5082,-3.5198,-3.5083,-3.6045,-3.6492,-3.1374,-3.3551,-3.5792,-3.7276,-3.7234,-3.8155,0.0,0.0,-4.2243,-4.551,-4.6317,-4.6955,-4.8626,-4.9246,-4.9978,-5.1405,-5.2494,-5.3205,-5.3205,-5.3883,-5.4371,-5.4277,-5.5648,-5.6662,-5.6756,-5.822,-5.9196,-5.929,-5.929,-5.929,-5.929,-5.8985,-5.8644,-5.8301,-5.796,-5.7601,-5.7188,-5.7188,-5.7188,-5.7188,-5.7188,-5.7188,-5.7188,-5.7188,-5.7188,-5.7116,-5.5667,-5.4581,-5.3766,-5.286,-5.2498,-5.2498,-5.2498,-5.2444,-5.2263,-5.1448,-5.0651,-4.9836,-4.9057,-4.8294,-4.7717,-4.7717,-4.7717,-4.7717,-4.7717,-4.7717,-4.7696,-4.7636,-4.6458,-4.521,-4.515,-4.3622,-4.2115,-4.2053,-4.1717,-4.1281,-4.0825,-4.0707,-4.0604,-4.0171,-4.0096,-4.0096,-4.0096,-4.0096,-4.0096,-4.0096,-4.0096,-4.0096,-4.0096,-4.0096,-4.0079,-3.9994,-3.9334,-3.8582,-3.7838,-3.7077,-3.6941,-3.7601,-3.7584,-3.7533,-3.7533,-3.7449,-3.7449,-3.7533,-3.8046,-3.8087,-3.7654,-3.7801,-3.7614,-3.7077,-3.6677,-3.6492,-3.6261,-3.7664,-3.8604,0.0,-4.1661,-4.26,-4.4571,-4.4951,-4.5439,-4.7312,-4.7706,-4.8063,-4.9283,-5.0278,-5.1123,0.0,-5.3414,-5.4597,-5.4597,-5.4897,-5.5103,-5.5103,-5.5723,-5.6343,-5.6849,-5.7938,-5.8802,-5.9253,-5.929,-5.929,-5.929,-5.9178,-5.8946,-5.8603,-5.8257,-5.7914,-5.7553,-5.7332,-5.7188,-5.7188,-5.7188,-5.7188,-5.7188,-5.7188,-5.6935,-5.6428,-5.5377,-5.4454,-5.3639,-5.2824,-5.2498,-5.2498,-5.2498,-5.2498,-5.2389,-5.1593,-5.1086,-5.0615,-4.9347,-4.8674,-4.8312,-4.7862,-4.7717,-4.7717,-4.7717,-4.7717,-4.7717,-4.7717,-4.654,-4.5291,-4.5291,-4.396,-4.2537,-4.2259,-4.2053,-4.1782,-4.1321,-4.0995,-4.0731,-4.0556,-4.0279,-4.0096,-4.0096,-4.0096,-4.0096,-4.0096,-4.0096,-4.0096,-4.0096,-4.0096,-3.9943,-3.952,-3.9174,-3.87,-3.7973,-3.7618,-3.7567,-3.7889,-3.7905,-3.7905,-3.7905,-3.7905,-3.7905,-3.7905,-3.7909,-3.7601,-3.7,-3.7118,-3.6872,-3.6285,-3.6461,-3.6492,-3.9214,0.0,0.0,-4.3182,-4.4853,-4.596,-4.5604,-4.6467,-4.7556,-4.8382,-4.8363,-4.8532,-4.9621,-5.0598,-5.1311,-5.1536,-5.3658,-5.5105,-5.4636,-5.5161,-5.5443,-5.4991,-5.5141,-5.5593,-5.6455,-5.7488,-5.8445,-5.9234,-5.929,-5.929,-5.929,-5.929,-5.9159,-5.8808,-5.8455,-5.8142,-5.7792,-5.7388,-5.7188,-5.7188,-5.7188,-5.7188,-5.7188,-5.7188,-5.6645,-5.5667,-5.5124,-5.4327,-5.3313,-5.2733,-5.2498,-5.2498,-5.2498,-5.2498,-5.2426,-5.1846,-5.1484,-5.1086,-4.9709,-4.9094,-4.8764,-4.795,-4.7717,-4.7717,-4.7717,-4.7717,-4.7717,-4.7717,-4.6703,-4.558,-4.5363,-4.4258,-4.3097,-4.2532,-4.2398,-4.2259,-4.1803,-4.1432,-4.1111,-4.0849,-4.0531,-4.0254,-4.0121,-4.0096,-4.0096,-4.0096,-4.0096,-4.0096,-4.0096,-4.0096,-3.991,-3.9343,-3.9106,-3.887,-3.8531,-3.8328,-3.8294,-3.8481,-3.8514,-3.8514,-3.8514,-3.8514,-3.8514,-3.8514,-3.8137,-3.7555,-3.6772,-3.6874,-3.6513,-3.5799,-3.6261,-3.6492,0.0,0.0,-4.4369,-4.4444,-4.5721,-4.7162,-4.7913,-4.8119,-4.8401,-4.9283,-4.8795,-4.8701,-5.0369,-5.0072,-4.9828,-5.0613,-5.2813,-5.3864,-5.225,-5.4073,-5.5011,-5.3468,-5.3958,-5.4747,0.0,-5.7132,-5.8445,-5.9234,-5.929,-5.929,-5.929,-5.929,-5.9159,-5.8808,-5.8455,-5.8142,-5.7792,-5.7388,-5.7188,-5.7188,-5.7188,-5.7188,-5.7188,-5.7188,-5.6373,-5.4943,-5.4907,-5.4001,-5.2516,-5.2498,-5.2498,-5.2498,-5.2498,-5.2498,-5.2498,-5.2462,-5.1973,-5.1176,-5.0365,-4.9546,-4.8764,-4.795,-4.7717,-4.7717,-4.7717,-4.7717,-4.7717,-4.7717,-4.7102,-4.6287,-4.549,-4.4675,-4.386,-4.3081,-4.2882,-4.275,-4.2297,-4.2157,-4.1906,-4.0972,-4.0778,-4.0635,-4.0171,-4.0096,-4.0096,-4.0096,-4.0096,-4.0096,-4.0096,-4.0096,-4.0096,-4.0079,-3.9436,-3.9276,-3.9977,-3.9377,-3.9259,-3.9994,-4.0028,-4.0028,-4.0028,-4.0028,-4.0028,-4.0028,-4.002,-3.9413,-3.8258,-3.8246,-3.7632,-3.6461,-3.6476,-3.6492,-4.1132,0.0,-4.464,-4.6268,-4.7248,-4.8025,-4.887,-4.913,-4.91,-4.8713,-4.8545,-4.8409,-4.8262,-4.8965,-4.9679,-4.9996,-5.2935,-5.5063,-5.4616,-5.6233,-5.7008,-5.5797,-5.5975,0.0,0.0,0.0,0.0,-5.9159,-5.8821,-5.8746,-5.9271,-5.929,-5.9253,-5.914,-5.8826,-5.8455,-5.8142,-5.7774,-5.7461,-5.7188,-5.7188,-5.7188,-5.7188,-5.7188,-5.6355,-5.4907,-5.4907,-5.4001,-5.2498,-5.2554,-5.2531,-5.2498,-5.2554,-5.2531,-5.2521,-5.2536,-5.2418,-5.196,-5.0587,-4.9908,-4.9474,-4.8152,-4.7717,-4.7717,-4.7717,-4.7717,-4.7717,-4.7717,-4.712,-4.6305,-4.5508,-4.4693,-4.3896,-4.31,-4.2901,-4.2863,-4.2692,-4.2418,-4.2115,-4.1782,-4.1225,-4.0754,-4.0604,-4.0303,-4.0096,-4.0096,-4.0096,-4.0096,-4.0096,-4.0096,-4.0096,-4.0096,-3.9893,-3.9842,-4.0079,-3.9876,-3.9842,-4.0079,-4.0096,-4.0096,-4.0096,-4.0096,-4.0096,-4.0096,-4.0096,-3.9696,-3.8892,-3.849,-3.7895,-3.7104,-3.6693,-3.6492,-4.2818,-4.4286,-4.534,-4.7164,-4.8103,-4.8699,-4.9274,-4.9315,-4.9074,-4.8465,-4.7761,-4.7243,-4.716,-4.7301,-4.7861,-4.9103,-5.2205,-5.4606,-5.5019,-5.7054,-5.7989,-5.669,-5.687,0.0,0.0,0.0,0.0,-5.914,-5.8821,-5.8746,-5.9271,-5.929,-5.929,-5.929,-5.8967,-5.8686,-5.8495,-5.8029,-5.7601,-5.7188,-5.7188,-5.7188,-5.7188,-5.7188,-5.6355,-5.4907,-5.4907,-5.4001,-5.2521,-5.2563,-5.2563,-5.2554,-5.2649,-5.2649,-5.2599,-5.2672,-5.2676,-5.2435,-5.0744,-5.0199,-4.9927,-4.8288,-4.7801,-4.7824,-4.7824,-4.7824,-4.7824,-4.7824,-4.742,-4.6765,-4.5659,-4.495,-4.424,-4.3173,-4.2901,-4.2901,-4.2901,-4.2518,-4.2157,-4.1973,-4.1321,-4.0731,-4.058,-4.0303,-4.0096,-4.0096,-4.0096,-4.0096,-4.0096,-4.0096,-4.0096,-4.0096,-4.0096,-4.0096,-4.0096,-4.0096,-4.0096,-4.0096,-4.0096,-4.0096,-4.0096,-4.0096,-4.0096,-4.0096,-4.0096,-3.9799,-3.9206,-3.8601,-3.7982,-3.7387,-3.6785,-3.6492,-4.3564,-4.5004,-4.6514,-4.7184,-4.8279,-4.9176,-4.9145,-4.8762,-4.84,-4.8405,-4.6512,-4.53,0.0,0.0,-4.4731,-4.7952,-5.0718,-5.276,-5.3623,-5.6565,-5.7962,0.0,0.0,0.0,0.0,0.0,0.0,-5.9233,0.0,-5.9253,-5.9309,-5.9309,-5.929,-5.9327,-5.9005,-5.8808,-5.8808,-5.8123,-5.7601,-5.7213,-5.7206,-5.7188,-5.7188,-5.7188,-5.6355,-5.4907,-5.4907,-5.3983,-5.2503,-5.2563,-5.2613,-5.2613,-5.2761,-5.2806,-5.2806,-5.2806,-5.2806,-5.2565,-5.0911,-5.035,-5.0119,-4.8452,-4.7947,-4.7992,-4.7992,-4.7992,-4.7992,-4.7992,-4.7947,-4.7557,-4.5957,-4.5424,-4.491,-4.3336,-4.2937,-4.2901,-4.2901,-4.2537,-4.2115,-4.1656,-4.1162,-4.0683,-4.0196,-4.0096,-4.0096,-4.0096,-4.0096,-4.0096,-4.0096,-4.0096,-4.0096,-4.0096,-4.0096,-4.0096,-4.0096,-4.0096,-4.0096,-4.0096,-4.0096,-4.0096,-4.0096,-4.0096,-4.0096,-4.0096,-4.0096,-3.9825,-3.9259,-3.8601,-3.801,-3.7431,-3.6816,-3.6492,-4.3852,-4.5572,-4.7223,-4.7886,-4.8512,-4.8861,-4.8402,-4.8348,-4.7909,-4.619,-4.4988,-4.3915,0.0,0.0,0.0,-4.6718,-5.0521,0.0,-5.5465,-5.7509,0.0,-5.7977,0.0,-5.9036,-5.8283,-5.8765,0.0,0.0,-5.8908,-5.8725,-5.9471,-5.9383,-5.9383,-5.9509,-5.929,-5.9044,-5.8808,-5.8123,-5.7745,-5.7649,-5.7338,-5.7188,-5.7188,-5.7188,-5.6355,-5.4907,-5.4907,-5.4012,-5.2586,-5.2717,-5.2761,-5.2761,-5.2893,-5.289,-5.2806,-5.2893,-5.2955,-5.2718,-5.1106,-5.0477,-5.0122,-4.8498,-4.799,-4.7992,-4.7992,-4.7992,-4.7992,-4.7992,-4.7947,-4.7666,-4.671,-4.5883,-4.5057,-4.4157,-4.3411,-4.2901,-4.2901,-4.2806,-4.2692,-4.2557,-4.1888,-4.1047,-4.0229,-4.0096,-4.0096,-4.0096,-4.0096,-4.0096,-4.0096,-4.0096,-4.0096,-4.0096,-4.0096,-4.0096,-4.0096,-4.0096,-4.0096,-4.0096,-4.0096,-4.0096,-4.0096,-4.0096,-4.0096,-4.0096,-4.0096,-4.002,-3.9867,-3.8805,-3.8222,-3.8039,-3.6997,-3.6492,-4.4619,-4.6247,-4.7774,-4.808,-4.82,-4.8094,-4.7551,-4.7074,-4.6199,-4.4364,-4.3111,0.0,-4.0952,0.0,0.0,0.0,0.0,0.0,-5.5543,-5.7401,-5.8658,0.0,-5.9752,0.0,-5.9311,-5.9649,-5.9918,0.0,-5.9318,-5.9142,-5.9698,-5.9631,-5.9614,-5.9736,-5.9526,-5.9234,-5.8808,-5.8412,-5.8186,-5.8006,-5.7631,-5.7461,-5.7455,-5.7264,-5.6355,-5.4907,0.0,-5.4047,-5.2613,-5.2806,-5.289,-5.2893,-5.3039,-5.3039,-5.2977,-5.306,-5.3082,-5.2843,-5.1252,-5.0641,-5.0305,-4.864,-4.811,-4.8131,-4.8131,-4.8131,-4.8131,-4.8131,-4.807,-4.7864,-4.7102,-4.6166,-4.5249,-4.4525,-4.3669,-4.3031,-4.3031,-4.2864,-4.2674,-4.246,-4.1828,-4.1145,-4.0546,-4.0336,-4.0238,-4.0138,-4.0163,-4.0163,-4.0113,-4.0096,-4.0096,-4.0096,-4.0096,-4.0096,-4.0096,-4.0096,-4.0096,-4.0096,-4.0096,-4.0096,-4.0096,-4.0096,-4.0096,-4.0096,-4.0096,-4.0096,-4.0096,-3.9146,-3.8684,-3.8657,-3.746,-3.6892,-4.5478,-4.6886,-4.8187,-4.807,-4.77,-4.7216,-4.6645,-4.5322,-4.3888,-4.2713,0.0,-3.9804,-3.9804,-3.9976,-4.1227,-4.4571,0.0,-5.0474,-5.4925,-5.6816,-5.8342,-5.9953,-6.0148,-6.0148,-6.0148,-6.0026,-5.9994,-6.0133,-6.0026,-5.995,-5.9934,-5.9902,-5.9902,-5.9902,-5.9736,-5.94,-5.8908,-5.8868,-5.8686,-5.8366,-5.8029,-5.7862,-5.7862,-5.7352,-5.6321,-5.4943,0.0,0.0,-5.2654,-5.2893,-5.302,-5.3042,-5.3146,-5.3185,-5.3185,-5.3185,-5.3185,-5.2986,-5.1371,-5.0802,-5.0507,-4.8777,-4.8247,-4.8306,-4.8306,-4.8306,-4.8306,-4.8306,-4.8247,-4.8042,-4.7348,-4.6392,-4.5421,-4.4765,-4.3889,-4.3214,-4.3214,-4.2884,-4.2444,-4.1979,-4.1573,-4.1218,-4.1041,-4.0761,-4.0476,-4.0229,-4.0246,-4.0238,-4.0096,-4.0096,-4.0096,-4.0096,-4.0096,-4.0096,-4.0096,-4.0096,-4.0096,-4.0096,-4.0096,-4.0096,-4.0096,-4.0096,-4.0096,-4.0096,-4.0096,-4.0096,-4.0096,-3.9497,-3.9206,-3.9179,-3.8055,-3.746,-4.5736,-4.7,-4.8248,-4.8169,-4.7642,-4.6873,-4.5854,-4.3882,0.0,0.0,-3.883,-3.7169,-3.7169,-3.8295,-4.0329,-4.3682,-4.6356,-4.9977,0.0,0.0,-5.7714,0.0,0.0,0.0,0.0,0.0,0.0,0.0,0.0,0.0,-6.0068,-5.9966,-5.9902,-5.9902,-5.9869,-5.9717,-5.9454,-5.9197,-5.8947,-5.8706,-5.8366,-5.8213,-5.8172,-5.7171,-5.6204,-5.5272,0.0,0.0,-5.2783,-5.2934,-5.3082,-5.3164,-5.3185,-5.3185,-5.3185,-5.3185,-5.3185,-5.2986,-5.1371,-5.0802,-5.0527,-4.8837,-4.8287,-4.8306,-4.8306,-4.8306,-4.8306,-4.8306,-4.8247,-4.817,-4.8083,-4.6852,-4.5586,-4.5552,-4.4346,-4.3214,-4.3214,-4.3142,-4.2939,-4.2464,-4.2306,-4.2124,-4.1707,-4.1178,-4.0803,-4.0756,-4.0392,-4.0138,-4.0096,-4.0096,-4.0096,-4.0096,-4.0096,-4.0096,-4.0096,-4.0096,-4.0096,-4.0096,-4.0096,-4.0096,-4.0096,-4.0096,-4.0096,-4.0096,-4.0096,-4.0096,-4.0096,-3.9497,-3.9206,-3.9162,-3.8463,-3.7883,-4.5865,-4.7057,-4.8287,-4.8267,-4.7369,-4.6064,-4.4524,0.0,0.0,0.0,-3.6997,-3.5812,-3.5812,-3.7196,0.0,-4.2221,-4.4112,-4.7264,-5.3168,0.0,0.0,0.0,0.0,0.0,0.0,0.0,0.0,0.0,0.0,0.0,-6.027,-6.0197,-6.0122,-6.001,-5.9994,-5.9915,-5.977,-5.9595,-5.9471,-5.9363,-5.9007,-5.8588,-5.8158,-5.7446,-5.643,-5.5207,0.0,0.0,-5.3162,-5.3109,-5.3143,-5.3185,-5.3185,-5.3185,-5.3185,-5.3185,-5.3185,-5.2986,-5.1371,-5.0802,-5.0527,-4.8857,-4.8306,-4.8306,-4.8306,-4.8306,-4.8306,-4.8306,-4.8286,-4.8175,-4.7791,-4.6726,-4.5663,-4.5297,-4.4272,-4.3375,-4.3375,-4.3375,-4.3304,-4.3069,-4.279,-4.2501,-4.2223,-4.1789,-4.1353,-4.1007,-4.0767,-4.0514,-4.0238,-4.0138,-4.0096,-4.0096,-4.0096,-4.0096,-4.0096,-4.0096,-4.0096,-4.0096,-4.0096,-4.0096,-4.0096,-4.0096,-4.0096,-4.0096,-4.0096,-4.0096,-4.0096,-3.9799,-3.967,-3.9653,-3.9055,-3.8601,-4.5847,-4.6948,-4.8067,-4.8269,-4.7095,-4.5382,-4.3453,-4.0849,0.0,0.0,-3.5526,-3.4762,-3.5133,-3.6279,-3.8113,0.0,-4.2068,-4.4647,-5.0741,0.0,0.0,0.0,0.0,0.0,0.0,0.0,0.0,0.0,0.0,0.0,0.0,-6.0403,-6.0332,-6.0163,-6.0163,-6.0087,-5.995,-5.995,-5.9934,-5.9885,-5.9403,-5.881,-5.8171,-5.7491,-5.6463,-5.5192,0.0,0.0,0.0,-5.3361,-5.3272,-5.3185,-5.3185,-5.3185,-5.3185,-5.3185,-5.3096,-5.2747,-5.1298,-5.0692,-5.0306,-4.8802,-4.8306,-4.8306,-4.8306,-4.8306,-4.8306,-4.8306,-4.8306,-4.8122,-4.7314,-4.6507,-4.5645,-4.469,-4.3956,-4.3515,-4.3515,-4.3515,-4.3515,-4.3515,-4.316,-4.2827,-4.2734,-4.2322,-4.1825,-4.1298,-4.1088,-4.0825,-4.0412,-4.0263,-4.0188,-4.0188,-4.0121,-4.0096,-4.0096,-4.0096,-4.0096,-4.0096,-4.0096,-4.0096,-4.0096,-4.0096,-4.0096,-4.0096,-4.0096,-4.0096,-4.0096,-4.0096,-4.0096,-4.007,-3.9618,-3.9312,-4.57,-4.6544,-4.7388,-4.8122,-4.7095,-4.5382,-4.3453,0.0,0.0,-3.6575,-3.4609,-3.3387,-3.4915,-3.5324,0.0,0.0,0.0,-4.3959,0.0,0.0,0.0,0.0,0.0,0.0,0.0,0.0,0.0,0.0,0.0,0.0,0.0,-6.0403,-6.0389,-6.0375,-6.0375,-6.0285,-6.0068,-6.0068,-6.0026,-5.9885,-5.9057,-5.8627,-5.8494,-5.6623,-5.5695,-5.549,0.0,0.0,0.0,-5.3605,-5.3482,-5.3185,-5.3185,-5.3185,-5.3185,-5.3185,-5.2747,-5.1977,-5.1096,-5.0306,-4.9555,-4.8618,-4.8306,-4.8306,-4.8306,-4.8306,-4.8306,-4.8306,-4.8306,-4.8122,-4.7314,-4.6507,-4.5516,-4.3992,-4.3551,-4.3515,-4.3515,-4.3515,-4.3515,-4.3515,-4.3462,-4.3427,-4.341,-4.2638,-4.1979,-4.1916,-4.1134,-4.0541,-4.0485,-4.0485,-4.0444,-4.0444,-4.0263,-4.0096,-4.0096,-4.0096,-4.0096,-4.0096,-4.0096,-4.0096,-4.0096,-4.0096,-4.0096,-4.0096,-4.0096,-4.0096,-4.0096,-4.0096,-4.0096,-4.0096,-4.0045,-3.9722,-4.5553,-4.6489,-4.7186,-4.7498,-4.6746,-4.5143,-4.2207,0.0,-3.7234,-3.5985,-3.4541,-3.3834,-3.4999,-3.5209,-3.626,0.0,0.0,0.0,-4.6279,0.0,0.0,0.0,0.0,0.0,0.0,0.0,0.0,0.0,0.0,0.0,0.0,0.0,-6.0403,-6.0403,-6.0403,-6.0361,-6.0285,-5.9755,-5.9478,-5.9401,-5.8582,-5.7896,-5.7382,-5.6573,-5.594,0.0,0.0,0.0,0.0,-5.4122,-5.3833,-5.3484,-5.3484,-5.3085,-5.2546,-5.3023,-5.238,-5.1224,-5.0912,-5.027,-4.9463,-4.8581,-4.8306,-4.8306,-4.8306,-4.8306,-4.8306,-4.8306,-4.8306,-4.8012,-4.6709,-4.5424,-4.4287,-4.3662,-4.3515,-4.3515,-4.3515,-4.3515,-4.3515,-4.3515,-4.3463,-4.3446,-4.3446,-4.3105,-4.2751,-4.246,-4.1828,-4.1298,-4.1019,-4.0717,-4.051,-4.051,-4.0395,-4.0313,-4.0213,-4.0213,-4.0213,-4.0213,-4.0121,-4.0138,-4.0213,-4.0138,-4.0096,-4.0096,-4.0096,-4.0096,-4.0096,-4.0096,-4.0096,-4.0096,-4.0096,-3.9969,-4.469,-4.5792,-4.6452,-4.6691,-4.614,-4.4682,0.0,-3.9301,-3.7554,-3.5604,-3.456,-3.4254,-3.5057,-3.5209,-3.5954,0.0,0.0,-3.947,-4.3433,0.0,0.0,0.0,0.0,0.0,0.0,0.0,0.0,0.0,0.0,0.0,0.0,0.0,-6.0403,-6.0403,-6.0403,-6.0274,-6.0007,-5.9415,-5.8994,-5.8746,-5.7905,-5.7179,-5.6587,-5.6339,-5.5938,0.0,0.0,0.0,0.0,-5.443,-5.407,-5.3701,-5.3584,-5.307,-5.2417,-5.3004,-5.2197,-5.0802,-5.0802,-5.0105,-4.9095,-4.8508,-4.8306,-4.8306,-4.8306,-4.8306,-4.8306,-4.8306,-4.7957,-4.7333,-4.6195,-4.4709,-4.3515,-4.3515,-4.3515,-4.3515,-4.3515,-4.3515,-4.3515,-4.3515,-4.3463,-4.3429,-4.3429,-4.334,-4.3142,-4.2825,-4.2241,-4.1721,-4.1393,-4.0937,-4.0631,-4.0631,-4.0631,-4.0558,-4.0362,-4.0362,-4.0362,-4.0362,-4.0288,-4.0238,-4.0305,-4.0213,-4.0138,-4.0096,-4.0096,-4.0096,-4.0096,-4.0096,-4.0096,-4.0096,-4.0096,-3.9995,-4.289,-4.4103,-4.4929,-4.5718,-4.5314,-4.3984,-4.1218,-3.9301,-3.7554,-3.5604,-3.456,-3.4254,-3.5057,-3.5209,-3.5744,-3.7445,0.0,0.0,0.0,0.0,0.0,0.0,0.0,0.0,0.0,0.0,0.0,0.0,0.0,0.0,0.0,0.0,-6.0403,-6.0403,-6.0403,-5.9988,-5.9128,-5.9095,-5.8708,-5.7905,-5.7027,-5.6619,-5.6568,-5.5785,0.0,0.0,0.0,0.0,0.0,-5.443,-5.407,-5.3662,-5.3336,-5.3206,-5.3185,-5.3185,-5.2197,-5.0802,-5.0802,-4.9719,-4.8324,-4.8306,-4.8306,-4.8306,-4.8306,-4.8306,-4.8306,-4.8306,-4.715,-4.592,-4.5902,-4.4709,-4.3515,-4.3515,-4.3515,-4.3515,-4.3515,-4.3515,-4.3515,-4.3515,-4.3515,-4.3515,-4.3515,-4.3178,-4.2901,-4.2901,-4.2095,-4.1494,-4.1494,-4.114,-4.0912,-4.0912,-4.0912,-4.0776,-4.0534,-4.051,-4.051,-4.051,-4.051,-4.0436,-4.0305,-4.0305,-4.0255,-4.0096,-4.0096,-4.0096,-4.0096,-4.0096,-4.0096,-4.0096,-4.0096,-3.9773,-3.9271,-4.0423,-4.1238,-4.0425,-4.0832,-4.0701,-3.7904,-3.7722,-3.7589,-3.5612,-3.4999,-3.4904,-3.5152,-3.5209,-3.6146,-3.9011,-3.9718,0.0,0.0,0.0,0.0,0.0,0.0,0.0,0.0,0.0,0.0,0.0,0.0,0.0,0.0,0.0,0.0,-6.037,-5.9816,-5.9376,-5.9095,-5.7963,-5.7256,-5.6988,-5.6167,-5.5785,-5.5766,0.0,0.0,0.0,0.0,0.0,0.0,-5.5104,-5.481,-5.4428,-5.407,-5.346,-5.2691,-5.2447,-5.1353,-4.9996,-4.9996,-4.9242,-4.8306,-4.8306,-4.8306,-4.8306,-4.8306,-4.8306,-4.8196,-4.7626,-4.6728,-4.5773,-4.5223,-4.4287,-4.3515,-4.3515,-4.3515,-4.3515,-4.3515,-4.3515,-4.3515,-4.3515,-4.3515,-4.3515,-4.3515,-4.3392,-4.3322,-4.3322,-4.2539,-4.1969,-4.1969,-4.1351,-4.0912,-4.0912,-4.0912,-4.084,-4.0648,-4.0648,-4.0648,-4.0648,-4.0558,-4.0485,-4.0436,-4.0337,-4.0238,-4.0096,-4.0096,-4.0096,-4.0096,-4.0096,-4.0096,-4.0096,-4.0096,-3.9995,-3.645,-3.7628,-3.8416,-3.7798,-3.8354,-3.8553,-3.6559,-3.6984,-3.7284,-3.5493,-3.5149,-3.5209,-3.5209,-3.5209,-3.5897,-3.8028,-3.8916,0.0,0.0,0.0,0.0,0.0,0.0,0.0,0.0,0.0,0.0,0.0,0.0,0.0,0.0,0.0,0.0,-5.9434,-5.8937,-5.8498,-5.8154,-5.7122,-5.6454,-5.6129,-5.5651,-5.5403,-5.5403,0.0,0.0,0.0,0.0,0.0,0.0,-5.5246,-5.5038,-5.4761,-5.443,-5.3752,-5.2902,-5.2393,-5.1293,-5.0014,-4.9721,-4.9022,-4.8306,-4.8306,-4.8306,-4.8306,-4.8306,-4.8306,-4.8214,-4.7681,-4.6764,-4.5773,-4.5278,-4.4323,-4.3515,-4.3515,-4.3515,-4.3515,-4.3515,-4.3515,-4.3515,-4.3515,-4.3515,-4.3515,-4.3515,-4.3515,-4.3515,-4.3515,-4.277,-4.2198,-4.2198,-4.144,-4.0912,-4.0912,-4.0912,-4.0864,-4.0793,-4.0769,-4.0769,-4.0769,-4.068,-4.0631,-4.0583,-4.0502,-4.0387,-4.0246,-4.0246,-4.0246,-4.0246,-4.0213,-4.0163,-4.0096,-4.0096,-4.0096,0.0,-3.5412,-3.6228,-3.6943,-3.7183,-3.7105,-3.6516,-3.6616,0.0,-3.5192,-3.503,-3.5171,-3.5343,-3.5286,-3.5324,-3.5687,-3.7005,0.0,0.0,0.0,0.0,0.0,0.0,0.0,0.0,0.0,0.0,0.0,0.0,0.0,0.0,0.0,0.0,0.0,-5.7753,-5.7351,-5.6619,-5.653,-5.6129,-5.5403,-5.5403,-5.5403,-5.5403,0.0,0.0,0.0,0.0,0.0,0.0,-5.5009,-5.4836,-5.4806,-5.4463,-5.4068,-5.3591,-5.2754,-5.1731,-5.0662,-4.9833,-4.9005,-4.8344,-4.8306,-4.8306,-4.8306,-4.8306,-4.8306,-4.8288,-4.8159,-4.7058,-4.5865,-4.5755,-4.4617,-4.3515,-4.3515,-4.3515,-4.3515,-4.3515,-4.3515,-4.3515,-4.3515,-4.3515,-4.3515,-4.3515,-4.3515,-4.3515,-4.3515,-4.2789,-4.2239,-4.2239,-4.1468,-4.0942,-4.0942,-4.0935,-4.0912,-4.0912,-4.0912,-4.0912,-4.0912,-4.0912,-4.084,-4.0697,-4.0697,-4.0648,-4.051,-4.051,-4.051,-4.051,-4.0362,-4.0238,-4.0096,-4.0096,-4.0113,-3.0616,0.0,-3.2502,-3.1515,-3.2157,-3.2925,0.0,-3.3342,-3.4262,-3.4238,-3.427,-3.4851,-3.6765,-3.6069,-3.6489,-4.0387,-4.0788,-4.1705,0.0,0.0,0.0,0.0,0.0,0.0,0.0,0.0,0.0,0.0,0.0,0.0,0.0,0.0,0.0,0.0,-5.6301,-5.6186,-5.6587,-5.5995,-5.5594,-5.5403,-5.5403,-5.5403,0.0,0.0,0.0,0.0,0.0,0.0,0.0,-5.5305,-5.526,-5.5214,-5.4825,-5.4261,-5.3491,-5.2367,-5.1376,-5.0417,-4.9357,-4.8842,-4.8641,-4.8383,-4.8306,-4.8306,-4.8306,-4.8306,-4.8049,-4.6819,-4.6195,-4.5608,-4.4378,-4.3773,-4.3515,-4.3515,-4.3515,-4.3515,-4.3515,-4.3515,-4.3515,-4.3515,-4.3515,-4.3515,-4.3515,-4.3515,-4.3515,-4.3515,-4.3069,-4.2749,-4.2749,-4.1927,-4.1356,-4.1356,-4.1088,-4.0912,-4.0912,-4.0912,-4.0912,-4.0912,-4.0912,-4.084,-4.0697,-4.0697,-4.0648,-4.051,-4.051,-4.051,-4.051,-4.0485,-4.0387,-4.0238,-4.0238,-4.0188,-2.9396,-3.0513,-3.158,-3.1114,-3.164,-3.2279,-3.2422,-3.2691,-3.3063,-3.3652,-3.3925,-3.4565,-3.623,-3.6468,-3.7298,0.0,-4.138,0.0,0.0,0.0,0.0,0.0,0.0,0.0,0.0,0.0,0.0,0.0,0.0,0.0,0.0,0.0,0.0,0.0,0.0,-5.5613,-5.6052,-5.5632,-5.5403,-5.5403,-5.5403,-5.5403,0.0,0.0,0.0,0.0,0.0,0.0,-5.5403,-5.5403,-5.5174,-5.4779,-5.4564,-5.386,-5.2882,-5.1869,-5.1061,-5.0346,-4.9361,-4.9031,-4.8965,-4.8641,-4.8532,-4.8495,-4.8363,-4.8049,-4.7571,-4.6709,-4.6177,-4.5608,-4.4378,-4.3773,-4.3515,-4.3515,-4.3515,-4.3515,-4.3515,-4.3515,-4.3515,-4.3515,-4.3515,-4.3515,-4.3515,-4.3515,-4.3515,-4.3515,-4.316,-4.2901,-4.2901,-4.2074,-4.1494,-4.1494,-4.114,-4.0912,-4.0912,-4.0912,-4.0912,-4.0912,-4.0912,-4.0864,-4.0793,-4.0793,-4.0769,-4.068,-4.068,-4.0655,-4.0583,-4.0583,-4.051,-4.0387,-4.033,-4.0263,-2.9842,-3.1032,-3.224,-3.2555,-3.2816,-3.315,-3.3743,0.0,0.0,0.0,0.0,0.0,0.0,-3.7085,0.0,0.0,0.0,0.0,0.0,0.0,0.0,0.0,0.0,0.0,0.0,0.0,0.0,0.0,0.0,0.0,0.0,0.0,0.0,0.0,0.0,0.0,-5.5403,-5.5403,-5.5403,-5.5403,-5.5403,-5.5403,-5.5403,0.0,0.0,0.0,0.0,0.0,-5.5403,-5.5269,-5.4772,-5.4085,-5.3951,-5.32,-5.2115,-5.1426,-5.088,-5.0365,-4.9638,-4.9317,-4.9177,-4.8883,-4.8764,-4.8676,-4.8383,-4.7736,-4.7076,-4.6947,-4.6342,-4.5535,-4.4727,-4.4011,-4.3515,-4.3515,-4.3515,-4.3515,-4.3515,-4.3515,-4.3515,-4.3515,-4.3515,-4.3515,-4.3515,-4.3515,-4.3515,-4.3515,-4.3214,-4.2976,-4.2976,-4.2239,-4.1692,-4.1604,-4.1255,-4.0965,-4.0912,-4.0912,-4.0912,-4.0912,-4.0912,-4.0912,-4.0912,-4.0912,-4.0912,-4.0912,-4.0912,-4.084,-4.0721,-4.0721,-4.0673,-4.0534,-4.0412,-4.0355,-3.1886,-3.3131,-3.3373,-3.144,-3.1998,-3.2899,-3.2516,-3.2262,0.0,0.0,0.0,0.0,0.0,-3.9217,-4.0215,0.0,0.0,0.0,0.0,0.0,0.0,0.0,0.0,0.0,0.0,0.0,0.0,0.0,0.0,0.0,0.0,0.0,0.0,0.0,0.0,0.0,0.0,-5.5403,-5.5403,-5.5403,-5.5403,-5.5403,-5.5403,-5.5403,0.0,0.0,0.0,0.0,-5.5345,-5.46,-5.4218,-5.4027,-5.3282,-5.2474,-5.1681,-5.1579,-5.102,-5.0279,-4.9868,-4.9348,-4.8866,-4.8816,-4.8604,-4.8364,-4.8325,-4.7736,-4.6947,-4.6287,-4.5498,-4.4709,-4.3883,-4.3589,-4.3515,-4.3515,-4.3515,-4.3515,-4.3515,-4.3515,-4.3515,-4.3515,-4.3515,-4.3515,-4.3515,-4.3515,-4.3515,-4.3515,-4.3444,-4.341,-4.341,-4.2976,-4.2518,-4.2136,-4.167,-4.126,-4.0918,-4.0912,-4.0912,-4.0912,-4.0912,-4.0912,-4.0912,-4.0912,-4.0912,-4.0912,-4.0912,-4.0888,-4.0864,-4.0864,-4.0817,-4.0673,-4.0648,-4.0576,-3.0623,-3.1645,-3.2202,-3.1961,-3.38,-3.5591,-3.5298,-3.4974,-3.5022,0.0,0.0,0.0,0.0,0.0,0.0,0.0,0.0,0.0,0.0,0.0,0.0,0.0,0.0,0.0,0.0,0.0,0.0,0.0,0.0,0.0,0.0,0.0,0.0,0.0,0.0,0.0,0.0,-5.4696,-5.4925,-5.5403,-5.5403,-5.5403,-5.5403,-5.5403,-5.5403,0.0,0.0,-5.5135,-5.4677,-5.4276,-5.3569,-5.2709,-5.2308,-5.1639,-5.0913,-5.0913,-5.0646,-5.0248,-4.9929,-4.9603,-4.9271,-4.8917,-4.8712,-4.855,-4.8345,-4.7443,-4.6379,-4.5993,-4.5333,-4.4525,-4.3699,-4.3515,-4.3515,-4.3515,-4.3515,-4.3515,-4.3515,-4.3515,-4.3515,-4.3515,-4.3515,-4.3515,-4.3515,-4.3515,-4.3515,-4.3515,-4.3515,-4.3515,-4.3515,-4.316,-4.2825,-4.2614,-4.2157,-4.1692,-4.126,-4.1214,-4.1117,-4.0894,-4.0912,-4.0912,-4.0912,-4.0912,-4.0912,-4.0912,-4.0912,-4.0912,-4.0912,-4.0912,-4.0864,-4.0817,-4.0721,-4.0673,-2.9842,-3.0418,-3.1087,-3.3094,-3.5182,-3.7002,-3.7949,-3.7522,-3.733,0.0,0.0,0.0,0.0,0.0,0.0,0.0,0.0,0.0,0.0,0.0,0.0,0.0,0.0,0.0,0.0,0.0,0.0,0.0,0.0,0.0,0.0,0.0,0.0,0.0,0.0,0.0,0.0,-5.3798,-5.4123,-5.4791,-5.4791,-5.4791,-5.4791,-5.4791,-5.4791,-5.4791,-5.4791,-5.4409,-5.3779,-5.3588,-5.2766,-5.157,-5.1391,-5.0894,-5.0302,-5.0302,-5.0302,-5.0259,-5.0012,-4.9857,-4.9702,-4.9097,-4.8849,-4.8729,-4.8402,-4.7186,-4.5902,-4.5902,-4.5186,-4.4287,-4.3644,-4.3515,-4.3515,-4.3515,-4.3515,-4.3515,-4.3515,-4.3515,-4.3515,-4.3515,-4.3515,-4.3515,-4.3515,-4.3515,-4.3515,-4.3515,-4.3515,-4.3515,-4.3515,-4.3232,-4.2995,-4.2901,-4.2595,-4.2136,-4.1539,-4.1494,-4.1328,-4.0918,-4.0912,-4.0912,-4.0912,-4.0912,-4.0912,-4.0912,-4.0912,-4.0912,-4.0912,-4.0912,-4.0912,-4.0912,-4.0793,-4.0745,-3.1905,-3.1682,-3.1366,-3.4525,-3.4339,-3.4358,-3.8154,-3.7814,-3.7651,-4.0942,0.0,0.0,0.0,0.0,0.0,0.0,0.0,0.0,0.0,0.0,0.0,0.0,0.0,0.0,0.0,0.0,0.0,0.0,0.0,0.0,0.0,0.0,0.0,0.0,0.0,0.0,0.0,-5.2881,-5.2919,-5.2977,-5.2977,-5.2977,-5.2977,-5.2977,-5.2977,-5.2977,-5.2977,-5.2938,-5.2843,-5.2098,-5.1716,-5.1525,-5.0703,-5.0359,-5.0302,-5.0302,-5.0302,-5.0302,-5.0259,-5.0063,-4.9744,-4.9394,-4.9048,-4.8729,-4.8402,-4.7186,-4.5902,-4.5902,-4.4782,-4.357,-4.3533,-4.3515,-4.3515,-4.3515,-4.3515,-4.3515,-4.3515,-4.3515,-4.3515,-4.3515,-4.3515,-4.3515,-4.3515,-4.3515,-4.3515,-4.3515,-4.3515,-4.3515,-4.3515,-4.3462,-4.3322,-4.2939,-4.2863,-4.2478,-4.1561,-4.1494,-4.1328,-4.0918,-4.0912,-4.0912,-4.0912,-4.0912,-4.0912,-4.0912,-4.0912,-4.0912,-4.0912,-4.0912,-4.0912,-4.0912,-4.0888,-4.0888,-3.014,-3.0679,-3.1255,-3.4005,-3.5008,0.0,0.0,-4.0624,-4.2419,-4.3737,-4.4588,0.0,0.0,0.0,0.0,0.0,0.0,0.0,0.0,0.0,0.0,0.0,0.0,0.0,0.0,0.0,0.0,0.0,0.0,0.0,0.0,0.0,0.0,0.0,0.0,0.0,0.0,0.0,-5.1773,-5.1257,-5.2289,-5.2805,-5.2805,-5.2805,-5.2805,-5.2805,-5.2805,-5.2518,-5.204,-5.1735,-5.1283,-5.076,-5.0436,-5.0302,-5.0302,-5.0302,-5.0302,-5.0278,-5.0063,-4.9916,-4.9744,-4.9424,-4.9206,-4.9048,-4.8711,-4.7494,-4.6165,-4.5956,-4.4727,-4.3515,-4.3515,-4.3515,-4.3515,-4.3515,-4.3515,-4.3515,-4.3515,-4.3515,-4.3515,-4.3515,-4.3515,-4.3515,-4.3515,-4.3515,-4.3515,-4.3515,-4.3515,-4.3515,-4.3515,-4.3515,-4.3427,-4.3286,-4.2788,-4.2318,-4.1969,-4.144,-4.1065,-4.0912,-4.0912,-4.0912,-4.0912,-4.0912,-4.0912,-4.0912,-4.0912,-4.0912,-4.0912,-4.0912,-4.0912,-4.0912,-4.0912,-4.0912,-2.9081,-2.9991,-3.118,-3.3603,0.0,0.0,-3.9138,-4.2092,-4.4804,-4.5844,-4.629,-4.6355,-4.5956,0.0,0.0,0.0,0.0,0.0,0.0,0.0,0.0,0.0,0.0,0.0,0.0,0.0,0.0,0.0,0.0,0.0,0.0,0.0,0.0,0.0,0.0,0.0,0.0,0.0,-5.0967,-5.0379,-5.1526,-5.205,-5.2038,-5.205,-5.2062,-5.2062,-5.2062,-5.1744,-5.1223,-5.1223,-5.0868,-5.0302,-5.0302,-5.0302,-5.0302,-5.0302,-5.0302,-5.0278,-5.0038,-4.9955,-4.9897,-4.957,-4.9468,-4.9409,-4.9048,-4.783,-4.6496,-4.6148,-4.4901,-4.3632,-4.3532,-4.3515,-4.3515,-4.3515,-4.3515,-4.3515,-4.3515,-4.3515,-4.3515,-4.3515,-4.3515,-4.3515,-4.3515,-4.3515,-4.3515,-4.3515,-4.3515,-4.3515,-4.3515,-4.3515,-4.3515,-4.3515,-4.2976,-4.2577,-4.2438,-4.1881,-4.1396,-4.1111,-4.1088,-4.1018,-4.0912,-4.0912,-4.0912,-4.0912,-4.0912,-4.0912,-4.0912,-4.0912,-4.0912,-4.0912,-4.0912,-4.0912,-2.9388,-2.9991,-3.1218,-3.3615,0.0,0.0,-4.003,-4.1664,-4.3763,-4.7033,-4.707,-4.6513,-4.6513,0.0,0.0,0.0,0.0,0.0,0.0,0.0,0.0,0.0,0.0,0.0,0.0,0.0,0.0,0.0,0.0,0.0,0.0,0.0,0.0,0.0,0.0,0.0,0.0,0.0,-5.0557,-5.0511,-5.0511,-5.0468,-5.0412,-5.0478,-5.05,-5.05,-5.05,-5.0468,-5.0401,-5.0401,-5.0348,-5.0302,-5.0302,-5.0302,-5.0302,-5.0302,-5.0302,-5.0302,-5.0302,-5.0302,-5.0248,-4.991,-4.9817,-4.9744,-4.9424,-4.8172,-4.6836,-4.6496,-4.5247,-4.3926,-4.3582,-4.3515,-4.3515,-4.3515,-4.3515,-4.3515,-4.3515,-4.3515,-4.3515,-4.3515,-4.3515,-4.3515,-4.3515,-4.3515,-4.3515,-4.3515,-4.3515,-4.3515,-4.3515,-4.3515,-4.3515,-4.3515,-4.3497,-4.3339,-4.292,-4.29,-4.2498,-4.1561,-4.1512,-4.1311,-4.0935,-4.0912,-4.0912,-4.0912,-4.0912,-4.0912,-4.0912,-4.0912,-4.0912,-4.0912,-4.0912,-4.0912,-2.8596,-3.082,0.0,-3.4785,0.0,0.0,0.0,-4.3801,0.0,0.0,-4.7906,-4.7348,-4.7348,0.0,0.0,0.0,0.0,0.0,0.0,0.0,0.0,0.0,0.0,0.0,0.0,0.0,0.0,0.0,0.0,0.0,0.0,0.0,0.0,0.0,0.0,0.0,0.0,0.0,0.0,-5.0634,-5.0681,-5.0635,-5.0478,-5.0489,-5.05,-5.05,-5.05,-5.0489,-5.0478,-5.0478,-5.0468,-5.0427,-5.0427,-5.0427,-5.0427,-5.0427,-5.0427,-5.0427,-5.0427,-5.0427,-5.0416,-5.031,-5.0287,-5.0221,-4.9885,-4.8649,-4.7199,-4.669,-4.5317,-4.3931,-4.3666,-4.3549,-4.3515,-4.3515,-4.3515,-4.3515,-4.3515,-4.3515,-4.3515,-4.3515,-4.3515,-4.3515,-4.3515,-4.3515,-4.3515,-4.3515,-4.3515,-4.3515,-4.3515,-4.3515,-4.3515,-4.3515,-4.325,-4.3013,-4.2901,-4.2595,-4.2297,-4.2011,-4.199,-4.1666,-4.0918,-4.0912,-4.0912,-4.0912,-4.0912,-4.0912,-4.0912,-4.0912,-4.0912,-4.0912,-4.0912,-4.0912,-2.952,-3.2151,0.0,-3.6996,-3.9914,-4.2575,-4.3559,0.0,0.0,0.0,0.0,0.0,0.0,0.0,0.0,0.0,0.0,0.0,0.0,0.0,0.0,0.0,0.0,0.0,0.0,0.0,0.0,0.0,0.0,0.0,0.0,0.0,0.0,0.0,0.0,0.0,0.0,0.0,0.0,0.0,-5.0855,-5.0808,-5.0654,-5.0595,-5.0573,-5.0593,-5.0542,-5.0532,-5.0532,-5.0511,-5.05,-5.05,-5.05,-5.05,-5.05,-5.05,-5.05,-5.05,-5.05,-5.05,-5.05,-5.05,-5.05,-5.0402,-4.9855,-4.8638,-4.7296,-4.6468,-4.5163,-4.3931,-4.3649,-4.3513,-4.3515,-4.3515,-4.3515,-4.3515,-4.3515,-4.3515,-4.3515,-4.3515,-4.3515,-4.3515,-4.3515,-4.3515,-4.3515,-4.3515,-4.3515,-4.3515,-4.3515,-4.3515,-4.3515,-4.3515,-4.3286,-4.3124,-4.3124,-4.2883,-4.2655,-4.2478,-4.2478,-4.2092,-4.1186,-4.114,-4.1065,-4.0894,-4.0912,-4.0912,-4.0912,-4.0912,-4.0912,-4.0912,-4.0912,-4.0912,-3.1211,-3.3527,-3.6272,-3.9486,-4.1051,0.0,-4.4674,-4.5175,-4.5435,-4.6308,0.0,0.0,0.0,0.0,0.0,0.0,0.0,0.0,0.0,0.0,0.0,0.0,0.0,0.0,0.0,0.0,0.0,0.0,0.0,0.0,0.0,0.0,0.0,0.0,0.0,0.0,0.0,0.0,0.0,0.0,0.0,-5.0739,-5.0677,-5.0708,-5.0712,-5.0702,-5.0633,-5.0603,-5.0603,-5.0542,-5.0521,-5.0521,-5.0521,-5.0521,-5.0521,-5.0521,-5.0521,-5.0521,-5.0521,-5.0521,-5.0521,-5.0521,-5.0464,-5.0253,-4.9456,-4.8345,-4.7143,-4.604,-4.4922,-4.3986,-4.3632,-4.3532,-4.3532,-4.3532,-4.3515,-4.3515,-4.3515,-4.3515,-4.3515,-4.3515,-4.3515,-4.3515,-4.3515,-4.3515,-4.3515,-4.3515,-4.3515,-4.3515,-4.3515,-4.3515,-4.3515,-4.3515,-4.3515,-4.3515,-4.3515,-4.3515,-4.3339,-4.2994,-4.292,-4.2498,-4.1604,-4.1516,-4.1305,-4.0912,-4.0912,-4.0912,-4.0912,-4.0912,-4.0912,-4.0912,-4.0912,-4.0912,-2.9766,-3.2804,0.0,0.0,-4.1441,-4.3615,-4.4153,-4.4283,-4.4692,-4.6197,0.0,0.0,0.0,0.0,0.0,0.0,0.0,0.0,0.0,0.0,0.0,0.0,0.0,0.0,0.0,0.0,0.0,0.0,0.0,0.0,0.0,0.0,0.0,0.0,0.0,0.0,0.0,0.0,0.0,0.0,-4.9179,-4.9129,-4.9058,-5.0283,-5.0801,-5.0712,-5.0673,-5.0673,-5.0692,-5.0663,-5.0653,-5.0653,-5.0653,-5.0653,-5.0653,-5.0653,-5.0653,-5.0653,-5.0653,-5.0653,-5.0653,-5.0653,-5.0192,-4.9596,-4.9423,-4.826,-4.6875,-4.6194,-4.5311,-4.4443,-4.3939,-4.3767,-4.3738,-4.3738,-4.36,-4.3515,-4.3515,-4.3515,-4.3515,-4.3515,-4.3515,-4.3515,-4.3515,-4.3515,-4.3515,-4.3515,-4.3515,-4.3515,-4.3515,-4.3515,-4.3515,-4.3515,-4.3515,-4.3515,-4.3515,-4.3515,-4.3462,-4.3375,-4.3069,-4.2653,-4.2074,-4.1692,-4.1305,-4.0912,-4.0912,-4.0912,-4.0912,-4.0912,-4.0912,-4.0912,-4.0912,-4.0912,-3.0104,0.0,0.0,-4.0171,0.0,-4.4005,-4.4005,-4.4005,-4.4246,0.0,0.0,0.0,0.0,0.0,0.0,0.0,0.0,0.0,0.0,0.0,0.0,0.0,0.0,0.0,0.0,0.0,0.0,0.0,0.0,0.0,0.0,0.0,0.0,0.0,0.0,0.0,-4.9176,-4.9387,-4.9235,-4.8755,-4.8755,-4.87,-4.8618,-4.9762,-5.019,-5.0087,-5.0519,-5.0462,-5.0106,-5.0539,-5.0462,-5.0106,-5.0539,-5.0712,-5.0712,-5.0712,-5.0712,-5.0712,-5.0712,-5.0712,-5.0635,-5.0212,-4.976,-4.924,-4.8452,-4.7463,-4.648,-4.5822,-4.5154,-4.4585,-4.4303,-4.4106,-4.3989,-4.3989,-4.3798,-4.3634,-4.3634,-4.3634,-4.3634,-4.3634,-4.3634,-4.3634,-4.3634,-4.3583,-4.3549,-4.3496,-4.3515,-4.3515,-4.3515,-4.3515,-4.3515,-4.3515,-4.3515,-4.3515,-4.3515,-4.3515,-4.3515,-4.3515,-4.3304,-4.2995,-4.2537,-4.2297,-4.1774,-4.0935,-4.0912,-4.0912,-4.0912,-4.0912,-4.0912,-4.0912,-4.0912,-4.0912,-3.0085,0.0,-3.7192,-4.1818,-4.3422,0.0,-4.3983,-4.4005,0.0,0.0,0.0,0.0,0.0,0.0,0.0,0.0,0.0,0.0,0.0,0.0,0.0,0.0,0.0,0.0,0.0,0.0,0.0,0.0,0.0,0.0,0.0,0.0,0.0,0.0,0.0,0.0,-4.8283,-4.8461,-4.85,-4.8369,-4.8369,-4.8321,-4.8249,-4.8891,-4.92,-4.9248,-4.9952,-4.9837,-4.9221,-4.9952,-4.9913,-4.9471,-5.0183,-5.0577,-5.0712,-5.0712,-5.0712,-5.0673,-5.0539,-5.0481,-5.0327,-4.9452,-4.9086,-4.8702,-4.7317,-4.656,-4.6031,-4.532,-4.4919,-4.4682,-4.465,-4.4465,-4.4289,-4.4289,-4.4136,-4.3945,-4.3818,-4.3804,-4.3804,-4.3804,-4.3788,-4.3771,-4.3771,-4.3667,-4.3565,-4.3515,-4.3515,-4.3515,-4.3515,-4.3515,-4.3515,-4.3515,-4.3515,-4.3515,-4.3515,-4.3515,-4.3515,-4.3515,-4.3427,-4.325,-4.2901,-4.2825,-4.2257,-4.1157,-4.1041,-4.0965,-4.0912,-4.0912,-4.0912,-4.0912,-4.0912,-4.0912,0.0,0.0,-3.6998,0.0,-4.2706,-4.3423,0.0,0.0,0.0,0.0,0.0,0.0,0.0,0.0,0.0,0.0,0.0,0.0,0.0,0.0,0.0,0.0,0.0,0.0,0.0,0.0,0.0,0.0,0.0,0.0,0.0,0.0,0.0,0.0,0.0,0.0,-4.7384,-4.7529,-4.7273,-4.6632,-4.6632,-4.6504,-4.6289,-4.714,-4.7863,-4.8454,-4.8438,-4.8375,-4.8279,-4.8394,-4.8817,-4.9413,-4.9529,-5.0029,-5.0712,-5.0712,-5.0712,-5.0596,-4.9837,-4.9567,-4.9433,-4.8567,-4.7798,-4.7201,-4.6962,-4.6337,-4.562,-4.5281,-4.515,-4.5074,-4.4825,-4.4739,-4.4714,-4.4714,-4.4688,-4.4511,-4.3929,-4.3804,-4.3804,-4.3804,-4.3719,-4.3634,-4.3634,-4.3548,-4.3515,-4.3515,-4.3515,-4.3515,-4.3515,-4.3515,-4.3515,-4.3515,-4.3515,-4.3515,-4.3515,-4.3515,-4.3515,-4.3515,-4.316,-4.2975,-4.2901,-4.2498,-4.2198,-4.2032,-4.1644,-4.1237,-4.0912,-4.0912,-4.0912,-4.0912,-4.0912,-4.0912,-2.8228,-3.2265,-3.6211,0.0,-4.1803,-4.2882,-4.3555,0.0,0.0,0.0,0.0,0.0,0.0,0.0,0.0,0.0,0.0,0.0,0.0,0.0,0.0,0.0,0.0,0.0,0.0,0.0,0.0,0.0,0.0,0.0,0.0,-4.6163,-4.6336,-4.6682,-4.6828,0.0,-4.6477,-4.6601,-4.6543,-4.63,-4.63,-4.6243,-4.6128,-4.6377,-4.6849,-4.7546,-4.7921,-4.7836,-4.7471,-4.7913,-4.8067,-4.8048,-4.8509,-4.8913,-4.924,-4.924,-4.924,-4.9183,-4.8798,-4.8663,-4.8529,-4.7702,-4.7192,-4.6817,-4.6317,-4.5893,-4.5577,-4.5467,-4.5419,-4.54,-4.5292,-4.5148,-4.503,-4.503,-4.4896,-4.4714,-4.4416,-4.4236,-4.4075,-4.3945,-4.3832,-4.3751,-4.3719,-4.3634,-4.3531,-4.3515,-4.3515,-4.3515,-4.3515,-4.3515,-4.3515,-4.3515,-4.3515,-4.3515,-4.3515,-4.3515,-4.3515,-4.3515,-4.3339,-4.325,-4.325,-4.3032,-4.2827,-4.2595,-4.2136,-4.1817,-4.1622,-4.1373,-4.1255,-4.1214,-4.0995,-4.0912,0.0,0.0,-3.3938,-3.786,-4.0124,-4.1643,0.0,0.0,0.0,0.0,0.0,0.0,0.0,0.0,0.0,0.0,0.0,0.0,0.0,0.0,0.0,0.0,0.0,0.0,0.0,0.0,0.0,0.0,0.0,0.0,-4.5594,-4.5594,-4.5594,-4.5594,-4.57,-4.5796,-4.5899,-4.6061,-4.6209,-4.63,-4.63,-4.6275,-4.6243,-4.6005,-4.6164,-4.6647,-4.7219,-4.7124,-4.6624,-4.7221,-4.724,-4.6962,-4.7567,-4.7932,-4.8105,-4.8105,-4.8105,-4.8067,-4.7875,-4.7798,-4.7663,-4.6836,-4.6567,-4.6451,-4.5806,-4.5594,-4.5594,-4.5594,-4.5594,-4.5594,-4.5594,-4.5448,-4.5302,-4.5302,-4.5159,-4.4962,-4.4739,-4.4533,-4.4318,-4.4048,-4.3945,-4.3881,-4.3818,-4.3736,-4.3634,-4.3583,-4.3566,-4.3566,-4.3566,-4.3566,-4.3566,-4.3566,-4.3566,-4.3566,-4.3566,-4.3566,-4.3566,-4.3566,-4.3566,-4.3566,-4.3532,-4.3532,-4.3375,-4.305,-4.2713,-4.242,-4.2198,-4.1735,-4.1494,-4.1494,-4.1088,-4.0912,0.0,-2.7498,0.0,-3.4143,0.0,0.0,0.0,0.0,0.0,0.0,0.0,0.0,0.0,0.0,0.0,0.0,0.0,0.0,0.0,0.0,0.0,0.0,0.0,0.0,0.0,0.0,0.0,0.0,0.0,0.0,-4.5594,-4.5594,-4.5594,-4.5594,-4.5603,-4.5688,-4.5899,-4.617,-4.6298,-4.63,-4.63,-4.6221,-4.6102,-4.5954,-4.5871,-4.5844,-4.5767,-4.571,-4.5671,-4.571,-4.6182,-4.6904,-4.6942,-4.7432,-4.8105,-4.8105,-4.8105,-4.799,-4.724,-4.6962,-4.6817,-4.5951,-4.5671,-4.5671,-4.5614,-4.5594,-4.5594,-4.5594,-4.5594,-4.5594,-4.5594,-4.5586,-4.5577,-4.5577,-4.5568,-4.5352,-4.4585,-4.4397,-4.4318,-4.4048,-4.3945,-4.3897,-4.3899,-4.3835,-4.3788,-4.3788,-4.3788,-4.3788,-4.3788,-4.3788,-4.3788,-4.3788,-4.3788,-4.3788,-4.3788,-4.3788,-4.3788,-4.3788,-4.3788,-4.3719,-4.3599,-4.3582,-4.3548,-4.3462,-4.3444,-4.3032,-4.2198,-4.1735,-4.1494,-4.1494,-4.1088,-4.0912,0.0,0.0,0.0,-3.2077,-3.4789,0.0,0.0,0.0,0.0,0.0,0.0,0.0,0.0,0.0,0.0,0.0,0.0,0.0,0.0,0.0,0.0,0.0,0.0,0.0,0.0,0.0,0.0,0.0,0.0,0.0,-4.5594,-4.5594,-4.5594,-4.5594,-4.5594,-4.57,-4.5899,-4.6173,-4.63,-4.63,-4.63,-4.6273,-4.6216,-4.6095,-4.5964,-4.5852,-4.5773,-4.5676,-4.5594,-4.5594,-4.5787,-4.6067,-4.6067,-4.624,-4.649,-4.649,-4.649,-4.6451,-4.6163,-4.6067,-4.6009,-4.571,-4.5594,-4.5594,-4.5594,-4.5594,-4.5594,-4.5594,-4.5594,-4.5594,-4.5594,-4.5594,-4.5594,-4.5594,-4.5594,-4.5466,-4.5,-4.4506,-4.4106,-4.402,-4.3945,-4.3897,-4.3897,-4.3835,-4.3804,-4.3804,-4.3804,-4.3804,-4.3804,-4.3804,-4.3804,-4.3804,-4.3804,-4.3804,-4.3804,-4.3804,-4.3804,-4.3804,-4.3804,-4.3788,-4.3736,-4.3736,-4.3719,-4.3686,-4.3617,-4.3391,-4.3032,-4.2616,-4.2398,-4.2398,-4.1927,-4.1731,-2.3474,0.0,0.0,0.0,0.0,0.0,0.0,0.0,0.0,0.0,0.0,0.0,0.0,0.0,0.0,0.0,0.0,0.0,0.0,0.0,0.0,0.0,0.0,0.0,0.0,0.0,0.0,0.0,0.0,0.0,-4.5594,-4.5594,-4.5594,-4.5594,-4.5673,-4.5769,-4.5899,-4.6173,-4.63,-4.63,-4.63,-4.63,-4.63,-4.615,-4.6053,-4.5969,-4.5848,-4.5719,-4.5594,-4.5594,-4.5594,-4.5594,-4.5594,-4.5594,-4.5594,-4.5594,-4.5594,-4.5594,-4.5594,-4.5594,-4.5594,-4.5594,-4.5594,-4.5594,-4.5594,-4.5594,-4.5594,-4.5594,-4.5594,-4.5594,-4.5594,-4.5594,-4.5594,-4.5594,-4.5522,-4.5419,-4.5232,-4.4714,-4.4236,-4.4151,-4.4036,-4.3929,-4.3929,-4.3915,-4.3867,-4.3867,-4.3867,-4.3867,-4.3867,-4.3867,-4.3867,-4.3867,-4.3867,-4.3867,-4.3867,-4.3867,-4.3867,-4.3867,-4.3867,-4.3851,-4.3818,-4.3818,-4.3673,-4.333,-4.3227,-4.3031,-4.269,-4.2541,-4.2321,-4.2049,-4.1592,-4.1535,0.0,0.0,0.0,0.0,0.0,0.0,0.0,0.0,0.0,0.0,0.0,0.0,0.0,0.0,0.0,0.0,0.0,0.0,0.0,0.0,0.0,0.0,0.0,0.0,0.0,0.0,0.0,0.0,0.0,-4.5594,-4.5594,-4.5594,-4.5594,-4.5594,-4.579,-4.5899,-4.5899,-4.6173,-4.63,-4.63,-4.63,-4.63,-4.63,-4.6173,-4.6102,-4.6091,-4.5891,-4.5727,-4.5603,-4.5594,-4.5594,-4.5594,-4.5594,-4.5594,-4.5594,-4.5594,-4.5594,-4.5594,-4.5594,-4.5594,-4.5594,-4.5594,-4.5594,-4.5594,-4.5594,-4.5594,-4.5594,-4.5594,-4.5594,-4.5594,-4.5594,-4.5594,-4.5594,-4.5594,-4.541,-4.5211,-4.5211,-4.5007,-4.4726,-4.4465,-4.4192,-4.4036,-4.4002,-4.4002,-4.402,-4.4005,-4.4005,-4.4005,-4.4005,-4.4005,-4.4005,-4.4005,-4.4005,-4.4005,-4.4005,-4.4005,-4.4005,-4.4005,-4.4005,-4.3958,-4.3915,-4.3878,-4.3409,-4.2417,-4.2398,-4.1944,-4.1075,-4.1432,-4.118,-4.042,-4.0051,-4.0289,-2.3174,0.0,0.0,0.0,0.0,0.0,0.0,0.0,0.0,0.0,0.0,0.0,0.0,0.0,0.0,0.0,0.0,0.0,0.0,0.0,0.0,0.0,0.0,0.0,0.0,0.0,0.0,0.0,0.0,-4.5594,-4.5594,-4.5594,-4.5594,-4.5594,-4.579,-4.5899,-4.5899,-4.6173,-4.63,-4.63,-4.63,-4.63,-4.63,-4.6269,-4.6184,-4.6095,-4.5939,-4.5822,-4.5734,-4.5646,-4.5594,-4.5594,-4.5594,-4.5594,-4.5594,-4.5594,-4.5594,-4.5594,-4.5594,-4.5594,-4.5594,-4.5594,-4.5594,-4.5594,-4.5594,-4.5594,-4.5594,-4.5594,-4.5594,-4.5594,-4.5594,-4.5594,-4.5594,-4.5594,-4.5531,-4.5495,-4.5495,-4.5292,-4.5019,-4.4739,-4.4624,-4.4525,-4.4318,-4.4289,-4.4221,-4.4017,-4.4005,-4.4005,-4.4005,-4.4005,-4.4005,-4.4005,-4.4005,-4.4005,-4.4005,-4.4005,-4.4005,-4.4005,-4.4005,-4.3989,-4.3974,-4.3417,-4.2959,-4.2687,-4.2069,-4.1323,-4.0443,-4.0969,-4.1129,-4.0928,-4.1391,-4.1412,-2.435,-2.5588,0.0,0.0,0.0,0.0,0.0,0.0,0.0,0.0,0.0,0.0,0.0,0.0,0.0,0.0,0.0,0.0,0.0,0.0,0.0,0.0,0.0,0.0,0.0,0.0,0.0,0.0,-4.5594,-4.5594,-4.5594,-4.5594,-4.5594,-4.5594,-4.579,-4.5899,-4.5899,-4.6173,-4.63,-4.63,-4.63,-4.63,-4.63,-4.63,-4.6269,-4.6178,-4.6045,-4.5929,-4.5822,-4.5734,-4.5643,-4.5594,-4.5594,-4.5594,-4.5594,-4.5594,-4.5594,-4.5594,-4.5594,-4.5594,-4.5594,-4.5594,-4.5594,-4.5594,-4.5594,-4.5594,-4.5594,-4.5594,-4.5594,-4.5594,-4.5594,-4.5594,-4.5594,-4.5594,-4.5594,-4.5594,-4.5594,-4.5485,-4.5292,-4.5019,-4.4891,-4.4751,-4.4599,-4.4572,-4.4484,-4.4206,-4.4181,-4.4009,-4.3556,-4.3503,-4.3503,-4.3503,-4.3503,-4.3633,-4.3968,-4.4005,-4.4005,-4.4005,-4.4005,-4.3856,-4.3503,-4.3039,-4.2467,-4.1716,-4.1208,-4.0681,-4.0152,-4.0514,-4.0678,-4.0648,-4.1091,-4.1405,-2.601,-2.7,-2.861,0.0,0.0,0.0,-3.1699,-3.1321,0.0,0.0,0.0,0.0,0.0,0.0,0.0,0.0,0.0,0.0,0.0,0.0,0.0,0.0,0.0,0.0,0.0,0.0,0.0,-4.525,-4.5421,-4.5498,-4.5594,-4.5594,-4.5603,-4.562,-4.5796,-4.591,-4.592,-4.6176,-4.63,-4.63,-4.63,-4.63,-4.63,-4.63,-4.63,-4.6298,-4.617,-4.6041,-4.591,-4.5829,-4.5712,-4.5594,-4.5594,-4.5594,-4.5594,-4.5594,-4.5594,-4.5594,-4.5594,-4.5594,-4.5594,-4.5594,-4.5594,-4.5594,-4.5594,-4.5594,-4.5594,-4.5594,-4.5594,-4.5594,-4.5594,-4.5594,-4.5594,-4.5594,-4.5594,-4.5594,-4.5594,-4.5594,-4.5522,-4.5302,-4.5052,-4.4872,-4.4849,-4.4837,-4.4713,-4.4347,-4.4307,-4.3915,-4.2832,-4.2694,-4.2694,-4.2667,-4.2667,-4.2965,-4.367,-4.3726,-4.3726,-4.3726,-4.3726,-4.341,-4.2705,-4.2575,-4.1857,-4.0378,-4.0359,-4.033,-4.027,-4.0163,-4.0121,-4.0136,-4.0092,-4.0868,0.0,0.0,0.0,0.0,0.0,0.0,0.0,-2.8736,0.0,0.0,0.0,0.0,0.0,0.0,0.0,0.0,0.0,0.0,0.0,0.0,0.0,0.0,0.0,0.0,0.0,0.0,-4.3351,-4.3566,-4.4182,-4.4855,-4.5556,-4.5594,-4.5643,-4.5757,-4.5846,-4.5945,-4.6057,-4.6216,-4.63,-4.63,-4.63,-4.63,-4.63,-4.63,-4.63,-4.6298,-4.617,-4.6091,-4.6045,-4.5872,-4.5712,-4.5594,-4.5594,-4.5594,-4.5594,-4.5594,-4.5594,-4.5594,-4.5594,-4.5594,-4.5594,-4.5594,-4.5594,-4.5594,-4.5594,-4.5594,-4.5594,-4.5594,-4.5594,-4.5594,-4.5594,-4.5594,-4.5594,-4.5594,-4.5594,-4.5594,-4.5594,-4.5594,-4.5586,-4.5522,-4.5485,-4.5381,-4.5169,-4.5118,-4.4782,-4.383,-4.3668,-4.3297,-4.2214,-4.2079,-4.2016,-4.1842,-4.1832,-4.1887,-4.2054,-4.2073,-4.2073,-4.2073,-4.2073,-4.1999,-4.1832,-4.12,-4.1014,-4.1334,-4.1334,-4.1319,-4.1304,-4.0485,-4.0461,-4.1129,-4.1058,-4.1575,0.0,0.0,0.0,-3.0114,0.0,0.0,0.0,0.0,0.0,0.0,0.0,0.0,0.0,0.0,0.0,0.0,0.0,0.0,0.0,0.0,0.0,0.0,0.0,0.0,0.0,0.0,-4.2162,-4.3028,-4.347,-4.4066,-4.4921,-4.496,-4.5208,-4.578,-4.5877,-4.5954,-4.6098,-4.624,-4.63,-4.63,-4.63,-4.63,-4.63,-4.63,-4.6303,-4.6306,-4.6228,-4.6162,-4.6089,-4.5983,-4.5863,-4.5728,-4.5643,-4.5594,-4.5594,-4.5594,-4.5594,-4.5594,-4.5594,-4.5594,-4.5594,-4.5594,-4.5594,-4.5594,-4.5594,-4.5594,-4.5594,-4.5594,-4.5594,-4.5594,-4.5594,-4.5594,-4.5498,-4.5056,-4.496,-4.4836,-4.4432,-4.4355,-4.4355,-4.4355,-4.4355,-4.4444,-4.471,-4.4748,-4.4384,-4.3267,-4.311,-4.2663,-4.1455,-4.131,-4.1223,-4.102,-4.0996,-4.1144,-4.1571,-4.159,-4.159,-4.159,-4.198,-4.2017,-4.1609,-4.159,-4.1404,-4.101,-4.0996,-4.0996,-4.0996,-4.0496,-4.0659,-4.1428,-4.0954,-4.1145,0.0,0.0,0.0,0.0,0.0,-3.1333,0.0,0.0,0.0,0.0,0.0,0.0,0.0,0.0,0.0,0.0,0.0,0.0,0.0,0.0,0.0,0.0,0.0,0.0,0.0,0.0,-4.0396,-4.2456,-4.2321,-4.2706,-4.4014,-4.4091,-4.4477,-4.5318,-4.5562,-4.5743,-4.5894,-4.6154,-4.6305,-4.6305,-4.6305,-4.6305,-4.6305,-4.6305,-4.6309,-4.6295,-4.6295,-4.6241,-4.6147,-4.6117,-4.6049,-4.5925,-4.5723,-4.5646,-4.5637,-4.5603,-4.5594,-4.5594,-4.5594,-4.5594,-4.5594,-4.5594,-4.5594,-4.5594,-4.5594,-4.5594,-4.5594,-4.5594,-4.5594,-4.5556,-4.5402,-4.5344,-4.5133,-4.4259,-4.4066,-4.3893,-4.3239,-4.3104,-4.3104,-4.3104,-4.3104,-4.3316,-4.3951,-4.4066,-4.3726,-4.269,-4.2527,-4.2073,-4.0781,-4.0608,-4.0528,-4.0312,-4.0249,-4.0486,-4.1138,-4.1151,-4.1126,-4.1126,-4.1887,-4.2054,-4.1386,-4.2129,-4.1962,-4.0661,-4.0624,-4.0624,-4.0624,-4.0476,-4.0781,-4.1504,-4.0574,-4.0599,0.0,0.0,0.0,0.0,-3.2899,0.0,0.0,0.0,0.0,0.0,0.0,0.0,0.0,0.0,0.0,0.0,0.0,0.0,0.0,0.0,0.0,0.0,0.0,0.0,0.0,0.0,0.0,-4.0644,-3.9506,-4.0027,-4.315,-4.3324,-4.344,-4.367,-4.4431,-4.4939,-4.5124,-4.5908,-4.63,-4.63,-4.63,-4.63,-4.63,-4.63,-4.6301,-4.6301,-4.6301,-4.63,-4.6276,-4.6145,-4.6084,-4.606,-4.5853,-4.5778,-4.5764,-4.5635,-4.5594,-4.5594,-4.5594,-4.5594,-4.5594,-4.5594,-4.5594,-4.5594,-4.5594,-4.5594,-4.5594,-4.5594,-4.5594,-4.5421,-4.4643,-4.4451,-4.4239,-4.3431,-4.3239,-4.3201,-4.3124,-4.3104,-4.3104,-4.3104,-4.3104,-4.3124,-4.322,-4.3239,-4.2923,-4.2033,-4.189,-4.1496,-4.0387,-4.0263,-4.0165,-3.9894,-3.9712,-3.9652,-3.9727,-3.9512,-3.938,-3.938,-4.0178,-4.0624,-4.0531,-4.1311,-4.1646,-4.146,-4.146,-4.146,-4.146,-4.0736,-4.081,-4.1557,-4.0758,-4.0814,0.0,0.0,0.0,0.0,0.0,0.0,-3.1197,0.0,-2.9302,0.0,0.0,0.0,0.0,0.0,0.0,0.0,0.0,0.0,0.0,0.0,0.0,0.0,0.0,0.0,0.0,0.0,0.0,0.0,0.0,-3.7874,-4.0851,-4.1474,-4.2261,-4.3365,-4.3785,-4.4083,-4.4231,-4.4602,-4.4798,-4.4798,-4.4798,-4.4798,-4.4817,-4.5325,-4.5541,-4.5563,-4.6071,-4.6305,-4.6305,-4.6238,-4.6212,-4.62,-4.6049,-4.5935,-4.5847,-4.575,-4.5713,-4.5706,-4.5665,-4.5651,-4.5671,-4.5665,-4.5657,-4.5648,-4.5603,-4.5594,-4.5594,-4.5594,-4.5248,-4.4759,-4.4393,-4.3951,-4.3393,-4.2547,-4.2354,-4.222,-4.17,-4.1593,-4.1593,-4.1593,-4.1593,-4.1593,-4.1593,-4.2008,-4.2047,-4.1181,-4.1046,-4.0836,-4.0271,-4.0205,-4.011,-3.9829,-3.9709,-3.9671,-3.9671,-3.9578,-3.9507,-3.9507,-4.0182,-4.0782,-4.1249,-4.1487,-4.1367,-4.0903,-4.0903,-4.0643,-4.0141,-3.9807,-3.9825,-4.0141,-3.9788,-3.9825,-3.303,0.0,0.0,0.0,0.0,0.0,0.0,0.0,0.0,0.0,0.0,0.0,0.0,0.0,0.0,0.0,0.0,0.0,0.0,0.0,0.0,0.0,0.0,0.0,0.0,0.0,0.0,0.0,0.0,0.0,-3.8909,-3.9699,-4.0878,-4.2714,-4.3033,-4.323,-4.3336,-4.357,-4.3707,-4.3707,-4.3707,-4.3707,-4.3727,-4.4352,-4.4763,-4.5038,-4.5663,-4.6073,-4.6307,-4.6307,-4.6307,-4.6284,-4.6188,-4.6099,-4.5992,-4.5862,-4.5822,-4.5825,-4.5749,-4.5727,-4.57,-4.5706,-4.5698,-4.5651,-4.5368,-4.5282,-4.5225,-4.5004,-4.4485,-4.3946,-4.3695,-4.3214,-4.256,-4.1678,-4.1466,-4.1285,-4.0631,-4.0496,-4.0496,-4.0496,-4.0496,-4.0496,-4.0496,-4.1027,-4.1239,-4.0593,-4.0496,-4.0449,-4.0304,-4.0286,-4.0213,-4.0004,-3.9934,-3.9912,-3.9912,-3.984,-3.9892,-4.0138,-4.0573,-4.118,-4.1977,-4.1662,-4.1152,-4.0491,-4.0267,-3.9816,-3.9101,-3.9101,-3.9101,-3.9101,-3.9101,-3.9101,0.0,0.0,0.0,-3.2469,0.0,0.0,0.0,0.0,-3.0308,0.0,0.0,0.0,0.0,0.0,-2.8977,-2.8146,0.0,0.0,0.0,0.0,0.0,0.0,0.0,0.0,0.0,0.0,0.0,0.0,0.0,0.0,-3.8052,-3.8352,-3.9247,-4.1104,-4.1927,-4.2372,-4.2441,-4.3281,-4.3691,-4.3691,-4.3691,-4.3691,-4.3691,-4.373,-4.4199,-4.5,-4.5039,-4.5527,-4.6308,-4.6308,-4.6308,-4.6308,-4.6308,-4.6289,-4.6267,-4.5992,-4.5894,-4.5881,-4.583,-4.5756,-4.5708,-4.5708,-4.57,-4.5545,-4.4689,-4.443,-4.4276,-4.3505,-4.3254,-4.3042,-4.2193,-4.1962,-4.1723,-4.0846,-4.0646,-4.0611,-4.0523,-4.0496,-4.0496,-4.0496,-4.0496,-4.0496,-4.0496,-4.0516,-4.0535,-4.0496,-4.0496,-4.0496,-4.0489,-4.0489,-4.0489,-4.0481,-4.0304,-4.0196,-4.0196,-3.9953,-4.0157,-4.1018,-4.1082,-4.145,-4.2252,-4.1526,-4.0974,-4.0709,-3.9921,-3.9382,-3.9101,-3.9101,-3.9101,-3.9101,-3.9101,-3.9101,0.0,0.0,-3.5363,-3.3932,0.0,0.0,0.0,0.0,0.0,0.0,0.0,0.0,0.0,0.0,-2.9016,-2.8146,-2.7522,0.0,0.0,0.0,0.0,0.0,0.0,0.0,0.0,0.0,0.0,0.0,0.0,0.0,0.0,-3.7439,-3.8943,-4.0208,-4.1105,-4.1581,-4.1601,-4.1894,-4.2051,-4.2051,-4.2051,-4.2051,-4.2051,-4.2598,-4.3008,-4.3301,-4.3887,-4.4629,-4.5449,-4.5449,-4.5781,-4.6308,-4.6308,-4.5957,-4.5488,-4.5941,-4.6108,-4.6003,-4.5363,-4.5113,-4.5002,-4.4374,-4.4169,-4.4115,-4.3776,-4.3666,-4.3608,-4.3284,-4.2779,-4.2278,-4.1989,-4.1468,-4.0974,-4.067,-4.0593,-4.0586,-4.0579,-4.0571,-4.0571,-4.0571,-4.0571,-4.0571,-4.0571,-4.0571,-4.0557,-4.0504,-4.0496,-4.0496,-4.0496,-4.0496,-4.0496,-4.0496,-4.0441,-4.0408,-4.0408,-4.0311,-4.0391,-4.0669,-4.0587,-4.0624,-4.09,-4.0479,-3.9943,-3.9324,-3.9562,-3.9384,-3.8764,-3.9303,-3.9284,-3.8764,-3.8764,-3.8883,-3.5015,-3.5379,0.0,0.0,-3.3239,0.0,-3.0502,0.0,0.0,0.0,0.0,0.0,0.0,0.0,-2.9126,-2.8582,-2.7489,-2.6416,0.0,0.0,0.0,0.0,0.0,0.0,0.0,0.0,-2.9282,-3.0501,0.0,0.0,0.0,0.0,-3.8225,-3.9794,-4.0721,-4.1191,-4.1191,-4.1191,-4.1191,-4.1191,-4.1191,-4.1191,-4.1211,-4.1738,-4.2129,-4.2422,-4.2988,-4.373,-4.4551,-4.4863,-4.5332,-4.5879,-4.6172,-4.5957,-4.5488,-4.5696,-4.5567,-4.5184,-4.4585,-4.4361,-4.4237,-4.3638,-4.3436,-4.3366,-4.302,-4.2892,-4.2803,-4.2473,-4.1957,-4.151,-4.151,-4.1092,-4.0668,-4.0635,-4.0647,-4.0628,-4.0614,-4.0595,-4.0595,-4.0595,-4.0595,-4.0595,-4.0595,-4.0595,-4.0593,-4.0549,-4.0542,-4.0542,-4.0542,-4.0542,-4.0542,-4.0542,-4.0542,-4.0542,-4.0542,-4.0546,-4.0531,-4.0531,-4.04,-4.017,-3.9883,-3.9995,-3.9632,-3.8725,-3.9514,-3.9502,-3.8601,-3.9123,-3.8953,-3.8136,-3.8061,-3.8141]},{"header":{"parameterUnit":"m.s-1","parameterCategory":1,"la1":30.6,"la2":29.2853,"lo1":-89.7004,"lo2":-87.6739,"dy":0.0162,"dx":0.0183,"nx":112,"ny":82,"refTime":"2025-07-08T12:00:00:Z","depth":0,"parameterNumber":3,"parameterNumberName":"V-component_of_WINDS"},"data":[0.0,0.0,0.0,0.0,0.0,0.0,0.0,0.0,0.0,0.0,0.0,0.0,0.0,0.0,0.0,0.0,0.0,0.0,0.0,0.0,0.0,0.0,0.0,0.0,0.0,0.0,0.0,0.0,0.0,0.0,0.0,0.0,0.0,0.0,0.0,0.0,0.0,0.0,0.0,0.0,0.0,0.0,0.0,0.0,0.0,0.0,0.0,0.0,0.0,0.0,0.0,0.0,0.0,0.0,0.0,0.0,0.0,0.0,0.0,0.0,0.0,0.0,0.0,0.0,0.0,0.0,0.0,0.0,0.0,0.0,0.0,0.0,0.0,0.0,0.0,0.0,0.0,0.0,0.0,0.0,0.0,0.0,0.0,0.0,0.0,0.0,0.0,0.0,0.0,0.0,0.0,-1.7598,-1.948,-2.0605,-2.0605,-2.0605,-1.9539,-1.696,0.0,0.0,0.0,0.0,0.0,0.0,0.0,0.0,0.0,0.0,0.0,0.0,0.0,0.0,0.0,0.0,0.0,0.0,0.0,0.0,0.0,0.0,0.0,0.0,0.0,0.0,0.0,0.0,0.0,0.0,0.0,0.0,0.0,0.0,0.0,0.0,0.0,0.0,0.0,0.0,0.0,0.0,0.0,0.0,0.0,0.0,0.0,0.0,0.0,0.0,0.0,0.0,0.0,0.0,0.0,0.0,0.0,0.0,0.0,0.0,0.0,0.0,0.0,0.0,0.0,0.0,0.0,0.0,0.0,0.0,0.0,0.0,0.0,0.0,0.0,0.0,0.0,0.0,0.0,0.0,0.0,0.0,0.0,0.0,0.0,0.0,0.0,0.0,0.0,0.0,0.0,0.0,0.0,0.0,0.0,0.0,0.0,0.0,0.0,0.0,0.0,0.0,0.0,0.0,-1.6074,-1.9199,-2.0184,-2.0605,-2.0605,-2.0605,-1.9666,-1.7422,0.0,0.0,0.0,0.0,0.0,0.0,0.0,0.0,0.0,0.0,0.0,0.0,0.0,0.0,0.0,0.0,0.0,0.0,0.0,0.0,0.0,0.0,0.0,0.0,0.0,0.0,0.0,0.0,0.0,0.0,0.0,0.0,0.0,0.0,0.0,0.0,0.0,0.0,0.0,0.0,0.0,0.0,0.0,0.0,0.0,0.0,0.0,0.0,0.0,0.0,0.0,0.0,0.0,0.0,0.0,0.0,0.0,0.0,0.0,0.0,0.0,0.0,0.0,0.0,0.0,0.0,0.0,0.0,0.0,0.0,0.0,0.0,0.0,0.0,0.0,0.0,0.0,0.0,0.0,0.0,0.0,0.0,0.0,0.0,0.0,0.0,0.0,0.0,0.0,0.0,0.0,0.0,0.0,0.0,0.0,0.0,0.0,0.0,0.0,0.0,0.0,0.0,0.0,-1.586,-1.7236,-1.9971,-2.0488,-2.0605,-2.0605,-2.0605,-1.9597,-1.7178,-1.6016,0.0,0.0,0.0,0.0,0.0,0.0,0.0,0.0,0.0,0.0,0.0,0.0,0.0,0.0,0.0,0.0,0.0,0.0,0.0,0.0,0.0,0.0,0.0,0.0,0.0,0.0,0.0,0.0,0.0,0.0,0.0,0.0,0.0,0.0,0.0,0.0,0.0,0.0,0.0,0.0,0.0,0.0,0.0,0.0,0.0,0.0,0.0,0.0,0.0,0.0,0.0,0.0,0.0,0.0,0.0,0.0,0.0,0.0,0.0,0.0,0.0,0.0,0.0,0.0,0.0,0.0,0.0,0.0,0.0,0.0,0.0,0.0,0.0,0.0,0.0,0.0,0.0,0.0,0.0,0.0,0.0,0.0,0.0,0.0,0.0,0.0,0.0,0.0,0.0,0.0,0.0,0.0,0.0,0.0,0.0,0.0,0.0,0.0,0.0,0.0,0.0,0.0,-1.7553,-1.8535,-2.041,-2.0605,-2.0605,-2.0605,-2.0321,-1.915,-1.6843,-1.5586,0.0,0.0,0.0,0.0,0.0,0.0,0.0,0.0,0.0,0.0,0.0,0.0,0.0,0.0,0.0,0.0,0.0,0.0,0.0,0.0,0.0,0.0,0.0,0.0,0.0,0.0,0.0,0.0,0.0,0.0,0.0,0.0,0.0,0.0,0.0,0.0,0.0,0.0,0.0,0.0,0.0,0.0,0.0,0.0,0.0,0.0,0.0,0.0,0.0,0.0,0.0,0.0,0.0,0.0,0.0,0.0,0.0,0.0,0.0,0.0,0.0,0.0,0.0,0.0,0.0,0.0,0.0,0.0,0.0,0.0,0.0,0.0,0.0,0.0,0.0,0.0,0.0,0.0,0.0,0.0,0.0,0.0,0.0,0.0,0.0,0.0,0.0,0.0,0.0,0.0,0.0,0.0,0.0,0.0,0.0,0.0,0.0,0.0,0.0,0.0,0.0,0.0,-1.7944,-1.9512,-2.0507,-2.0605,-2.0605,-2.0605,-1.9463,-1.8159,-1.6785,-1.4757,0.0,0.0,0.0,0.0,0.0,0.0,0.0,0.0,0.0,0.0,0.0,0.0,0.0,0.0,0.0,0.0,0.0,0.0,0.0,0.0,0.0,0.0,0.0,0.0,0.0,0.0,0.0,0.0,0.0,0.0,0.0,0.0,0.0,0.0,0.0,0.0,0.0,0.0,0.0,0.0,0.0,0.0,0.0,0.0,0.0,0.0,0.0,0.0,0.0,0.0,0.0,0.0,0.0,0.0,0.0,0.0,0.0,0.0,0.0,0.0,0.0,0.0,0.0,0.0,0.0,0.0,0.0,0.0,0.0,0.0,0.0,0.0,0.0,0.0,0.0,0.0,0.0,0.0,0.0,0.0,0.0,0.0,0.0,0.0,0.0,0.0,0.0,0.0,0.0,0.0,0.0,0.0,0.0,0.0,0.0,0.0,0.0,0.0,0.0,0.0,0.0,0.0,-1.7513,-1.9023,0.0,-2.0605,-2.0605,-2.0605,-1.9873,-1.8768,-1.7279,0.0,0.0,0.0,0.0,0.0,0.0,0.0,0.0,0.0,0.0,0.0,0.0,0.0,0.0,0.0,0.0,0.0,0.0,0.0,0.0,0.0,0.0,0.0,0.0,0.0,0.0,0.0,0.0,0.0,0.0,0.0,0.0,0.0,0.0,0.0,0.0,0.0,0.0,0.0,0.0,0.0,0.0,0.0,0.0,0.0,0.0,0.0,0.0,0.0,0.0,0.0,0.0,0.0,0.0,0.0,0.0,0.0,0.0,0.0,0.0,0.0,0.0,0.0,0.0,0.0,0.0,0.0,0.0,0.0,0.0,0.0,0.0,0.0,0.0,0.0,0.0,0.0,0.0,0.0,0.0,0.0,0.0,0.0,0.0,0.0,0.0,0.0,0.0,0.0,0.0,0.0,0.0,0.0,0.0,0.0,0.0,0.0,0.0,0.0,0.0,0.0,0.0,-1.6016,-1.7529,-1.8965,0.0,-2.0605,-2.0605,-2.0605,-1.9795,-1.8705,-1.7342,0.0,0.0,0.0,0.0,0.0,0.0,0.0,0.0,0.0,0.0,0.0,0.0,0.0,0.0,0.0,0.0,0.0,0.0,0.0,0.0,0.0,0.0,0.0,0.0,0.0,0.0,0.0,0.0,0.0,0.0,0.0,0.0,0.0,0.0,0.0,0.0,0.0,0.0,0.0,0.0,0.0,0.0,0.0,0.0,0.0,0.0,0.0,0.0,0.0,0.0,0.0,0.0,0.0,0.0,0.0,0.0,0.0,0.0,0.0,0.0,0.0,0.0,0.0,0.0,0.0,0.0,0.0,0.0,0.0,0.0,0.0,0.0,0.0,0.0,0.0,0.0,0.0,0.0,0.0,0.0,0.0,0.0,0.0,0.0,0.0,0.0,0.0,0.0,0.0,0.0,0.0,0.0,0.0,0.0,0.0,0.0,0.0,0.0,0.0,0.0,0.0,0.0,-1.6473,-1.8232,-1.9619,-2.0507,-2.0605,-2.0605,-2.0605,-1.9004,-1.7656,0.0,0.0,0.0,0.0,0.0,0.0,0.0,0.0,0.0,0.0,0.0,0.0,0.0,0.0,0.0,0.0,0.0,0.0,0.0,0.0,0.0,0.0,0.0,0.0,0.0,0.0,0.0,0.0,0.0,0.0,0.0,0.0,0.0,0.0,0.0,0.0,0.0,0.0,0.0,0.0,0.0,0.0,0.0,0.0,0.0,0.0,0.0,0.0,0.0,0.0,0.0,0.0,0.0,0.0,0.0,0.0,0.0,0.0,0.0,0.0,0.0,0.0,0.0,0.0,0.0,0.0,0.0,0.0,0.0,0.0,0.0,0.0,0.0,0.0,0.0,0.0,0.0,0.0,0.0,0.0,0.0,0.0,0.0,0.0,0.0,0.0,0.0,0.0,0.0,0.0,0.0,0.0,0.0,0.0,0.0,0.0,0.0,0.0,0.0,0.0,0.0,0.0,0.0,-1.6473,-1.8232,-1.9619,-2.0507,-2.0605,-2.0605,-2.0605,-1.9588,-1.8454,-1.7322,0.0,0.0,0.0,0.0,0.0,0.0,0.0,0.0,0.0,0.0,0.0,0.0,0.0,0.0,0.0,0.0,0.0,0.0,0.0,0.0,0.0,0.0,0.0,0.0,0.0,0.0,0.0,0.0,0.0,0.0,0.0,0.0,0.0,0.0,0.0,0.0,0.0,0.0,0.0,0.0,0.0,0.0,0.0,0.0,0.0,0.0,0.0,0.0,0.0,0.0,0.0,0.0,0.0,0.0,0.0,0.0,0.0,0.0,0.0,0.0,0.0,0.0,0.0,0.0,0.0,0.0,0.0,0.0,0.0,0.0,0.0,0.0,0.0,0.0,0.0,0.0,0.0,0.0,0.0,0.0,0.0,0.0,0.0,0.0,0.0,0.0,0.0,0.0,0.0,0.0,0.0,0.0,0.0,0.0,0.0,0.0,0.0,0.0,0.0,0.0,0.0,0.0,-1.6748,-1.8477,-1.9941,-2.1026,-2.1134,-2.1025,-2.085,-2.0039,-1.8951,-1.754,0.0,0.0,0.0,0.0,0.0,0.0,0.0,0.0,0.0,0.0,0.0,0.0,0.0,0.0,0.0,0.0,0.0,0.0,0.0,0.0,0.0,0.0,0.0,0.0,0.0,0.0,0.0,0.0,0.0,0.0,0.0,0.0,0.0,0.0,0.0,0.0,0.0,0.0,0.0,0.0,0.0,0.0,0.0,0.0,0.0,0.0,0.0,0.0,0.0,0.0,0.0,0.0,0.0,0.0,0.0,0.0,0.0,0.0,0.0,0.0,0.0,0.0,0.0,0.0,0.0,0.0,0.0,0.0,0.0,0.0,0.0,0.0,0.0,0.0,0.0,0.0,0.0,0.0,0.0,0.0,0.0,0.0,0.0,0.0,0.0,0.0,0.0,0.0,0.0,0.0,0.0,0.0,0.0,0.0,0.0,0.0,0.0,0.0,0.0,0.0,0.0,0.0,-1.7109,-1.8867,-2.042,-2.1748,-2.1885,-2.1709,-2.1229,-2.0381,-1.9189,-1.7523,0.0,0.0,0.0,0.0,0.0,0.0,0.0,0.0,0.0,0.0,0.0,0.0,0.0,0.0,0.0,0.0,0.0,0.0,0.0,0.0,0.0,0.0,0.0,0.0,0.0,0.0,0.0,0.0,0.0,0.0,0.0,0.0,0.0,0.0,0.0,0.0,0.0,0.0,0.0,0.0,0.0,0.0,0.0,0.0,0.0,0.0,0.0,0.0,0.0,0.0,0.0,0.0,0.0,0.0,0.0,0.0,0.0,0.0,0.0,0.0,-1.3324,0.0,0.0,0.0,0.0,0.0,0.0,0.0,0.0,0.0,0.0,0.0,0.0,0.0,0.0,0.0,0.0,0.0,0.0,0.0,0.0,0.0,0.0,0.0,0.0,0.0,0.0,0.0,0.0,0.0,0.0,0.0,0.0,0.0,0.0,0.0,0.0,0.0,0.0,0.0,0.0,0.0,-1.7109,-1.8867,-2.042,-2.1748,-2.1885,-2.1709,-2.1229,-2.0381,-1.9189,-1.7523,0.0,0.0,0.0,0.0,0.0,0.0,0.0,0.0,0.0,0.0,0.0,0.0,0.0,0.0,0.0,0.0,0.0,0.0,0.0,0.0,0.0,0.0,0.0,0.0,0.0,0.0,0.0,0.0,0.0,0.0,0.0,0.0,0.0,0.0,0.0,0.0,0.0,0.0,0.0,0.0,0.0,0.0,0.0,0.0,0.0,0.0,0.0,0.0,0.0,0.0,0.0,0.0,0.0,0.0,0.0,0.0,0.0,0.0,0.0,0.0,0.0,-1.4367,0.0,0.0,0.0,0.0,0.0,0.0,0.0,0.0,0.0,0.0,0.0,0.0,0.0,0.0,0.0,0.0,0.0,0.0,0.0,0.0,0.0,0.0,0.0,0.0,0.0,0.0,0.0,0.0,0.0,0.0,0.0,0.0,0.0,0.0,0.0,0.0,0.0,0.0,0.0,0.0,-1.7686,-1.9297,-2.081,-2.2324,-2.249,-2.2148,-2.1268,-2.0771,-1.9814,-1.8096,-1.6562,0.0,0.0,0.0,0.0,0.0,0.0,0.0,0.0,0.0,0.0,0.0,0.0,0.0,0.0,0.0,0.0,0.0,0.0,0.0,0.0,0.0,0.0,0.0,0.0,0.0,0.0,0.0,0.0,0.0,0.0,0.0,0.0,0.0,0.0,0.0,0.0,0.0,0.0,0.0,0.0,0.0,0.0,0.0,0.0,0.0,0.0,0.0,0.0,0.0,0.0,0.0,0.0,0.0,0.0,0.0,-1.7402,-1.7189,-1.7194,-1.746,-1.6894,-1.6448,-1.6016,0.0,0.0,0.0,0.0,0.0,0.0,0.0,0.0,0.0,0.0,0.0,0.0,0.0,0.0,0.0,0.0,0.0,0.0,0.0,0.0,0.0,0.0,0.0,0.0,0.0,-1.9687,-1.9551,0.0,0.0,0.0,0.0,0.0,0.0,0.0,0.0,0.0,0.0,0.0,0.0,-1.8393,-1.9883,-2.1279,-2.2818,-2.2984,-2.2496,-2.1298,-2.1122,-2.0401,-1.8812,-1.7344,-1.6289,0.0,0.0,0.0,0.0,0.0,0.0,0.0,0.0,0.0,0.0,0.0,0.0,0.0,0.0,0.0,0.0,0.0,0.0,0.0,0.0,0.0,0.0,0.0,0.0,0.0,0.0,0.0,0.0,0.0,0.0,0.0,0.0,-0.7494,-0.8404,0.0,0.0,0.0,0.0,0.0,0.0,0.0,0.0,0.0,0.0,0.0,0.0,0.0,0.0,-1.7428,-1.7757,-1.8108,-1.8482,-1.9279,-1.9564,-1.9441,-1.9616,-1.9694,-1.9784,-1.965,0.0,-1.6749,-1.6331,0.0,0.0,0.0,0.0,0.0,0.0,0.0,0.0,0.0,0.0,0.0,0.0,0.0,0.0,0.0,0.0,0.0,0.0,0.0,0.0,0.0,0.0,-2.1748,-2.1015,-2.1269,-2.1416,0.0,-1.9338,-1.7935,-1.6551,0.0,0.0,0.0,0.0,0.0,0.0,0.0,0.0,-1.8916,-2.0342,-2.1514,-2.2448,-2.2598,-2.2185,-2.1268,-2.0879,-2.0273,-1.9268,-1.8633,-1.7949,-1.7158,-1.5811,0.0,0.0,0.0,0.0,0.0,0.0,0.0,0.0,0.0,0.0,0.0,0.0,0.0,0.0,0.0,0.0,0.0,0.0,0.0,0.0,0.0,0.0,0.0,0.0,0.0,0.0,0.0,0.0,0.0,-0.7265,-0.845,-0.8983,-0.9443,-0.955,0.0,0.0,0.0,0.0,0.0,0.0,0.0,0.0,0.0,-1.7413,-1.7684,-1.816,-1.8906,-1.9228,-1.955,-1.9879,-2.0066,-2.0259,-2.0303,-2.0205,-2.0183,-2.0183,-2.0183,-1.9674,-1.8686,-1.7816,-1.7077,-1.6374,0.0,0.0,0.0,0.0,0.0,0.0,-1.65,0.0,0.0,0.0,0.0,0.0,0.0,0.0,0.0,0.0,0.0,0.0,0.0,0.0,0.0,-2.1982,-2.2275,-2.2539,-2.2301,-2.1668,-2.0605,0.0,-1.8555,-1.7924,-1.5664,0.0,0.0,0.0,0.0,0.0,-1.9793,-2.0723,-2.1522,-2.2422,-2.2305,-2.1807,-2.0928,-2.0908,-2.0566,-1.9697,-1.9238,-1.8838,-1.8467,-1.676,-1.5799,0.0,0.0,0.0,0.0,0.0,0.0,0.0,0.0,0.0,0.0,0.0,0.0,0.0,0.0,0.0,0.0,0.0,0.0,0.0,0.0,0.0,0.0,0.0,0.0,0.0,0.0,0.0,0.0,-0.8306,-0.9306,-0.9696,-1.0487,-1.0767,0.0,0.0,0.0,0.0,0.0,0.0,-1.6916,-1.7343,-1.7962,-1.9016,-1.9513,-1.9967,-2.0432,-2.053,-2.0772,-2.1094,-2.0852,-2.0815,-2.0962,-2.072,-2.0567,-2.0486,-2.0486,-2.0387,-2.0219,-1.914,-1.8394,-1.7867,-1.6989,-1.6652,0.0,-1.713,-1.7116,-1.7004,-1.7969,-1.8145,-1.7927,-1.8057,0.0,-1.7763,-1.8048,0.0,0.0,0.0,0.0,-2.0674,-2.1113,0.0,-2.2285,-2.2598,-2.2867,-2.3091,-2.3091,-2.3091,-2.2555,0.0,-2.0674,-2.0233,-1.7906,0.0,0.0,0.0,0.0,-1.9209,-2.0752,-2.1289,-2.1726,-2.2295,-2.207,-2.1533,-2.0674,-2.0869,-2.0781,-2.0117,-1.9687,-1.9443,-1.9443,-1.7513,-1.6496,-1.6616,0.0,0.0,0.0,0.0,0.0,0.0,0.0,0.0,0.0,0.0,0.0,0.0,0.0,0.0,0.0,0.0,0.0,0.0,0.0,0.0,0.0,0.0,0.0,0.0,0.0,0.0,0.0,0.0,0.0,-1.1118,-1.1677,0.0,0.0,0.0,0.0,-1.4116,-1.5323,-1.6781,-1.8599,-1.8979,-1.974,-2.102,-2.1094,-2.1415,-2.2052,-2.1774,-2.1789,-2.2111,-2.2096,-2.1935,-2.165,-2.1635,-2.1452,-2.1159,-2.1159,-2.0984,-2.0647,-1.9967,-1.972,-1.9625,-1.8906,-1.8642,-1.8613,-1.8328,-1.8218,-1.8211,-1.8277,-1.8291,-1.8511,-1.9792,-2.0344,-2.0419,-2.0649,-2.0489,0.0,0.0,-2.206,-2.248,-2.2857,-2.3003,-2.3033,-2.3062,-2.3081,-2.3091,-2.3091,-2.3091,-2.2828,0.0,-2.1807,-2.1387,-1.999,0.0,0.0,-1.9727,-2.0127,-2.0811,-2.1699,-2.2187,-2.2314,-2.1953,-2.1894,-2.1533,-2.0674,-2.0625,-2.0615,-2.0576,-2.0127,-1.9883,-1.9883,-1.8232,-1.7646,-1.8259,-1.588,0.0,0.0,0.0,0.0,0.0,0.0,0.0,0.0,0.0,0.0,0.0,0.0,0.0,0.0,0.0,0.0,0.0,0.0,0.0,0.0,0.0,0.0,0.0,0.0,0.0,0.0,0.0,0.0,-1.1922,-1.2716,0.0,0.0,-1.4394,-1.5645,-1.617,-1.7804,-1.9295,-2.0603,-2.0574,-2.0925,-2.1811,-2.1635,-2.1737,-2.2184,-2.2067,-2.2067,-2.2184,-2.2184,-2.2125,-2.2008,-2.2008,-2.1832,-2.1525,-2.1525,-2.1342,-2.102,-2.0786,-2.045,-2.0025,-1.9586,-1.9463,-1.9374,-1.9052,-1.8928,-1.8928,-1.8928,-1.8928,-1.9008,-1.9259,-1.9706,-2.0228,-2.0997,-2.156,-2.2087,-2.2867,-2.3223,-2.331,-2.313,-2.3091,-2.3091,-2.3091,-2.3091,-2.3091,-2.3091,-2.3091,-2.3003,-2.2711,-2.2652,-2.2243,-2.0947,-2.0996,-2.0986,-2.042,-2.0957,-2.1533,-2.1846,-2.2246,-2.2246,-2.1543,-2.1465,-2.1221,-2.0654,-2.0303,-2.0029,-1.9793,-1.9336,-1.8939,-1.8701,-1.7545,-1.7224,-1.7863,-1.5828,-1.4914,0.0,0.0,0.0,0.0,0.0,0.0,0.0,0.0,0.0,0.0,0.0,0.0,0.0,0.0,0.0,0.0,0.0,0.0,0.0,0.0,0.0,0.0,0.0,0.0,0.0,0.0,-1.2151,-1.2711,-1.347,-1.3949,-1.3954,-1.5593,-1.6869,-1.7291,-1.9129,-2.0537,-2.1272,-2.1474,-2.1781,-2.2315,-2.2228,-2.2279,-2.2491,-2.2498,-2.2498,-2.2498,-2.2498,-2.244,-2.233,-2.233,-2.2103,-2.1693,-2.1693,-2.1511,-2.1211,-2.1211,-2.0955,-2.053,-2.0208,-2.0018,-1.9886,-1.9557,-1.9419,-1.9279,-1.9279,-1.9279,-1.9242,-1.9023,-1.9252,-1.9789,-2.0728,-2.1414,-2.2125,-2.3016,-2.3274,-2.3233,-2.312,-2.3091,-2.3091,-2.3091,-2.3091,-2.3091,-2.3091,-2.3091,-2.3091,-2.3091,-2.3091,-2.2828,-2.198,-2.2119,-2.2109,-2.1523,-2.1934,-2.2305,-2.2305,-2.2432,-2.2246,-2.1533,-2.1278,-2.1055,-2.0644,-2.0166,-1.9853,-1.9764,-1.9033,-1.8481,-1.8198,-1.7233,-1.6933,-1.7379,-1.6272,-1.5945,-1.65,0.0,0.0,0.0,0.0,0.0,0.0,0.0,0.0,0.0,0.0,0.0,0.0,0.0,0.0,0.0,0.0,0.0,0.0,0.0,0.0,0.0,0.0,0.0,-1.1359,-1.196,-1.2727,-1.3421,-1.3933,-1.4406,-1.4859,-1.5972,-1.6856,-1.739,-1.9152,-2.0358,-2.0591,-2.1658,-2.2345,-2.263,-2.2945,-2.3106,-2.3106,-2.3106,-2.3106,-2.3106,-2.3106,-2.2945,-2.2637,-2.2637,-2.2301,-2.1723,-2.1715,-2.1525,-2.1225,-2.1211,-2.1211,-2.1181,-2.0852,-2.0475,-2.0161,-1.9886,-1.961,-1.9279,-1.9279,-1.9279,-1.9279,-1.9279,-1.9279,-1.942,-2.0035,-2.0227,-2.0522,-2.1859,-2.2236,-2.2409,-2.2953,-2.311,-2.3091,-2.3091,-2.3091,-2.3091,-2.3091,-2.3091,-2.3091,-2.3091,-2.3091,-2.3091,-2.3091,-2.3091,-2.3091,-2.3091,-2.3091,0.0,-2.3081,-2.2721,-2.2344,-2.1914,-2.1484,-2.1055,-2.0644,-2.0156,-2.0068,-2.0517,-1.9307,-1.8559,-1.8539,-1.736,-1.6794,-1.7026,-1.7316,-1.7678,-1.8116,0.0,0.0,0.0,0.0,0.0,0.0,0.0,0.0,0.0,0.0,0.0,0.0,0.0,0.0,0.0,0.0,0.0,0.0,0.0,0.0,0.0,0.0,-1.1975,-1.191,-1.2926,-1.3776,-1.3976,-1.4568,-1.5079,-1.5375,-1.6501,-1.7402,-1.7919,-1.974,-2.0978,-2.1278,-2.2293,-2.2893,-2.2974,-2.3062,-2.3106,-2.3106,-2.3106,-2.3106,-2.3106,-2.3106,-2.3062,-2.2974,-2.2974,-2.2754,-2.2359,-2.214,-2.1862,-2.154,-2.1306,-2.1211,-2.1181,-2.0852,-2.0669,-2.0523,-1.9967,-1.961,-1.9279,-1.9279,-1.9279,-1.9279,-1.9279,-1.9279,-1.9457,-2.0417,-2.1241,-2.2036,-2.2877,-2.3439,-2.3765,-2.3631,-2.3379,-2.3091,-2.3091,-2.3091,-2.3091,-2.3091,-2.3091,-2.3091,-2.3091,-2.3091,-2.3091,-2.3091,-2.3091,-2.3091,-2.3091,0.0,0.0,-2.2682,-2.2588,-2.2227,-2.1453,-2.1268,-2.1055,-2.0644,-1.9883,-1.9375,0.0,-1.8262,-1.7588,-1.7233,-1.6882,-1.6974,-1.7584,-1.8133,-1.8504,0.0,0.0,0.0,0.0,0.0,0.0,0.0,0.0,0.0,0.0,0.0,0.0,0.0,0.0,0.0,0.0,0.0,0.0,0.0,0.0,0.0,0.0,-1.2186,-1.2997,-1.2997,-1.3577,-1.4148,-1.4449,-1.4762,-1.5102,-1.5693,-1.6408,-1.7049,-1.7644,-1.9134,-2.0092,-2.0316,-2.1657,-2.248,-2.248,-2.2863,-2.3106,-2.3106,-2.3106,-2.3106,-2.3106,-2.3106,-2.3106,-2.3106,-2.3106,-2.293,0.0,-2.2308,-2.2001,-2.1672,-2.1342,-2.1211,0.0,0.0,0.0,0.0,0.0,-1.961,-1.9279,-1.9279,-1.9279,-1.9279,-1.9279,-1.9279,-1.9428,-2.0034,-2.0688,-2.1415,-2.253,-2.2921,-2.3178,-2.367,-2.3467,-2.3091,-2.3091,-2.3091,-2.3091,-2.3091,-2.3091,-2.3091,-2.3091,0.0,0.0,-2.3091,-2.3091,-2.3091,-2.3091,-2.3091,-2.3013,0.0,-2.2617,-2.2256,-2.1582,-2.1307,-2.1055,-2.0644,-1.9941,0.0,0.0,0.0,-1.79,-1.7262,-1.6892,0.0,0.0,0.0,0.0,0.0,0.0,0.0,0.0,-2.0705,-2.0844,0.0,0.0,0.0,0.0,0.0,0.0,0.0,0.0,0.0,0.0,0.0,0.0,0.0,0.0,0.0,0.0,-1.3324,-1.4223,-1.4304,-1.4099,-1.4175,-1.481,-1.4772,-1.5025,-1.5926,-1.6055,-1.6363,-1.6953,-1.7963,-1.8472,-1.8472,0.0,0.0,0.0,0.0,-2.3106,-2.3106,-2.3106,-2.3106,-2.3106,-2.3106,-2.3106,-2.3106,-2.3106,-2.2952,-2.2659,-2.2359,-2.2052,-2.1723,-2.1401,-2.124,-2.1211,-2.1211,-2.1013,-2.0647,-2.004,-1.9669,0.0,0.0,0.0,0.0,-1.9279,-1.9279,-1.9279,-1.9279,-1.9376,-1.9819,-2.1354,-2.1502,-2.1579,-2.3117,-2.3229,-2.296,-2.296,-2.3003,-2.3091,-2.3091,-2.3091,-2.3091,-2.3091,-2.3091,-2.3091,-2.3091,-2.3091,-2.3091,-2.3091,-2.3091,0.0,-2.3091,-2.273,-2.2373,-2.1992,0.0,0.0,-2.0713,-2.0195,-2.0078,-2.0507,-1.9736,-1.8945,-1.8184,-1.7389,-1.7658,-1.9111,-1.9908,-2.1019,-2.2548,-2.3825,-2.4502,-2.4562,-2.2846,-2.3057,0.0,0.0,0.0,0.0,0.0,0.0,0.0,0.0,0.0,0.0,0.0,0.0,0.0,0.0,0.0,-1.3121,-1.376,-1.4396,-1.4909,-1.4832,-1.4729,-1.4864,-1.5354,-1.5807,-1.599,-1.6358,-1.672,-1.698,-1.7963,-1.8472,-1.8472,-2.0456,0.0,-2.1607,-2.2613,-2.3106,-2.3106,-2.3106,-2.3106,-2.3106,0.0,0.0,-2.3106,-2.3106,-2.3076,-2.2996,-2.2674,-2.2367,-2.2067,-2.1737,-2.1445,-2.1211,-2.1211,-2.1013,-2.0676,-2.0289,-1.9945,-1.9683,-1.9367,-1.9279,-1.9279,-1.9279,-1.9279,-1.9279,-1.9279,-1.9879,0.0,-2.1001,-2.1213,-2.1449,-2.176,-2.1916,-2.1961,-2.1961,-2.2555,-2.3091,-2.3091,-2.3091,-2.3091,-2.3091,-2.3091,-2.3091,-2.3091,-2.3091,-2.3091,-2.3091,-2.3091,-2.3091,-2.3091,-2.273,-2.248,-2.2402,-2.1658,-2.1161,-2.1073,-2.0371,-1.9951,-2.0029,-1.957,-1.9209,-1.9053,-1.8887,-1.9177,-2.0025,-2.0575,-2.1267,-2.213,-2.3444,-2.4528,-2.5399,-2.5003,-2.5059,0.0,0.0,0.0,0.0,0.0,0.0,0.0,0.0,0.0,0.0,0.0,-1.1176,-1.1901,0.0,-1.3276,-1.376,-1.4336,-1.4848,-1.5145,-1.5246,-1.5198,-1.5079,-1.5483,-1.5877,-1.5996,-1.6444,-1.6759,-1.6985,-1.7448,-1.777,-1.777,-1.924,-2.0265,-2.0843,-2.179,-2.2606,-2.3106,-2.3106,-2.3106,-2.3106,-2.3106,-2.3106,-2.3106,-2.3106,-2.3106,-2.3091,-2.2762,-2.2454,-2.2147,-2.1657,-2.1357,-2.1211,-2.1211,-2.1013,-2.0684,-2.03,-2.0033,-1.9764,-1.9441,-1.9279,-1.9279,-1.9279,-1.9279,-1.9279,-1.9279,-1.968,-2.0233,-2.0739,-2.0725,-2.0707,-2.1275,-2.1177,-2.1105,-2.1561,-2.2059,-2.2511,-2.3003,-2.3091,-2.3091,-2.3091,-2.3091,-2.3091,-2.3091,-2.3091,-2.3091,-2.3091,-2.3091,-2.3091,-2.3091,-2.2916,-2.2701,-2.2539,-2.1943,-2.1475,-2.121,-2.0625,-2.0244,-2.0244,-1.9834,-1.96,-1.96,-1.9404,-1.9558,-2.0086,-2.1105,-2.1921,-2.2513,-2.4496,-2.5751,-2.6268,-2.6798,-2.7073,0.0,0.0,0.0,0.0,0.0,0.0,0.0,0.0,-1.0512,-1.1519,-1.2064,-1.2521,-1.3002,-1.3674,-1.4223,-1.4315,-1.4848,-1.5194,-1.5194,-1.5451,-1.5531,-1.5285,-1.5564,-1.5811,-1.6061,-1.6452,-1.6807,-1.699,-1.7001,-1.7001,-1.7001,-1.7963,-1.8984,-2.0075,-2.1096,-2.2111,-2.3106,-2.3106,-2.3106,-2.3106,-2.3106,-2.3106,-2.3106,-2.3106,-2.3106,-2.3091,-2.2703,-2.2367,-2.2045,-2.1452,-2.1211,-2.1211,-2.1211,-2.105,-2.0779,-2.0394,-2.0128,-1.9806,-1.9536,-1.933,-1.9279,-1.9279,-1.9279,-1.9279,-1.9279,-1.9279,-1.948,-2.0336,-2.0092,-1.9698,-2.0554,-2.0386,-2.0141,-2.0917,-2.1284,-2.165,-2.2599,-2.2828,-2.2872,-2.3047,-2.3091,-2.3091,-2.3091,-2.3091,-2.3091,-2.3091,-2.3091,-2.3091,-2.3091,-2.3091,-2.2964,-2.2676,-2.2256,-2.1836,-2.1356,-2.0957,-2.0772,-2.086,-2.0488,-2.0293,-2.0293,-1.9971,-1.9951,-2.0293,-2.1634,-2.2606,-2.3145,-2.5547,-2.6765,-2.6981,-2.8035,-2.851,-0.848,-0.9108,-0.98,-1.0513,-1.0589,-1.0851,0.0,0.0,-1.2113,-1.305,-1.3281,-1.3464,-1.3943,-1.4121,-1.4331,-1.474,-1.5052,-1.5194,-1.5194,-1.5451,-1.5591,-1.5564,-1.5957,-1.6247,-1.6274,-1.6694,-1.6974,-1.7001,-1.7001,-1.7001,-1.7001,-1.7963,-1.8984,-2.0075,-2.1096,-2.2111,-2.3106,-2.3106,-2.3106,-2.3106,-2.3106,-2.3106,-2.3106,-2.3106,-2.3106,-2.3076,-2.2491,-2.2052,-2.1723,-2.1357,-2.1211,-2.1211,-2.1211,-2.1189,-2.1115,-2.0786,-2.0464,-2.0135,-1.982,-1.9573,-1.9279,-1.9279,-1.9279,-1.9279,-1.9279,-1.9279,-1.9331,-1.9428,-1.9006,-1.8496,-1.8644,-1.8798,-1.8972,-1.9109,-1.9786,-2.0638,-2.165,-2.1872,-2.2104,-2.296,-2.3091,-2.3091,-2.3091,-2.3091,-2.3091,-2.3091,-2.3091,-2.3091,-2.3091,-2.3091,-2.3081,-2.3033,-2.2652,-2.2275,-2.1846,-2.1406,-2.1328,-2.1709,-2.1699,-2.167,-2.167,-2.1621,-2.1621,-2.167,-2.2188,-2.2885,-2.3701,-2.5198,-2.6337,-2.7186,-2.8079,-2.851,-1.0227,-1.0578,-1.0842,0.0,-1.1946,-1.2215,-1.278,-1.2943,-1.3083,-1.3566,-1.368,-1.3782,-1.4132,-1.4417,-1.4659,0.0,-1.5316,-1.5655,-1.5655,-1.5741,-1.5801,-1.5801,-1.5978,-1.6156,-1.6301,-1.6614,-1.6861,-1.699,-1.7001,-1.7001,-1.7001,-1.7389,-1.8092,-1.9112,-2.0202,-2.1222,-2.2237,-2.2801,-2.3106,-2.3106,-2.3106,-2.3106,-2.3106,-2.3106,-2.3003,-2.2798,-2.2374,-2.2001,-2.1672,-2.1342,-2.1211,-2.1211,-2.1211,-2.1211,-2.1167,-2.0845,-2.064,-2.045,-1.9938,-1.9727,-1.958,-1.9338,-1.9279,-1.9279,-1.9279,-1.9279,-1.9279,-1.9279,-1.8803,-1.8299,-1.8299,-1.8097,-1.8056,-1.865,-1.9109,-1.965,-2.0602,-2.1284,-2.1828,-2.2192,-2.2731,-2.3091,-2.3091,-2.3091,-2.3091,-2.3091,-2.3091,-2.3091,-2.3091,-2.3091,-2.3003,-2.276,-2.2617,-2.2344,-2.1924,-2.1719,-2.1689,-2.1875,-2.1885,-2.1885,-2.1885,-2.1885,-2.1885,-2.1885,-2.2497,-2.3268,-2.4143,-2.551,-2.6605,-2.753,-2.8168,-2.851,-1.1198,0.0,0.0,-1.2382,-1.2861,-1.3179,-1.3077,-1.3324,-1.3636,-1.3873,-1.3868,-1.3916,-1.4229,-1.4509,-1.4713,-1.4778,-1.5386,-1.5866,-1.5731,-1.5882,-1.5963,-1.5768,-1.5811,-1.6007,-1.6188,-1.6484,-1.6759,-1.6985,-1.7001,-1.7001,-1.7001,-1.7001,-1.7453,-1.8472,-1.9559,-2.0589,-2.1607,-2.2606,-2.3106,-2.3106,-2.3106,-2.3106,-2.3106,-2.3106,-2.2886,-2.2491,-2.2271,-2.195,-2.154,-2.1306,-2.1211,-2.1211,-2.1211,-2.1211,-2.1181,-2.0947,-2.0801,-2.064,-2.0084,-1.9835,-1.9764,-1.9434,-1.9279,-1.9279,-1.9279,-1.9279,-1.9279,-1.9279,-1.8869,-1.8416,-1.8328,-1.7882,-1.7576,-1.8218,-1.838,-1.865,-1.9604,-2.0376,-2.106,-2.1606,-2.2236,-2.2775,-2.3047,-2.3091,-2.3091,-2.3091,-2.3091,-2.3091,-2.3091,-2.3091,-2.2984,-2.2715,-2.2578,-2.2441,-2.2246,-2.2129,-2.2109,-2.2217,-2.2236,-2.2236,-2.2236,-2.2236,-2.2236,-2.2236,-2.2802,-2.3638,-2.4803,-2.5759,-2.6834,-2.7906,-2.833,-2.851,0.0,0.0,-1.2775,-1.2797,-1.3164,-1.3523,-1.3739,-1.3798,-1.3879,-1.4132,-1.3992,-1.3965,-1.4384,-1.4358,-1.4288,-1.4453,-1.5144,-1.5445,-1.4982,-1.5569,-1.5839,-1.5269,-1.5472,-1.5698,0.0,-1.645,-1.6759,-1.6985,-1.7001,-1.7001,-1.7001,-1.7001,-1.7453,-1.8472,-1.9559,-2.0589,-2.1607,-2.2606,-2.3106,-2.3106,-2.3106,-2.3106,-2.3106,-2.3106,-2.2776,-2.2198,-2.2184,-2.1818,-2.1218,-2.1211,-2.1211,-2.1211,-2.1211,-2.1211,-2.1211,-2.1196,-2.0998,-2.0676,-2.0285,-2.0018,-1.9764,-1.9434,-1.9279,-1.9279,-1.9279,-1.9279,-1.9279,-1.9279,-1.903,-1.8701,-1.8379,-1.805,-1.7721,-1.7406,-1.7326,-1.7598,-1.8611,-1.888,-1.943,-2.1329,-2.1739,-2.2006,-2.296,-2.3091,-2.3091,-2.3091,-2.3091,-2.3091,-2.3091,-2.3091,-2.3091,-2.3081,-2.2711,-2.2676,-2.3023,-2.2734,-2.2666,-2.3033,-2.3052,-2.3052,-2.3052,-2.3052,-2.3052,-2.3052,-2.3105,-2.3975,-2.5744,-2.5797,-2.6719,-2.8486,-2.8498,-2.851,-1.3216,0.0,-1.3648,-1.4201,-1.3995,-1.3771,-1.4013,-1.3741,-1.3559,-1.3853,-1.3292,-1.2971,-1.3725,-1.3752,-1.3661,-1.3689,-1.4929,-1.5659,-1.5082,-1.5463,-1.581,-1.5934,-1.5589,0.0,0.0,0.0,0.0,-1.6964,-1.6867,-1.6845,-1.6996,-1.7001,-1.713,-1.7518,-1.8477,-1.9559,-2.0589,-2.1601,-2.2418,-2.3106,-2.3106,-2.3106,-2.3106,-2.3106,-2.2769,-2.2184,-2.2184,-2.1818,-2.1211,-2.0967,-2.1024,-2.1211,-2.0967,-2.1024,-2.1153,-2.096,-2.078,-2.0664,-2.031,-2.0164,-1.9989,-1.9455,-1.9279,-1.9279,-1.9279,-1.9279,-1.9279,-1.9279,-1.9038,-1.8708,-1.8386,-1.8057,-1.7735,-1.7359,-1.7279,-1.7372,-1.7738,-1.8334,-1.8972,-1.965,-2.0836,-2.1784,-2.2104,-2.2687,-2.3091,-2.3091,-2.3091,-2.3091,-2.3091,-2.3091,-2.3091,-2.3091,-2.2974,-2.2945,-2.3081,-2.2964,-2.2945,-2.3081,-2.3091,-2.3091,-2.3091,-2.3091,-2.3091,-2.3091,-2.3091,-2.3734,-2.4956,-2.5537,-2.6412,-2.7644,-2.8219,-2.851,-1.4587,-1.4818,-1.4677,-1.5382,-1.4879,-1.4252,-1.4304,-1.3734,-1.3207,-1.3213,-1.2519,-1.2108,-1.2802,-1.273,-1.2601,-1.287,-1.4049,-1.4823,-1.4485,-1.4888,-1.5403,-1.5788,-1.5504,0.0,0.0,0.0,0.0,-1.6958,-1.6867,-1.6845,-1.6996,-1.7001,-1.7001,-1.7001,-1.7958,-1.8856,-1.9501,-2.0906,-2.2111,-2.3106,-2.3106,-2.3106,-2.3106,-2.3106,-2.2769,-2.2184,-2.2184,-2.1818,-2.1153,-2.0838,-2.0838,-2.0967,-2.0673,-2.0673,-2.0852,-2.0615,-2.0551,-2.0523,-2.0181,-1.9964,-1.9856,-1.9326,-1.9071,-1.8959,-1.8959,-1.8959,-1.8959,-1.8959,-1.8919,-1.8716,-1.8274,-1.8047,-1.7874,-1.7388,-1.7279,-1.7279,-1.7279,-1.8102,-1.888,-1.9239,-2.0602,-2.1828,-2.2148,-2.2687,-2.3091,-2.3091,-2.3091,-2.3091,-2.3091,-2.3091,-2.3091,-2.3091,-2.3091,-2.3091,-2.3091,-2.3091,-2.3091,-2.3091,-2.3091,-2.3091,-2.3091,-2.3091,-2.3091,-2.3091,-2.3091,-2.356,-2.4498,-2.5368,-2.6287,-2.7226,-2.8099,-2.851,-1.5,-1.5496,-1.5789,-1.6304,-1.5745,-1.4976,-1.4674,-1.3752,-1.2856,-1.2293,-1.1651,-1.1347,0.0,0.0,-1.1205,-1.2011,-1.2704,-1.3154,-1.3245,-1.4038,-1.4653,0.0,0.0,0.0,0.0,0.0,0.0,-1.6845,0.0,-1.699,-1.6936,-1.7007,-1.7001,-1.6942,-1.7899,-1.8472,-1.8472,-2.0583,-2.2111,-2.3043,-2.3113,-2.3106,-2.3106,-2.3106,-2.2769,-2.2184,-2.2184,-2.1811,-2.1146,-2.0838,-2.0658,-2.0658,-2.0385,-2.027,-2.027,-2.027,-2.027,-2.0244,-1.9862,-1.958,-1.9365,-1.8964,-1.8646,-1.8422,-1.8422,-1.8422,-1.8422,-1.8422,-1.8646,-1.8733,-1.8103,-1.8123,-1.8145,-1.7454,-1.7293,-1.7279,-1.7279,-1.8056,-1.8972,-1.9869,-2.0917,-2.1917,-2.2916,-2.3091,-2.3091,-2.3091,-2.3091,-2.3091,-2.3091,-2.3091,-2.3091,-2.3091,-2.3091,-2.3091,-2.3091,-2.3091,-2.3091,-2.3091,-2.3091,-2.3091,-2.3091,-2.3091,-2.3091,-2.3091,-2.3091,-2.3517,-2.4413,-2.5368,-2.6246,-2.7133,-2.8059,-2.851,-1.6395,-1.6643,-1.6549,-1.7134,-1.6467,-1.5464,-1.4567,-1.3636,-1.2725,-1.1731,-1.0645,-1.0088,0.0,0.0,0.0,-1.1054,-1.2362,0.0,-1.3188,-1.3542,0.0,-1.459,0.0,-1.4378,-1.4734,-1.5061,0.0,0.0,-1.6268,-1.6631,-1.6283,-1.6748,-1.6748,-1.6294,-1.7001,-1.777,-1.8472,-2.0583,-2.1734,-2.1985,-2.2731,-2.3106,-2.3106,-2.3106,-2.2769,-2.2184,-2.2184,-2.1685,-2.078,-2.05,-2.0385,-2.0385,-2.004,-2.0104,-2.027,-2.004,-1.9931,-1.9842,-1.9299,-1.925,-1.9303,-1.8738,-1.8482,-1.8422,-1.8422,-1.8422,-1.8422,-1.8422,-1.8646,-1.8776,-1.8164,-1.8132,-1.8147,-1.7505,-1.7319,-1.7279,-1.7279,-1.7512,-1.7738,-1.801,-1.9422,-2.1141,-2.2818,-2.3091,-2.3091,-2.3091,-2.3091,-2.3091,-2.3091,-2.3091,-2.3091,-2.3091,-2.3091,-2.3091,-2.3091,-2.3091,-2.3091,-2.3091,-2.3091,-2.3091,-2.3091,-2.3091,-2.3091,-2.3091,-2.3091,-2.3222,-2.3484,-2.502,-2.5902,-2.6205,-2.7753,-2.851,-1.7072,-1.7349,-1.7388,-1.7857,-1.7009,-1.5743,-1.4481,-1.3332,-1.2163,-1.0651,-0.9656,0.0,-0.9549,0.0,0.0,0.0,0.0,0.0,-1.2504,-1.2791,-1.334,0.0,-1.407,0.0,-1.4239,-1.4665,-1.48,0.0,-1.5341,-1.5778,-1.5508,-1.5839,-1.5904,-1.5518,-1.6229,-1.7195,-1.8472,-1.9686,-2.0462,-2.0969,-2.1978,-2.2418,-2.2487,-2.2918,-2.2769,-2.2184,0.0,-2.1494,-2.0658,-2.027,-2.0104,-2.004,-1.9764,-1.9764,-1.9873,-1.9707,-1.9649,-1.956,-1.8908,-1.8871,-1.8933,-1.8367,-1.8167,-1.8055,-1.8055,-1.8055,-1.8055,-1.8055,-1.8272,-1.8373,-1.7904,-1.7837,-1.7824,-1.7315,-1.7092,-1.7005,-1.7005,-1.7318,-1.7731,-1.8187,-1.9505,-2.0908,-2.2129,-2.2589,-2.2882,-2.3057,-2.3013,-2.3013,-2.3101,-2.3091,-2.3091,-2.3091,-2.3091,-2.3091,-2.3091,-2.3091,-2.3091,-2.3091,-2.3091,-2.3091,-2.3091,-2.3091,-2.3091,-2.3091,-2.3091,-2.3091,-2.3091,-2.452,-2.5242,-2.5284,-2.7092,-2.7926,-1.7287,-1.7705,-1.8016,-1.8272,-1.7361,-1.597,-1.4372,-1.2996,-1.1504,-0.9469,0.0,-0.8506,-0.8506,-0.8543,-0.8763,-0.9474,0.0,-1.0729,-1.1675,-1.2077,-1.2601,-1.3635,-1.3748,-1.3748,-1.3748,-1.4272,-1.4403,-1.3814,-1.4272,-1.467,-1.4735,-1.4866,-1.4866,-1.4866,-1.5518,-1.6613,-1.815,-1.8279,-1.8856,-1.9884,-2.0906,-2.1418,-2.1418,-2.2375,-2.2541,-2.1989,0.0,0.0,-2.0608,-2.004,-1.9758,-1.97,-1.9475,-1.9424,-1.9424,-1.9424,-1.9424,-1.9285,-1.8698,-1.849,-1.8445,-1.8055,-1.7799,-1.7582,-1.7582,-1.7582,-1.7582,-1.7582,-1.7799,-1.7903,-1.7585,-1.7519,-1.7435,-1.7072,-1.6793,-1.6588,-1.6588,-1.7217,-1.8126,-1.9131,-1.9997,-2.0719,-2.1025,-2.173,-2.2378,-2.2818,-2.2828,-2.2882,-2.3091,-2.3091,-2.3091,-2.3091,-2.3091,-2.3091,-2.3091,-2.3091,-2.3091,-2.3091,-2.3091,-2.3091,-2.3091,-2.3091,-2.3091,-2.3091,-2.3091,-2.3091,-2.3091,-2.4026,-2.4498,-2.4541,-2.6216,-2.7092,-1.71,-1.7398,-1.774,-1.801,-1.7576,-1.6484,-1.4348,-1.305,0.0,0.0,-0.8298,-0.7943,-0.7943,-0.8184,-0.8572,-0.9335,-0.9906,-1.0623,0.0,0.0,-1.2268,0.0,0.0,0.0,0.0,0.0,0.0,0.0,0.0,0.0,-1.4006,-1.4604,-1.4866,-1.4866,-1.4996,-1.5513,-1.6418,-1.7254,-1.8022,-1.8792,-1.9884,-2.0329,-2.0386,-2.1091,-2.1224,-2.0872,0.0,0.0,-2.0328,-1.9989,-1.9649,-1.9482,-1.9424,-1.9424,-1.9424,-1.9424,-1.9424,-1.9285,-1.8698,-1.849,-1.839,-1.7836,-1.7635,-1.7582,-1.7582,-1.7582,-1.7582,-1.7582,-1.7799,-1.795,-1.7679,-1.7517,-1.7442,-1.7145,-1.6856,-1.6588,-1.6588,-1.6723,-1.7131,-1.8079,-1.8395,-1.881,-1.967,-2.0755,-2.1525,-2.1614,-2.2448,-2.3057,-2.3091,-2.3091,-2.3091,-2.3091,-2.3091,-2.3091,-2.3091,-2.3091,-2.3091,-2.3091,-2.3091,-2.3091,-2.3091,-2.3091,-2.3091,-2.3091,-2.3091,-2.3091,-2.3091,-2.4026,-2.4498,-2.4531,-2.5579,-2.6464,-1.6864,-1.7244,-1.7635,-1.7747,-1.7358,-1.6312,-1.3825,0.0,0.0,0.0,-0.7906,-0.7653,-0.7653,-0.7906,0.0,-0.8974,-0.9376,-1.0046,-1.1301,0.0,0.0,0.0,0.0,0.0,0.0,0.0,0.0,0.0,0.0,0.0,-1.3293,-1.3621,-1.3949,-1.4338,-1.4403,-1.473,-1.5388,-1.5899,-1.6283,-1.6672,-1.7689,-1.8192,-1.8128,-1.8943,-1.9087,-1.874,0.0,0.0,-1.9087,-1.9461,-1.954,-1.9424,-1.9424,-1.9424,-1.9424,-1.9424,-1.9424,-1.9285,-1.8698,-1.849,-1.839,-1.7782,-1.7582,-1.7582,-1.7582,-1.7582,-1.7582,-1.7582,-1.7694,-1.7713,-1.7454,-1.7238,-1.7016,-1.6767,-1.6443,-1.6163,-1.6163,-1.6163,-1.6298,-1.6749,-1.7397,-1.8041,-1.8634,-1.9542,-2.0449,-2.1177,-2.1676,-2.2227,-2.2882,-2.3057,-2.3091,-2.3091,-2.3091,-2.3091,-2.3091,-2.3091,-2.3091,-2.3091,-2.3091,-2.3091,-2.3091,-2.3091,-2.3091,-2.3091,-2.3091,-2.3091,-2.3091,-2.356,-2.3777,-2.3767,-2.4701,-2.5368,-1.6687,-1.7088,-1.7554,-1.7569,-1.7141,-1.6015,-1.3389,-1.2148,0.0,0.0,-0.7592,-0.7429,-0.7468,-0.7711,-0.8101,0.0,-0.8942,-0.949,-1.0785,0.0,0.0,0.0,0.0,0.0,0.0,0.0,0.0,0.0,0.0,0.0,0.0,-1.277,-1.3099,-1.3682,-1.3682,-1.401,-1.467,-1.467,-1.4735,-1.4931,-1.5709,-1.6034,-1.5927,-1.6825,-1.6993,-1.6676,0.0,0.0,0.0,-1.87,-1.9127,-1.9424,-1.9424,-1.9424,-1.9424,-1.9424,-1.9325,-1.9199,-1.8671,-1.845,-1.831,-1.7762,-1.7582,-1.7582,-1.7582,-1.7582,-1.7582,-1.7582,-1.7582,-1.7515,-1.728,-1.6927,-1.6613,-1.6266,-1.5999,-1.5784,-1.5784,-1.5784,-1.5784,-1.5784,-1.6622,-1.7358,-1.7483,-1.8457,-1.9559,-2.0647,-2.1105,-2.165,-2.2574,-2.2838,-2.2969,-2.2969,-2.3047,-2.3091,-2.3091,-2.3091,-2.3091,-2.3091,-2.3091,-2.3091,-2.3091,-2.3091,-2.3091,-2.3091,-2.3091,-2.3091,-2.3091,-2.3091,-2.3091,-2.3135,-2.3864,-2.4327,-1.6633,-1.6941,-1.7306,-1.7515,-1.7141,-1.6015,-1.3389,0.0,0.0,-0.8276,-0.7396,-0.7135,-0.7461,-0.7508,0.0,0.0,0.0,-0.9344,0.0,0.0,0.0,0.0,0.0,0.0,0.0,0.0,0.0,0.0,0.0,0.0,0.0,-1.277,-1.2836,-1.2902,-1.2902,-1.3227,-1.4006,-1.4006,-1.4272,-1.4931,-1.4862,-1.4889,-1.4856,-1.5371,-1.5576,-1.5584,0.0,0.0,0.0,-1.7741,-1.835,-1.9424,-1.9424,-1.9424,-1.9424,-1.9424,-1.9199,-1.8918,-1.8597,-1.831,-1.7975,-1.7695,-1.7582,-1.7582,-1.7582,-1.7582,-1.7582,-1.7582,-1.7582,-1.7515,-1.728,-1.6927,-1.6567,-1.5957,-1.5798,-1.5784,-1.5784,-1.5784,-1.5784,-1.5784,-1.5872,-1.5967,-1.6015,-1.7716,-1.9131,-1.9268,-2.1015,-2.2299,-2.2441,-2.2441,-2.2476,-2.2476,-2.2838,-2.3091,-2.3091,-2.3091,-2.3091,-2.3091,-2.3091,-2.3091,-2.3091,-2.3091,-2.3091,-2.3091,-2.3091,-2.3091,-2.3091,-2.3091,-2.3091,-2.3091,-2.3178,-2.3691,-1.658,-1.6921,-1.7233,-1.7347,-1.7014,-1.593,-1.3055,0.0,-1.0589,-0.8143,-0.7342,-0.7192,-0.7439,-0.7484,-0.7707,0.0,0.0,0.0,-0.989,0.0,0.0,0.0,0.0,0.0,0.0,0.0,0.0,0.0,0.0,0.0,0.0,0.0,-1.277,-1.277,-1.277,-1.2968,-1.3227,-1.3179,-1.3254,-1.3509,-1.3323,-1.3167,-1.305,-1.3256,-1.3301,0.0,0.0,0.0,0.0,-1.6096,-1.7103,-1.8286,-1.8286,-1.8603,-1.9125,-1.9299,-1.9065,-1.8644,-1.8531,-1.8297,-1.7942,-1.7682,-1.7582,-1.7582,-1.7582,-1.7582,-1.7582,-1.7582,-1.7582,-1.7475,-1.7001,-1.6533,-1.6119,-1.5838,-1.5784,-1.5784,-1.5784,-1.5784,-1.5784,-1.5784,-1.5927,-1.6028,-1.6028,-1.6763,-1.7544,-1.8187,-1.9505,-2.0647,-2.1239,-2.1935,-2.2397,-2.2397,-2.2564,-2.275,-2.2925,-2.2925,-2.2925,-2.2925,-2.3047,-2.3057,-2.2925,-2.3057,-2.3091,-2.3091,-2.3091,-2.3091,-2.3091,-2.3091,-2.3091,-2.3091,-2.3091,-2.3309,-1.6266,-1.6667,-1.6965,-1.7052,-1.6794,-1.5768,0.0,-1.1735,-1.068,-0.8056,-0.7346,-0.7281,-0.7452,-0.7484,-0.7642,0.0,0.0,-0.839,-0.9282,0.0,0.0,0.0,0.0,0.0,0.0,0.0,0.0,0.0,0.0,0.0,0.0,0.0,-1.277,-1.277,-1.277,-1.2812,-1.2755,-1.2629,-1.254,-1.2487,-1.2308,-1.2154,-1.2028,-1.1975,-1.189,0.0,0.0,0.0,0.0,-1.5095,-1.6338,-1.7513,-1.7929,-1.8468,-1.9078,-1.9292,-1.8998,-1.849,-1.849,-1.8237,-1.7869,-1.7655,-1.7582,-1.7582,-1.7582,-1.7582,-1.7582,-1.7582,-1.7455,-1.7228,-1.6814,-1.6273,-1.5784,-1.5784,-1.5784,-1.5784,-1.5784,-1.5784,-1.5784,-1.5784,-1.5927,-1.6076,-1.6076,-1.6312,-1.6777,-1.7466,-1.8642,-1.9733,-2.0413,-2.1481,-2.2176,-2.2176,-2.2176,-2.2309,-2.2662,-2.2662,-2.2662,-2.2662,-2.2794,-2.2882,-2.2803,-2.2925,-2.3057,-2.3091,-2.3091,-2.3091,-2.3091,-2.3091,-2.3091,-2.3091,-2.3091,-2.3266,-1.5558,-1.6052,-1.6353,-1.664,-1.6493,-1.5575,-1.2749,-1.1735,-1.068,-0.8056,-0.7346,-0.7281,-0.7452,-0.7484,-0.7598,-0.7959,0.0,0.0,0.0,0.0,0.0,0.0,0.0,0.0,0.0,0.0,0.0,0.0,0.0,0.0,0.0,0.0,-1.277,-1.277,-1.277,-1.2751,-1.2568,-1.2628,-1.2479,-1.2308,-1.2121,-1.197,-1.2024,-1.1857,0.0,0.0,0.0,0.0,0.0,-1.5095,-1.6338,-1.763,-1.8887,-1.9366,-1.9424,-1.9424,-1.8998,-1.849,-1.849,-1.8096,-1.7589,-1.7582,-1.7582,-1.7582,-1.7582,-1.7582,-1.7582,-1.7582,-1.7161,-1.6714,-1.6707,-1.6273,-1.5784,-1.5784,-1.5784,-1.5784,-1.5784,-1.5784,-1.5784,-1.5784,-1.5784,-1.5784,-1.5784,-1.6629,-1.7279,-1.7279,-1.9018,-2.0294,-2.0294,-2.1132,-2.1696,-2.1696,-2.1696,-2.1909,-2.2353,-2.2397,-2.2397,-2.2397,-2.2397,-2.253,-2.2803,-2.2803,-2.2891,-2.3091,-2.3091,-2.3091,-2.3091,-2.3091,-2.3091,-2.3091,-2.3091,-2.3604,-1.3906,-1.4513,-1.4958,-1.4564,-1.4761,-1.4313,-1.1498,-1.1084,-1.0557,-0.8017,-0.7439,-0.7419,-0.7472,-0.7484,-0.7683,-0.8292,-0.8442,0.0,0.0,0.0,0.0,0.0,0.0,0.0,0.0,0.0,0.0,0.0,0.0,0.0,0.0,0.0,0.0,-1.2832,-1.2714,-1.2621,-1.2628,-1.232,-1.217,-1.2113,-1.1939,-1.1857,-1.1853,0.0,0.0,0.0,0.0,0.0,0.0,-1.2848,-1.3729,-1.503,-1.6338,-1.7177,-1.7886,-1.8766,-1.8691,-1.8135,-1.8135,-1.7923,-1.7582,-1.7582,-1.7582,-1.7582,-1.7582,-1.7582,-1.7542,-1.7393,-1.7007,-1.666,-1.646,-1.6119,-1.5784,-1.5784,-1.5784,-1.5784,-1.5784,-1.5784,-1.5784,-1.5784,-1.5784,-1.5784,-1.5784,-1.6062,-1.6251,-1.6251,-1.8002,-1.9293,-1.9293,-2.0673,-2.1696,-2.1696,-2.1696,-2.183,-2.2185,-2.2185,-2.2185,-2.2185,-2.2309,-2.2441,-2.253,-2.2706,-2.2882,-2.3091,-2.3091,-2.3091,-2.3091,-2.3091,-2.3091,-2.3091,-2.3091,-2.3266,-1.2684,-1.3279,-1.3745,-1.3385,-1.3629,-1.3416,-1.1221,-1.0824,-1.034,-0.8276,-0.7672,-0.7484,-0.7484,-0.7484,-0.763,-0.8126,-0.8272,0.0,0.0,0.0,0.0,0.0,0.0,0.0,0.0,0.0,0.0,0.0,0.0,0.0,0.0,0.0,0.0,-1.2633,-1.2527,-1.2434,-1.2361,-1.2142,-1.2,-1.1931,-1.1829,-1.1776,-1.1776,0.0,0.0,0.0,0.0,0.0,0.0,-1.2311,-1.296,-1.3844,-1.5095,-1.6242,-1.7253,-1.7913,-1.8164,-1.8142,-1.8035,-1.7842,-1.7582,-1.7582,-1.7582,-1.7582,-1.7582,-1.7582,-1.7549,-1.7414,-1.7021,-1.666,-1.648,-1.6132,-1.5784,-1.5784,-1.5784,-1.5784,-1.5784,-1.5784,-1.5784,-1.5784,-1.5784,-1.5784,-1.5784,-1.5784,-1.5784,-1.5784,-1.7498,-1.8788,-1.8788,-2.0492,-2.1696,-2.1696,-2.1696,-2.1785,-2.1919,-2.1963,-2.1963,-2.1963,-2.2087,-2.2176,-2.2264,-2.2451,-2.2618,-2.2828,-2.2828,-2.2828,-2.2828,-2.2925,-2.3013,-2.3091,-2.3091,-2.3091,0.0,-1.228,-1.2607,-1.2811,-1.2894,-1.2641,-1.1426,-1.0759,0.0,-0.8611,-0.7846,-0.7476,-0.7512,-0.75,-0.7508,-0.7586,-0.7866,0.0,0.0,0.0,0.0,0.0,0.0,0.0,0.0,0.0,0.0,0.0,0.0,0.0,0.0,0.0,0.0,0.0,-1.2276,-1.219,-1.197,-1.2016,-1.1931,-1.1776,-1.1776,-1.1776,-1.1776,0.0,0.0,0.0,0.0,0.0,0.0,-1.308,-1.3545,-1.3665,-1.4976,-1.6208,-1.7155,-1.695,-1.7434,-1.8189,-1.7953,-1.7716,-1.7477,-1.7582,-1.7582,-1.7582,-1.7582,-1.7582,-1.7575,-1.7528,-1.7128,-1.6693,-1.6653,-1.6239,-1.5784,-1.5784,-1.5784,-1.5784,-1.5784,-1.5784,-1.5784,-1.5784,-1.5784,-1.5784,-1.5784,-1.5784,-1.5784,-1.5784,-1.7451,-1.8696,-1.8696,-2.0393,-2.1597,-2.1597,-2.1651,-2.1696,-2.1696,-2.1696,-2.1696,-2.1696,-2.1696,-2.183,-2.2097,-2.2097,-2.2185,-2.2397,-2.2397,-2.2397,-2.2397,-2.2662,-2.2882,-2.3091,-2.3091,-2.3101,-1.0059,0.0,-1.1191,-1.0698,-1.0994,-1.0977,0.0,-0.9207,-0.902,-0.763,-0.7206,-0.7289,-0.7773,-0.7667,-0.7756,-0.8584,-0.867,-0.8865,0.0,0.0,0.0,0.0,0.0,0.0,0.0,0.0,0.0,0.0,0.0,0.0,0.0,0.0,0.0,0.0,-1.1967,-1.1943,-1.2028,-1.1902,-1.1817,-1.1776,-1.1776,-1.1776,0.0,0.0,0.0,0.0,0.0,0.0,0.0,-1.2134,-1.2251,-1.2367,-1.367,-1.4222,-1.4458,-1.514,-1.5462,-1.5594,-1.6216,-1.6342,-1.6452,-1.7312,-1.7582,-1.7582,-1.7582,-1.7582,-1.7488,-1.7041,-1.6814,-1.66,-1.6152,-1.5932,-1.5784,-1.5784,-1.5784,-1.5784,-1.5784,-1.5784,-1.5784,-1.5784,-1.5784,-1.5784,-1.5784,-1.5784,-1.5784,-1.5784,-1.6857,-1.7652,-1.7652,-1.9384,-2.0619,-2.0619,-2.1275,-2.1696,-2.1696,-2.1696,-2.1696,-2.1696,-2.1696,-2.183,-2.2097,-2.2097,-2.2185,-2.2397,-2.2397,-2.2397,-2.2397,-2.2441,-2.2618,-2.2882,-2.2882,-2.2969,-0.9516,-1.0062,-1.0566,-1.0297,-1.051,-1.0566,-0.9719,-0.9143,-0.8589,-0.8001,-0.7327,-0.7032,-0.766,-0.7668,-0.7801,0.0,-0.8796,0.0,0.0,0.0,0.0,0.0,0.0,0.0,0.0,0.0,0.0,0.0,0.0,0.0,0.0,0.0,0.0,0.0,0.0,-1.1821,-1.1914,-1.1825,-1.1776,-1.1776,-1.1776,-1.1776,0.0,0.0,0.0,0.0,0.0,0.0,-1.1776,-1.1776,-1.1727,-1.1706,-1.2409,-1.2931,-1.3308,-1.3717,-1.416,-1.4675,-1.4973,-1.5049,-1.5263,-1.6452,-1.6829,-1.6935,-1.7424,-1.7488,-1.7373,-1.7001,-1.6807,-1.66,-1.6152,-1.5932,-1.5784,-1.5784,-1.5784,-1.5784,-1.5784,-1.5784,-1.5784,-1.5784,-1.5784,-1.5784,-1.5784,-1.5784,-1.5784,-1.5784,-1.6676,-1.7279,-1.7279,-1.9063,-2.0294,-2.0294,-2.1132,-2.1696,-2.1696,-2.1696,-2.1696,-2.1696,-2.1696,-2.1785,-2.1919,-2.1919,-2.1963,-2.2087,-2.2087,-2.2132,-2.2264,-2.2264,-2.2397,-2.2618,-2.2759,-2.2838,-0.966,-1.0045,-1.0436,-1.0539,-1.0623,-1.0731,-1.0801,0.0,0.0,0.0,0.0,0.0,0.0,-0.8052,0.0,0.0,0.0,0.0,0.0,0.0,0.0,0.0,0.0,0.0,0.0,0.0,0.0,0.0,0.0,0.0,0.0,0.0,0.0,0.0,0.0,0.0,-1.1776,-1.1776,-1.1776,-1.1776,-1.1776,-1.1776,-1.1776,0.0,0.0,0.0,0.0,0.0,-1.1776,-1.1748,-1.1642,-1.1496,-1.1468,-1.1977,-1.2752,-1.2525,-1.3099,-1.3967,-1.3883,-1.4083,-1.4567,-1.5589,-1.6021,-1.6346,-1.7312,-1.7434,-1.7192,-1.7146,-1.6867,-1.6573,-1.6279,-1.6019,-1.5784,-1.5784,-1.5784,-1.5784,-1.5784,-1.5784,-1.5784,-1.5784,-1.5784,-1.5784,-1.5784,-1.5784,-1.5784,-1.5784,-1.6534,-1.7091,-1.7091,-1.8696,-1.9886,-2.0068,-2.0907,-2.1553,-2.1696,-2.1696,-2.1696,-2.1696,-2.1696,-2.1696,-2.1696,-2.1696,-2.1696,-2.1696,-2.1696,-2.183,-2.2052,-2.2052,-2.2141,-2.2353,-2.2574,-2.2715,-1.0322,-1.0725,-1.0803,-1.0178,-1.0358,-1.0491,-0.9747,-0.9365,0.0,0.0,0.0,0.0,0.0,-1.0142,-1.0728,0.0,0.0,0.0,0.0,0.0,0.0,0.0,0.0,0.0,0.0,0.0,0.0,0.0,0.0,0.0,0.0,0.0,0.0,0.0,0.0,0.0,0.0,-1.1776,-1.1776,-1.1776,-1.1776,-1.1776,-1.1776,-1.1776,0.0,0.0,0.0,0.0,-1.1764,-1.1606,-1.1524,-1.1484,-1.1325,-1.1273,-1.1339,-1.1258,-1.1252,-1.1435,-1.2318,-1.3976,-1.5642,-1.5861,-1.6558,-1.7364,-1.7529,-1.7434,-1.7146,-1.6847,-1.656,-1.6273,-1.5972,-1.5865,-1.5784,-1.5784,-1.5784,-1.5784,-1.5784,-1.5784,-1.5784,-1.5784,-1.5784,-1.5784,-1.5784,-1.5784,-1.5784,-1.5784,-1.592,-1.6015,-1.6015,-1.7037,-1.8102,-1.8926,-1.9931,-2.0853,-2.1642,-2.1696,-2.1696,-2.1696,-2.1696,-2.1696,-2.1696,-2.1696,-2.1696,-2.1696,-2.1696,-2.1741,-2.1785,-2.1785,-2.1874,-2.2141,-2.2185,-2.2318,-0.9913,-1.0244,-1.0424,-1.0346,-1.0942,-1.1435,-1.1002,-1.0526,-1.0084,0.0,0.0,0.0,0.0,0.0,0.0,0.0,0.0,0.0,0.0,0.0,0.0,0.0,0.0,0.0,0.0,0.0,0.0,0.0,0.0,0.0,0.0,0.0,0.0,0.0,0.0,0.0,0.0,-1.1626,-1.1675,-1.1776,-1.1776,-1.1776,-1.1776,-1.1776,-1.1776,0.0,0.0,-1.1719,-1.1622,-1.1537,-1.1386,-1.1204,-1.1118,-1.0976,-1.0822,-1.0822,-1.0765,-1.0852,-1.1987,-1.3117,-1.4245,-1.5482,-1.624,-1.6776,-1.7417,-1.7268,-1.6881,-1.674,-1.65,-1.6206,-1.5905,-1.5784,-1.5784,-1.5784,-1.5784,-1.5784,-1.5784,-1.5784,-1.5784,-1.5784,-1.5784,-1.5784,-1.5784,-1.5784,-1.5784,-1.5784,-1.5784,-1.5784,-1.5784,-1.6676,-1.7466,-1.7924,-1.888,-1.9886,-2.0853,-2.0943,-2.1177,-2.1687,-2.1696,-2.1696,-2.1696,-2.1696,-2.1696,-2.1696,-2.1696,-2.1696,-2.1696,-2.1696,-2.1785,-2.1874,-2.2052,-2.2141,-0.966,-0.9847,-1.0063,-1.0713,-1.1431,-1.2023,-1.233,-1.1741,-1.1235,0.0,0.0,0.0,0.0,0.0,0.0,0.0,0.0,0.0,0.0,0.0,0.0,0.0,0.0,0.0,0.0,0.0,0.0,0.0,0.0,0.0,0.0,0.0,0.0,0.0,0.0,0.0,0.0,-1.1435,-1.1504,-1.1646,-1.1646,-1.1646,-1.1646,-1.1646,-1.1646,-1.1646,-1.1646,-1.1565,-1.1431,-1.139,-1.1216,-1.102,-1.0923,-1.0818,-1.0692,-1.0692,-1.0692,-1.0798,-1.1719,-1.22,-1.2738,-1.4835,-1.5695,-1.6127,-1.7259,-1.7174,-1.6707,-1.6707,-1.6446,-1.6119,-1.5885,-1.5784,-1.5784,-1.5784,-1.5784,-1.5784,-1.5784,-1.5784,-1.5784,-1.5784,-1.5784,-1.5784,-1.5784,-1.5784,-1.5784,-1.5784,-1.5784,-1.5784,-1.5784,-1.6487,-1.7044,-1.7279,-1.7971,-1.8926,-2.0204,-2.0294,-2.0718,-2.1642,-2.1696,-2.1696,-2.1696,-2.1696,-2.1696,-2.1696,-2.1696,-2.1696,-2.1696,-2.1696,-2.1696,-2.1696,-2.1919,-2.2008,-1.0328,-1.0256,-1.0154,-1.1176,-1.1116,-1.1122,-1.2397,-1.2241,-1.1917,-1.2176,0.0,0.0,0.0,0.0,0.0,0.0,0.0,0.0,0.0,0.0,0.0,0.0,0.0,0.0,0.0,0.0,0.0,0.0,0.0,0.0,0.0,0.0,0.0,0.0,0.0,0.0,0.0,-1.124,-1.1248,-1.1261,-1.1261,-1.1261,-1.1261,-1.1261,-1.1261,-1.1261,-1.1261,-1.1252,-1.1232,-1.1074,-1.0992,-1.0952,-1.0777,-1.0704,-1.0692,-1.0692,-1.0692,-1.0692,-1.0798,-1.15,-1.2575,-1.3814,-1.4995,-1.6127,-1.7259,-1.7174,-1.6707,-1.6707,-1.6299,-1.5804,-1.5791,-1.5784,-1.5784,-1.5784,-1.5784,-1.5784,-1.5784,-1.5784,-1.5784,-1.5784,-1.5784,-1.5784,-1.5784,-1.5784,-1.5784,-1.5784,-1.5784,-1.5784,-1.5784,-1.5872,-1.6251,-1.7185,-1.7372,-1.8195,-2.0158,-2.0294,-2.0718,-2.1642,-2.1696,-2.1696,-2.1696,-2.1696,-2.1696,-2.1696,-2.1696,-2.1696,-2.1696,-2.1696,-2.1696,-2.1696,-2.1741,-2.1741,-0.9757,-0.9931,-1.0118,-1.1008,-1.1333,0.0,0.0,-1.32,-1.368,-1.379,-1.4273,0.0,0.0,0.0,0.0,0.0,0.0,0.0,0.0,0.0,0.0,0.0,0.0,0.0,0.0,0.0,0.0,0.0,0.0,0.0,0.0,0.0,0.0,0.0,0.0,0.0,0.0,0.0,-1.1005,-1.0895,-1.1114,-1.1224,-1.1224,-1.1224,-1.1224,-1.1224,-1.1224,-1.1163,-1.1062,-1.0997,-1.0959,-1.0789,-1.072,-1.0692,-1.0692,-1.0692,-1.0692,-1.0802,-1.15,-1.2041,-1.2575,-1.3706,-1.44,-1.4995,-1.618,-1.6122,-1.5783,-1.65,-1.6279,-1.5784,-1.5784,-1.5784,-1.5784,-1.5784,-1.5784,-1.5784,-1.5784,-1.5784,-1.5784,-1.5784,-1.5784,-1.5784,-1.5784,-1.5784,-1.5784,-1.5784,-1.5784,-1.5784,-1.5784,-1.5784,-1.5967,-1.6346,-1.7505,-1.8565,-1.9293,-2.0492,-2.132,-2.1696,-2.1696,-2.1696,-2.1696,-2.1696,-2.1696,-2.1696,-2.1696,-2.1696,-2.1696,-2.1696,-2.1696,-2.1696,-2.1696,-2.1696,-0.9414,-0.9709,-1.0094,-1.0918,0.0,0.0,-1.2717,-1.3676,-1.4558,-1.4896,-1.504,-1.4838,-1.3886,0.0,0.0,0.0,0.0,0.0,0.0,0.0,0.0,0.0,0.0,0.0,0.0,0.0,0.0,0.0,0.0,0.0,0.0,0.0,0.0,0.0,0.0,0.0,0.0,0.0,-1.0369,-1.0421,-1.0659,-1.0826,-1.0883,-1.0826,-1.077,-1.077,-1.077,-1.0763,-1.0771,-1.0771,-1.0754,-1.0692,-1.0692,-1.0692,-1.0692,-1.0692,-1.0692,-1.0802,-1.161,-1.1878,-1.2037,-1.3166,-1.3545,-1.376,-1.4995,-1.4966,-1.4716,-1.5834,-1.5735,-1.5397,-1.5737,-1.5784,-1.5784,-1.5784,-1.5784,-1.5784,-1.5784,-1.5784,-1.5784,-1.5784,-1.5784,-1.5784,-1.5784,-1.5784,-1.5784,-1.5784,-1.5784,-1.5784,-1.5784,-1.5784,-1.5784,-1.5784,-1.7037,-1.7963,-1.8288,-1.953,-2.0583,-2.123,-2.1275,-2.141,-2.1696,-2.1696,-2.1696,-2.1696,-2.1696,-2.1696,-2.1696,-2.1696,-2.1696,-2.1696,-2.1696,-2.1696,-0.9478,-0.9709,-1.0106,-1.0882,0.0,0.0,-1.3006,-1.3538,-1.422,-1.5282,-1.5294,-1.5113,-1.5113,0.0,0.0,0.0,0.0,0.0,0.0,0.0,0.0,0.0,0.0,0.0,0.0,0.0,0.0,0.0,0.0,0.0,0.0,0.0,0.0,0.0,0.0,0.0,0.0,0.0,-0.9199,-0.9761,-0.9761,-0.9981,-1.0257,-0.9926,-0.9816,-0.9816,-0.9816,-0.9981,-1.0312,-1.0312,-1.0472,-1.0692,-1.0692,-1.0692,-1.0692,-1.0692,-1.0692,-1.0692,-1.0692,-1.0692,-1.0852,-1.1982,-1.2363,-1.2575,-1.3706,-1.3756,-1.3596,-1.4716,-1.4647,-1.4538,-1.554,-1.5784,-1.5784,-1.5784,-1.5784,-1.5784,-1.5784,-1.5784,-1.5784,-1.5784,-1.5784,-1.5784,-1.5784,-1.5784,-1.5784,-1.5784,-1.5784,-1.5784,-1.5784,-1.5784,-1.5784,-1.5784,-1.5832,-1.6204,-1.7232,-1.7333,-1.8149,-2.0158,-2.0303,-2.0709,-2.1651,-2.1696,-2.1696,-2.1696,-2.1696,-2.1696,-2.1696,-2.1696,-2.1696,-2.1696,-2.1696,-2.1696,-0.8743,-0.9681,0.0,-1.126,0.0,0.0,0.0,-1.4232,0.0,0.0,-1.5565,-1.5384,-1.5384,0.0,0.0,0.0,0.0,0.0,0.0,0.0,0.0,0.0,0.0,0.0,0.0,0.0,0.0,0.0,0.0,0.0,0.0,0.0,0.0,0.0,0.0,0.0,0.0,0.0,0.0,-0.853,-0.8367,-0.8871,-0.9926,-0.9871,-0.9816,-0.9816,-0.9816,-0.9871,-0.9926,-0.9926,-0.9981,-1.0088,-1.0088,-1.0088,-1.0088,-1.0088,-1.0088,-1.0088,-1.0088,-1.0088,-1.0143,-1.0464,-1.0574,-1.0789,-1.1919,-1.1961,-1.2042,-1.3886,-1.4234,-1.4274,-1.5302,-1.5689,-1.5784,-1.5784,-1.5784,-1.5784,-1.5784,-1.5784,-1.5784,-1.5784,-1.5784,-1.5784,-1.5784,-1.5784,-1.5784,-1.5784,-1.5784,-1.5784,-1.5784,-1.5784,-1.5784,-1.5784,-1.644,-1.6998,-1.7279,-1.7971,-1.8611,-1.9201,-1.9247,-1.9985,-2.1642,-2.1696,-2.1696,-2.1696,-2.1696,-2.1696,-2.1696,-2.1696,-2.1696,-2.1696,-2.1696,-2.1696,-0.906,-1.0137,0.0,-1.1976,-1.2921,-1.3833,-1.4153,0.0,0.0,0.0,0.0,0.0,0.0,0.0,0.0,0.0,0.0,0.0,0.0,0.0,0.0,0.0,0.0,0.0,0.0,0.0,0.0,0.0,0.0,0.0,0.0,0.0,0.0,0.0,0.0,0.0,0.0,0.0,0.0,0.0,-0.6808,-0.7423,-0.8761,-0.9206,-0.943,-0.9434,-0.9596,-0.9651,-0.9651,-0.9761,-0.9816,-0.9816,-0.9816,-0.9816,-0.9816,-0.9816,-0.9816,-0.9816,-0.9816,-0.9816,-0.9816,-0.9816,-0.9816,-0.9911,-1.054,-1.0894,-1.1409,-1.3105,-1.3808,-1.4274,-1.535,-1.573,-1.5784,-1.5784,-1.5784,-1.5784,-1.5784,-1.5784,-1.5784,-1.5784,-1.5784,-1.5784,-1.5784,-1.5784,-1.5784,-1.5784,-1.5784,-1.5784,-1.5784,-1.5784,-1.5784,-1.5784,-1.6346,-1.6716,-1.6716,-1.7271,-1.7777,-1.8195,-1.8195,-1.9072,-2.1042,-2.1132,-2.132,-2.1687,-2.1696,-2.1696,-2.1696,-2.1696,-2.1696,-2.1696,-2.1696,-2.1696,-0.9803,-1.0772,-1.1742,-1.2782,-1.3338,0.0,-1.4515,-1.4678,-1.4763,-1.5046,0.0,0.0,0.0,0.0,0.0,0.0,0.0,0.0,0.0,0.0,0.0,0.0,0.0,0.0,0.0,0.0,0.0,0.0,0.0,0.0,0.0,0.0,0.0,0.0,0.0,0.0,0.0,0.0,0.0,0.0,0.0,-0.5837,-0.6953,-0.8202,-0.8771,-0.894,-0.9213,-0.9379,-0.9379,-0.9596,-0.9706,-0.9706,-0.9706,-0.9706,-0.9706,-0.9706,-0.9706,-0.9706,-0.9706,-0.9706,-0.9706,-0.9706,-0.9695,-0.9654,-0.9557,-1.0221,-1.1209,-1.2229,-1.3253,-1.4292,-1.5397,-1.5737,-1.5737,-1.5737,-1.5784,-1.5784,-1.5784,-1.5784,-1.5784,-1.5784,-1.5784,-1.5784,-1.5784,-1.5784,-1.5784,-1.5784,-1.5784,-1.5784,-1.5784,-1.5784,-1.5784,-1.5784,-1.5784,-1.5784,-1.5784,-1.5784,-1.6204,-1.7099,-1.7232,-1.8149,-2.0068,-2.0249,-2.0763,-2.1696,-2.1696,-2.1696,-2.1696,-2.1696,-2.1696,-2.1696,-2.1696,-2.1696,-0.829,-0.9873,0.0,0.0,-1.3465,-1.4171,-1.4346,-1.4389,-1.4521,-1.501,0.0,0.0,0.0,0.0,0.0,0.0,0.0,0.0,0.0,0.0,0.0,0.0,0.0,0.0,0.0,0.0,0.0,0.0,0.0,0.0,0.0,0.0,0.0,0.0,0.0,0.0,0.0,0.0,0.0,0.0,-0.3924,-0.4514,-0.5752,-0.6955,-0.7989,-0.8885,-0.8992,-0.8992,-0.8995,-0.9047,-0.9103,-0.9103,-0.9103,-0.9103,-0.9103,-0.9103,-0.9103,-0.9103,-0.9103,-0.9103,-0.9103,-0.9103,-0.902,-0.8913,-0.8881,-0.8944,-0.9324,-1.1144,-1.1929,-1.2587,-1.4436,-1.507,-1.5274,-1.5274,-1.5547,-1.5784,-1.5784,-1.5784,-1.5784,-1.5784,-1.5784,-1.5784,-1.5784,-1.5784,-1.5784,-1.5784,-1.5784,-1.5784,-1.5784,-1.5784,-1.5784,-1.5784,-1.5784,-1.5784,-1.5784,-1.5784,-1.5872,-1.6109,-1.6857,-1.7831,-1.9063,-1.9886,-2.0763,-2.1696,-2.1696,-2.1696,-2.1696,-2.1696,-2.1696,-2.1696,-2.1696,-2.1696,-0.8313,0.0,0.0,-1.2233,0.0,-1.4298,-1.4298,-1.4298,-1.4377,0.0,0.0,0.0,0.0,0.0,0.0,0.0,0.0,0.0,0.0,0.0,0.0,0.0,0.0,0.0,0.0,0.0,0.0,0.0,0.0,0.0,0.0,0.0,0.0,0.0,0.0,0.0,-0.5223,-0.2912,-0.2042,-0.2662,-0.2662,-0.3245,-0.4521,-0.6275,-0.7725,-0.8832,-0.8851,-0.8841,-0.8835,-0.8854,-0.8841,-0.8835,-0.8854,-0.8885,-0.8885,-0.8885,-0.8885,-0.8885,-0.8885,-0.8885,-0.8871,-0.8797,-0.8774,-0.8682,-0.8543,-0.885,-0.9404,-1.0421,-1.1206,-1.1999,-1.3071,-1.3854,-1.4346,-1.4346,-1.4921,-1.5452,-1.5452,-1.5452,-1.5452,-1.5452,-1.5452,-1.5452,-1.5452,-1.5594,-1.5689,-1.5778,-1.5784,-1.5784,-1.5784,-1.5784,-1.5784,-1.5784,-1.5784,-1.5784,-1.5784,-1.5784,-1.5784,-1.5784,-1.6298,-1.7044,-1.8056,-1.8611,-1.9758,-2.1651,-2.1696,-2.1696,-2.1696,-2.1696,-2.1696,-2.1696,-2.1696,-2.1696,-0.8308,0.0,-0.9705,-1.1893,-1.3224,0.0,-1.4238,-1.4298,0.0,0.0,0.0,0.0,0.0,0.0,0.0,0.0,0.0,0.0,0.0,0.0,0.0,0.0,0.0,0.0,0.0,0.0,0.0,0.0,0.0,0.0,0.0,0.0,0.0,0.0,0.0,0.0,-0.5128,-0.3017,-0.1853,-0.1689,-0.1689,-0.2374,-0.3797,-0.5841,-0.7353,-0.8407,-0.8696,-0.8788,-0.8679,-0.8808,-0.8801,-0.8723,-0.8849,-0.8861,-0.8885,-0.8885,-0.8885,-0.8878,-0.8854,-0.8844,-0.8817,-0.872,-0.8655,-0.8587,-0.8343,-0.8998,-0.9837,-0.9892,-1.0681,-1.1556,-1.1755,-1.2436,-1.3119,-1.3119,-1.3757,-1.4544,-1.4981,-1.5083,-1.5083,-1.5083,-1.5131,-1.5178,-1.5178,-1.5356,-1.5588,-1.5784,-1.5784,-1.5784,-1.5784,-1.5784,-1.5784,-1.5784,-1.5784,-1.5784,-1.5784,-1.5784,-1.5784,-1.5784,-1.5967,-1.644,-1.7279,-1.7466,-1.8703,-2.1141,-2.1365,-2.1553,-2.1696,-2.1696,-2.1696,-2.1696,-2.1696,-2.1696,0.0,0.0,-0.9827,0.0,-1.2549,-1.3017,0.0,0.0,0.0,0.0,0.0,0.0,0.0,0.0,0.0,0.0,0.0,0.0,0.0,0.0,0.0,0.0,0.0,0.0,0.0,0.0,0.0,0.0,0.0,0.0,0.0,0.0,0.0,0.0,0.0,0.0,-0.5085,-0.3741,-0.2581,-0.1628,-0.1628,-0.2692,-0.4661,-0.5163,-0.6036,-0.7187,-0.816,-0.853,-0.8513,-0.8533,-0.8608,-0.8713,-0.8733,-0.8821,-0.8885,-0.8885,-0.8885,-0.8865,-0.8788,-0.874,-0.8716,-0.8564,-0.8428,-0.8323,-0.8333,-0.8275,-0.8507,-0.9418,-0.9752,-1.0096,-1.1072,-1.1414,-1.1512,-1.1512,-1.1609,-1.2344,-1.4592,-1.5083,-1.5083,-1.5083,-1.5267,-1.5452,-1.5452,-1.5635,-1.5784,-1.5784,-1.5784,-1.5784,-1.5784,-1.5784,-1.5784,-1.5784,-1.5784,-1.5784,-1.5784,-1.5784,-1.5784,-1.5784,-1.6622,-1.7145,-1.7279,-1.8149,-1.8788,-1.9155,-2.0031,-2.0898,-2.1696,-2.1696,-2.1696,-2.1696,-2.1696,-2.1696,-0.5455,-0.7412,-0.9365,0.0,-1.0908,-1.1641,-1.2284,0.0,0.0,0.0,0.0,0.0,0.0,0.0,0.0,0.0,0.0,0.0,0.0,0.0,0.0,0.0,0.0,0.0,0.0,0.0,0.0,0.0,0.0,0.0,0.0,-0.814,-0.817,-0.8231,-0.7103,0.0,-0.4936,-0.3821,-0.2694,-0.1617,-0.1617,-0.207,-0.3074,-0.4364,-0.596,-0.769,-0.8288,-0.8435,-0.837,-0.8448,-0.8476,-0.8472,-0.8554,-0.8625,-0.8682,-0.8682,-0.8682,-0.8672,-0.8604,-0.8581,-0.8557,-0.8411,-0.8374,-0.8255,-0.8167,-0.8092,-0.8088,-0.8581,-0.8726,-0.8825,-0.9266,-0.9854,-1.0293,-1.0293,-1.0779,-1.1512,-1.2684,-1.3366,-1.395,-1.4544,-1.4879,-1.5118,-1.5267,-1.5452,-1.5683,-1.5784,-1.5784,-1.5784,-1.5784,-1.5784,-1.5784,-1.5784,-1.5784,-1.5784,-1.5784,-1.5784,-1.5784,-1.5784,-1.6204,-1.644,-1.644,-1.6897,-1.7358,-1.7971,-1.8926,-1.9666,-2.0076,-2.0628,-2.0907,-2.0943,-2.1454,-2.1696,0.0,0.0,-0.8148,-0.835,-0.9402,-1.0431,0.0,0.0,0.0,0.0,0.0,0.0,0.0,0.0,0.0,0.0,0.0,0.0,0.0,0.0,0.0,0.0,0.0,0.0,0.0,0.0,0.0,0.0,0.0,0.0,-0.7988,-0.7988,-0.7988,-0.7988,-0.7238,-0.6182,-0.4824,-0.3473,-0.2371,-0.1617,-0.1617,-0.1768,-0.207,-0.3924,-0.5924,-0.7858,-0.822,-0.8309,-0.8221,-0.8326,-0.833,-0.8333,-0.8387,-0.8452,-0.8482,-0.8482,-0.8482,-0.8476,-0.8442,-0.8428,-0.8404,-0.8258,-0.8211,-0.8191,-0.8025,-0.7988,-0.7988,-0.7988,-0.7988,-0.7988,-0.7988,-0.8577,-0.9217,-0.9217,-0.9805,-1.0587,-1.1414,-1.2193,-1.3022,-1.41,-1.4544,-1.4736,-1.4981,-1.522,-1.5452,-1.5594,-1.5642,-1.5642,-1.5642,-1.5642,-1.5642,-1.5642,-1.5642,-1.5642,-1.5642,-1.5642,-1.5642,-1.5642,-1.5642,-1.5642,-1.5737,-1.5737,-1.6109,-1.6904,-1.7638,-1.828,-1.8788,-1.9795,-2.0294,-2.0294,-2.1275,-2.1696,0.0,-0.5003,0.0,-0.7335,0.0,0.0,0.0,0.0,0.0,0.0,0.0,0.0,0.0,0.0,0.0,0.0,0.0,0.0,0.0,0.0,0.0,0.0,0.0,0.0,0.0,0.0,0.0,0.0,0.0,0.0,-0.7988,-0.7988,-0.7988,-0.7988,-0.7939,-0.693,-0.4824,-0.2723,-0.1667,-0.1617,-0.1617,-0.2119,-0.3173,-0.4273,-0.5429,-0.6545,-0.7556,-0.8008,-0.8002,-0.8008,-0.8143,-0.8323,-0.833,-0.8364,-0.8482,-0.8482,-0.8482,-0.8462,-0.833,-0.8333,-0.8255,-0.8102,-0.8002,-0.8002,-0.7992,-0.7988,-0.7988,-0.7988,-0.7988,-0.7988,-0.7988,-0.8038,-0.8088,-0.8088,-0.8137,-0.897,-1.1999,-1.2678,-1.3022,-1.41,-1.4544,-1.4688,-1.4742,-1.4933,-1.5131,-1.5131,-1.5131,-1.5131,-1.5131,-1.5131,-1.5131,-1.5131,-1.5131,-1.5131,-1.5131,-1.5131,-1.5131,-1.5131,-1.5131,-1.5267,-1.5493,-1.554,-1.5635,-1.5872,-1.592,-1.6897,-1.8788,-1.9795,-2.0294,-2.0294,-2.1275,-2.1696,0.0,0.0,0.0,-0.5801,-0.6605,0.0,0.0,0.0,0.0,0.0,0.0,0.0,0.0,0.0,0.0,0.0,0.0,0.0,0.0,0.0,0.0,0.0,0.0,0.0,0.0,0.0,0.0,0.0,0.0,0.0,-0.7988,-0.7988,-0.7988,-0.7988,-0.7988,-0.6983,-0.4824,-0.2672,-0.1617,-0.1617,-0.1617,-0.1818,-0.222,-0.3274,-0.4375,-0.5427,-0.6484,-0.7388,-0.7988,-0.7988,-0.8022,-0.8123,-0.8123,-0.8153,-0.8197,-0.8197,-0.8197,-0.8191,-0.814,-0.8123,-0.8113,-0.8008,-0.7988,-0.7988,-0.7988,-0.7988,-0.7988,-0.7988,-0.7988,-0.7988,-0.7988,-0.7988,-0.7988,-0.7988,-0.7988,-0.8478,-1.0337,-1.229,-1.3854,-1.425,-1.4544,-1.4688,-1.4688,-1.4933,-1.5083,-1.5083,-1.5083,-1.5083,-1.5083,-1.5083,-1.5083,-1.5083,-1.5083,-1.5083,-1.5083,-1.5083,-1.5083,-1.5083,-1.5083,-1.5131,-1.522,-1.522,-1.5267,-1.5363,-1.5499,-1.6008,-1.6897,-1.787,-1.838,-1.838,-1.9384,-1.9849,-0.3482,0.0,0.0,0.0,0.0,0.0,0.0,0.0,0.0,0.0,0.0,0.0,0.0,0.0,0.0,0.0,0.0,0.0,0.0,0.0,0.0,0.0,0.0,0.0,0.0,0.0,0.0,0.0,0.0,0.0,-0.7988,-0.7988,-0.7988,-0.7988,-0.7285,-0.6229,-0.4824,-0.2672,-0.1617,-0.1617,-0.1617,-0.1617,-0.1617,-0.2722,-0.3574,-0.4325,-0.5782,-0.6986,-0.7988,-0.7988,-0.7988,-0.7988,-0.7988,-0.7988,-0.7988,-0.7988,-0.7988,-0.7988,-0.7988,-0.7988,-0.7988,-0.7988,-0.7988,-0.7988,-0.7988,-0.7988,-0.7988,-0.7988,-0.7988,-0.7988,-0.7988,-0.7988,-0.7988,-0.7988,-0.8283,-0.8726,-0.946,-1.1512,-1.3366,-1.3709,-1.4202,-1.4592,-1.4592,-1.4694,-1.4838,-1.4838,-1.4838,-1.4838,-1.4838,-1.4838,-1.4838,-1.4838,-1.4838,-1.4838,-1.4838,-1.4838,-1.4838,-1.4838,-1.4838,-1.4885,-1.4981,-1.4981,-1.4984,-1.5079,-1.5254,-1.5397,-1.5538,-1.665,-1.7099,-1.7042,-1.8031,-1.8547,0.0,0.0,0.0,0.0,0.0,0.0,0.0,0.0,0.0,0.0,0.0,0.0,0.0,0.0,0.0,0.0,0.0,0.0,0.0,0.0,0.0,0.0,0.0,0.0,0.0,0.0,0.0,0.0,0.0,-0.7988,-0.7988,-0.7988,-0.7988,-0.7988,-0.5927,-0.4824,-0.4824,-0.2672,-0.1617,-0.1617,-0.1617,-0.1617,-0.1617,-0.2672,-0.3173,-0.3324,-0.5432,-0.6936,-0.7939,-0.7988,-0.7988,-0.7988,-0.7988,-0.7988,-0.7988,-0.7988,-0.7988,-0.7988,-0.7988,-0.7988,-0.7988,-0.7988,-0.7988,-0.7988,-0.7988,-0.7988,-0.7988,-0.7988,-0.7988,-0.7988,-0.7988,-0.7988,-0.7988,-0.7988,-0.8775,-0.9558,-0.9558,-1.0391,-1.1463,-1.2436,-1.3511,-1.4202,-1.4244,-1.4244,-1.425,-1.4298,-1.4298,-1.4298,-1.4298,-1.4298,-1.4298,-1.4298,-1.4298,-1.4298,-1.4298,-1.4298,-1.4298,-1.4298,-1.4298,-1.4442,-1.4694,-1.4682,-1.4788,-1.4968,-1.4962,-1.4956,-1.495,-1.6216,-1.669,-1.6382,-1.7363,-1.7938,-0.3231,0.0,0.0,0.0,0.0,0.0,0.0,0.0,0.0,0.0,0.0,0.0,0.0,0.0,0.0,0.0,0.0,0.0,0.0,0.0,0.0,0.0,0.0,0.0,0.0,0.0,0.0,0.0,0.0,-0.7988,-0.7988,-0.7988,-0.7988,-0.7988,-0.5927,-0.4824,-0.4824,-0.2672,-0.1617,-0.1617,-0.1617,-0.1617,-0.1617,-0.1919,-0.2471,-0.3274,-0.4626,-0.5829,-0.6886,-0.769,-0.7988,-0.7988,-0.7988,-0.7988,-0.7988,-0.7988,-0.7988,-0.7988,-0.7988,-0.7988,-0.7988,-0.7988,-0.7988,-0.7988,-0.7988,-0.7988,-0.7988,-0.7988,-0.7988,-0.7988,-0.7988,-0.7988,-0.7988,-0.7988,-0.8233,-0.8432,-0.8432,-0.9266,-1.0342,-1.1414,-1.1853,-1.2296,-1.3022,-1.3119,-1.3414,-1.4196,-1.4298,-1.4298,-1.4298,-1.4298,-1.4298,-1.4298,-1.4298,-1.4298,-1.4298,-1.4298,-1.4298,-1.4298,-1.4298,-1.4346,-1.4394,-1.4212,-1.4166,-1.4179,-1.4178,-1.4128,-1.3926,-1.5013,-1.548,-1.5404,-1.5889,-1.6052,-0.3422,-0.3596,0.0,0.0,0.0,0.0,0.0,0.0,0.0,0.0,0.0,0.0,0.0,0.0,0.0,0.0,0.0,0.0,0.0,0.0,0.0,0.0,0.0,0.0,0.0,0.0,0.0,0.0,-0.7988,-0.7988,-0.7988,-0.7988,-0.7988,-0.7988,-0.5927,-0.4824,-0.4824,-0.2672,-0.1617,-0.1617,-0.1617,-0.1617,-0.1617,-0.1617,-0.1919,-0.2572,-0.3674,-0.4726,-0.5829,-0.6886,-0.7587,-0.7988,-0.7988,-0.7988,-0.7988,-0.7988,-0.7988,-0.7988,-0.7988,-0.7988,-0.7988,-0.7988,-0.7988,-0.7988,-0.7988,-0.7988,-0.7988,-0.7988,-0.7988,-0.7988,-0.7988,-0.7988,-0.7988,-0.7988,-0.7988,-0.7988,-0.7988,-0.8482,-0.9266,-1.0342,-1.0881,-1.1365,-1.195,-1.2047,-1.2441,-1.3463,-1.3613,-1.3771,-1.41,-1.4135,-1.4135,-1.4135,-1.4135,-1.4177,-1.4286,-1.4298,-1.4298,-1.4298,-1.4298,-1.425,-1.4135,-1.3984,-1.3849,-1.3756,-1.3738,-1.3711,-1.363,-1.4198,-1.4555,-1.4694,-1.4905,-1.507,-0.3684,-0.3795,-0.3989,0.0,0.0,0.0,-0.4737,-0.4751,0.0,0.0,0.0,0.0,0.0,0.0,0.0,0.0,0.0,0.0,0.0,0.0,0.0,0.0,0.0,0.0,0.0,0.0,0.0,-0.803,-0.7958,-0.7971,-0.7988,-0.7988,-0.7939,-0.7839,-0.5877,-0.4724,-0.4624,-0.2622,-0.1617,-0.1617,-0.1617,-0.1617,-0.1617,-0.1617,-0.1617,-0.1667,-0.2723,-0.3725,-0.4724,-0.5932,-0.7036,-0.7988,-0.7988,-0.7988,-0.7988,-0.7988,-0.7988,-0.7988,-0.7988,-0.7988,-0.7988,-0.7988,-0.7988,-0.7988,-0.7988,-0.7988,-0.7988,-0.7988,-0.7988,-0.7988,-0.7988,-0.7988,-0.7988,-0.7988,-0.7988,-0.7988,-0.7988,-0.7988,-0.8283,-0.9217,-1.0194,-1.0877,-1.0974,-1.1023,-1.1356,-1.2351,-1.2496,-1.28,-1.3608,-1.3718,-1.3718,-1.3863,-1.3863,-1.396,-1.4189,-1.4208,-1.4208,-1.4208,-1.4208,-1.4105,-1.3876,-1.3833,-1.3701,-1.351,-1.3504,-1.3592,-1.3768,-1.378,-1.3962,-1.4213,-1.4394,-1.4774,0.0,0.0,0.0,0.0,0.0,0.0,0.0,-0.4071,0.0,0.0,0.0,0.0,0.0,0.0,0.0,0.0,0.0,0.0,0.0,0.0,0.0,0.0,0.0,0.0,0.0,0.0,-0.7888,-0.7682,-0.779,-0.7909,-0.7982,-0.7988,-0.7587,-0.6736,-0.5477,-0.4373,-0.3524,-0.222,-0.1617,-0.1617,-0.1617,-0.1617,-0.1617,-0.1617,-0.1617,-0.1667,-0.2723,-0.3324,-0.3674,-0.5582,-0.7036,-0.7988,-0.7988,-0.7988,-0.7988,-0.7988,-0.7988,-0.7988,-0.7988,-0.7988,-0.7988,-0.7988,-0.7988,-0.7988,-0.7988,-0.7988,-0.7988,-0.7988,-0.7988,-0.7988,-0.7988,-0.7988,-0.7988,-0.7988,-0.7988,-0.7988,-0.7988,-0.7988,-0.8038,-0.8283,-0.8482,-0.8924,-0.9756,-0.9899,-1.0236,-1.1182,-1.1344,-1.1601,-1.2354,-1.2464,-1.2745,-1.3495,-1.3592,-1.361,-1.3664,-1.367,-1.367,-1.367,-1.367,-1.3646,-1.3592,-1.3387,-1.3326,-1.348,-1.348,-1.3525,-1.357,-1.3743,-1.3932,-1.4212,-1.4238,-1.4417,0.0,0.0,0.0,-0.4232,0.0,0.0,0.0,0.0,0.0,0.0,0.0,0.0,0.0,0.0,0.0,0.0,0.0,0.0,0.0,0.0,0.0,0.0,0.0,0.0,0.0,0.0,-0.7434,-0.7587,-0.7665,-0.777,-0.787,-0.7877,-0.7464,-0.6434,-0.5379,-0.4273,-0.3224,-0.212,-0.1617,-0.1617,-0.1617,-0.1617,-0.1617,-0.1617,-0.1516,-0.1415,-0.1968,-0.252,-0.3071,-0.4175,-0.5327,-0.6528,-0.7587,-0.7988,-0.7988,-0.7988,-0.7988,-0.7988,-0.7988,-0.7988,-0.7988,-0.7988,-0.7988,-0.7988,-0.7988,-0.7988,-0.7988,-0.7988,-0.7988,-0.7988,-0.7988,-0.7988,-0.7971,-0.7894,-0.7877,-0.7906,-0.7834,-0.7821,-0.7821,-0.7821,-0.7821,-0.7987,-0.8589,-0.8698,-0.903,-0.9939,-1.0101,-1.0538,-1.174,-1.1894,-1.226,-1.318,-1.332,-1.3369,-1.3507,-1.3513,-1.3513,-1.3513,-1.364,-1.3652,-1.3519,-1.3513,-1.3453,-1.3276,-1.332,-1.332,-1.332,-1.3403,-1.3654,-1.4063,-1.4002,-1.4167,0.0,0.0,0.0,0.0,0.0,-0.4404,0.0,0.0,0.0,0.0,0.0,0.0,0.0,0.0,0.0,0.0,0.0,0.0,0.0,0.0,0.0,0.0,0.0,0.0,0.0,0.0,-0.6987,-0.7343,-0.732,-0.7386,-0.7612,-0.7626,-0.7094,-0.5916,-0.504,-0.4002,-0.2757,-0.1864,-0.1465,-0.1465,-0.1465,-0.1465,-0.1465,-0.1465,-0.1314,-0.1111,-0.1111,-0.1615,-0.2418,-0.2619,-0.3371,-0.4574,-0.6833,-0.769,-0.7739,-0.7939,-0.7988,-0.7988,-0.7988,-0.7988,-0.7988,-0.7988,-0.7988,-0.7988,-0.7988,-0.7988,-0.7988,-0.7988,-0.7988,-0.7982,-0.7955,-0.7944,-0.7907,-0.7804,-0.777,-0.774,-0.7624,-0.76,-0.76,-0.76,-0.76,-0.7638,-0.775,-0.777,-0.8006,-0.8734,-0.8846,-0.9376,-1.0879,-1.1071,-1.143,-1.2373,-1.2642,-1.2862,-1.3069,-1.3222,-1.3363,-1.3363,-1.361,-1.3664,-1.3447,-1.3688,-1.3634,-1.3212,-1.32,-1.32,-1.32,-1.3151,-1.3349,-1.3837,-1.3724,-1.3831,0.0,0.0,0.0,0.0,-0.4624,0.0,0.0,0.0,0.0,0.0,0.0,0.0,0.0,0.0,0.0,0.0,0.0,0.0,0.0,0.0,0.0,0.0,0.0,0.0,0.0,0.0,0.0,-0.6574,-0.639,-0.6474,-0.6979,-0.7007,-0.6105,-0.4157,-0.3985,-0.2995,-0.1083,-0.0952,-0.0909,-0.0909,-0.0909,-0.0909,-0.0909,-0.0909,-0.0859,-0.0859,-0.0859,-0.0909,-0.1111,-0.2065,-0.2516,-0.2918,-0.5579,-0.6587,-0.6686,-0.7637,-0.7988,-0.7988,-0.7988,-0.7988,-0.7988,-0.7988,-0.7988,-0.7988,-0.7988,-0.7988,-0.7988,-0.7988,-0.7988,-0.7958,-0.7872,-0.7838,-0.7801,-0.7658,-0.7624,-0.7617,-0.7604,-0.76,-0.76,-0.76,-0.76,-0.7604,-0.7621,-0.7624,-0.7617,-0.7601,-0.7622,-0.7925,-0.8769,-0.888,-0.9227,-1.0178,-1.1013,-1.1511,-1.1532,-1.2316,-1.2795,-1.2795,-1.3055,-1.32,-1.3169,-1.3423,-1.3532,-1.3471,-1.3471,-1.3471,-1.3471,-1.3236,-1.326,-1.3553,-1.3292,-1.3311,0.0,0.0,0.0,0.0,0.0,0.0,-0.4384,0.0,-0.4118,0.0,0.0,0.0,0.0,0.0,0.0,0.0,0.0,0.0,0.0,0.0,0.0,0.0,0.0,0.0,0.0,0.0,0.0,0.0,0.0,-0.6083,-0.6516,-0.606,-0.5189,-0.3842,-0.3254,-0.2262,-0.082,-0.0779,-0.0782,-0.0782,-0.0782,-0.0782,-0.0782,-0.0791,-0.0696,-0.0547,-0.0553,-0.0556,-0.0606,-0.1059,-0.1311,-0.1664,-0.3371,-0.4474,-0.5122,-0.6226,-0.6628,-0.6678,-0.7335,-0.7537,-0.754,-0.7693,-0.7743,-0.7793,-0.7939,-0.7988,-0.7988,-0.7988,-0.7928,-0.7892,-0.7828,-0.775,-0.7651,-0.7502,-0.7468,-0.7444,-0.7353,-0.7287,-0.7287,-0.7287,-0.7287,-0.7287,-0.7287,-0.7407,-0.7414,-0.7261,-0.7238,-0.7522,-0.8376,-0.85,-0.8846,-0.9792,-1.0269,-1.0491,-1.0491,-1.0837,-1.1095,-1.1095,-1.1855,-1.2371,-1.2513,-1.3131,-1.3441,-1.329,-1.329,-1.3206,-1.3043,-1.2934,-1.294,-1.3043,-1.2928,-1.294,-0.4679,0.0,0.0,0.0,0.0,0.0,0.0,0.0,0.0,0.0,0.0,0.0,0.0,0.0,0.0,0.0,0.0,0.0,0.0,0.0,0.0,0.0,0.0,0.0,0.0,0.0,0.0,0.0,0.0,0.0,-0.5642,-0.505,-0.4206,-0.3174,-0.2491,-0.1651,-0.0567,-0.057,-0.0572,-0.0572,-0.0572,-0.0572,-0.0572,-0.0581,-0.0488,-0.0295,-0.0299,-0.0302,-0.0303,-0.0303,-0.0404,-0.0656,-0.1462,-0.2214,-0.3065,-0.4618,-0.517,-0.5322,-0.6379,-0.6936,-0.7238,-0.7444,-0.7494,-0.7537,-0.7694,-0.773,-0.772,-0.7733,-0.7644,-0.7551,-0.7508,-0.7426,-0.7313,-0.7255,-0.7218,-0.7233,-0.7119,-0.7095,-0.7095,-0.7095,-0.7095,-0.7095,-0.7095,-0.7234,-0.7272,-0.7112,-0.7095,-0.736,-0.8017,-0.8105,-0.8364,-0.9052,-0.9357,-0.9536,-0.9536,-0.9749,-0.9946,-1.0008,-1.0824,-1.142,-1.169,-1.2291,-1.2631,-1.2718,-1.2648,-1.265,-1.2705,-1.2705,-1.2705,-1.2705,-1.2705,-1.2705,0.0,0.0,0.0,-0.4599,0.0,0.0,0.0,0.0,-0.4259,0.0,0.0,0.0,0.0,0.0,-0.404,-0.3924,0.0,0.0,0.0,0.0,0.0,0.0,0.0,0.0,0.0,0.0,0.0,0.0,0.0,0.0,-0.3999,-0.3946,-0.3175,-0.1525,-0.1464,-0.0971,-0.0046,-0.0047,-0.0048,-0.0048,-0.0048,-0.0048,-0.0048,-0.0048,0.0,0.0,0.0,0.0,0.0,0.0,0.0,-0.0051,-0.0051,-0.0101,-0.0454,-0.3065,-0.4066,-0.4216,-0.5272,-0.6329,-0.7188,-0.7188,-0.7238,-0.7214,-0.7128,-0.7136,-0.7112,-0.6988,-0.6948,-0.6913,-0.6777,-0.674,-0.6748,-0.6789,-0.6802,-0.6887,-0.7054,-0.7095,-0.7095,-0.7095,-0.7095,-0.7095,-0.7095,-0.7098,-0.7102,-0.7095,-0.7095,-0.7095,-0.7139,-0.7139,-0.7139,-0.7183,-0.8017,-0.8544,-0.8544,-0.9362,-1.0012,-1.0274,-1.0338,-1.0479,-1.0731,-1.0498,-1.0835,-1.1721,-1.1494,-1.1806,-1.2705,-1.2705,-1.2705,-1.2705,-1.2705,-1.2705,0.0,0.0,-0.4146,-0.3941,0.0,0.0,0.0,0.0,0.0,0.0,0.0,0.0,0.0,0.0,-0.4046,-0.3924,-0.3868,0.0,0.0,0.0,0.0,0.0,0.0,0.0,0.0,0.0,0.0,0.0,0.0,0.0,0.0,-0.3234,-0.251,-0.1448,-0.0807,-0.0318,0.0,0.0,0.0,0.0,0.0,0.0,0.0,0.0,0.0,0.0,0.0,0.0,0.0,0.0,0.0,0.0,0.0,0.0,-0.0198,-0.1805,-0.2416,-0.2562,-0.362,-0.4245,-0.4581,-0.4762,-0.4837,-0.4977,-0.5812,-0.604,-0.6177,-0.6759,-0.6823,-0.6743,-0.6697,-0.6614,-0.649,-0.6532,-0.652,-0.6564,-0.6609,-0.6653,-0.6653,-0.6653,-0.6653,-0.6653,-0.6653,-0.6653,-0.6741,-0.7051,-0.7095,-0.7095,-0.7095,-0.7095,-0.7095,-0.7095,-0.7404,-0.758,-0.758,-0.7881,-0.808,-0.8182,-0.8766,-0.9146,-0.9255,-0.9765,-1.0144,-1.0353,-1.037,-1.0507,-1.0705,-1.0807,-1.0802,-1.0705,-1.0705,-1.1426,-0.241,-0.2784,0.0,0.0,-0.2835,0.0,-0.3509,0.0,0.0,0.0,0.0,0.0,0.0,0.0,-0.3964,-0.3604,-0.368,-0.3742,0.0,0.0,0.0,0.0,0.0,0.0,0.0,0.0,-0.4115,-0.4287,0.0,0.0,0.0,0.0,-0.1669,-0.0912,-0.0311,0.0,0.0,0.0,0.0,0.0,0.0,0.0,0.0,0.0,0.0,0.0,0.0,0.0,0.0,0.0,0.0,0.0,0.0,0.0,-0.0099,-0.0798,-0.1293,-0.1677,-0.2385,-0.2859,-0.3239,-0.3387,-0.3466,-0.3603,-0.4379,-0.484,-0.5256,-0.5828,-0.613,-0.6343,-0.6343,-0.6233,-0.6169,-0.6254,-0.6302,-0.6299,-0.6387,-0.6384,-0.6384,-0.6384,-0.6384,-0.6384,-0.6384,-0.6384,-0.652,-0.6786,-0.683,-0.683,-0.683,-0.683,-0.683,-0.683,-0.683,-0.683,-0.683,-0.6922,-0.701,-0.701,-0.7625,-0.799,-0.7933,-0.8547,-0.9013,-0.9208,-0.935,-0.9484,-0.9714,-0.98,-0.9757,-0.9641,-0.9932,-1.0757]}]]